[[{"header":{"parameterUnit":"m.s-1","parameterCategory":1,"la1":30.6,"la2":29.2853,"lo1":-89.7004,"lo2":-87.6739,"dy":0.0162,"dx":0.0183,"nx":112,"ny":82,"refTime":"2026-03-07T00:00:00:Z","depth":0,"parameterNumber":2,"parameterNumberName":"U-component_of_WINDS"},"data":[0.0,0.0,0.0,0.0,0.0,0.0,0.0,0.0,0.0,0.0,0.0,0.0,0.0,0.0,0.0,0.0,0.0,0.0,0.0,0.0,0.0,0.0,0.0,0.0,0.0,0.0,0.0,0.0,0.0,0.0,0.0,0.0,0.0,0.0,0.0,0.0,0.0,0.0,0.0,0.0,0.0,0.0,0.0,0.0,0.0,0.0,0.0,0.0,0.0,0.0,0.0,0.0,0.0,0.0,0.0,0.0,0.0,0.0,0.0,0.0,0.0,0.0,0.0,0.0,0.0,0.0,0.0,0.0,0.0,0.0,0.0,0.0,0.0,0.0,0.0,0.0,0.0,0.0,0.0,0.0,0.0,0.0,0.0,0.0,0.0,0.0,0.0,0.0,0.0,0.0,-3.4832,-3.641,-4.0239,-4.2498,-4.2015,-4.0883,-3.8175,-3.3433,0.0,0.0,0.0,0.0,0.0,0.0,0.0,0.0,0.0,0.0,0.0,0.0,0.0,0.0,0.0,0.0,0.0,0.0,0.0,0.0,0.0,0.0,0.0,0.0,0.0,0.0,0.0,0.0,0.0,0.0,0.0,0.0,0.0,0.0,0.0,0.0,0.0,0.0,0.0,0.0,0.0,0.0,0.0,0.0,0.0,0.0,0.0,0.0,0.0,0.0,0.0,0.0,0.0,0.0,0.0,0.0,0.0,0.0,0.0,0.0,0.0,0.0,0.0,0.0,0.0,0.0,0.0,0.0,0.0,0.0,0.0,0.0,0.0,0.0,0.0,0.0,0.0,0.0,0.0,0.0,0.0,0.0,0.0,0.0,0.0,0.0,0.0,0.0,0.0,0.0,0.0,0.0,0.0,0.0,0.0,0.0,0.0,0.0,0.0,0.0,0.0,0.0,0.0,0.0,-3.3947,-3.9065,-4.0884,-4.1521,-4.1047,-3.9935,-3.7661,-3.3977,0.0,0.0,0.0,0.0,0.0,0.0,0.0,0.0,0.0,0.0,0.0,0.0,0.0,0.0,0.0,0.0,0.0,0.0,0.0,0.0,0.0,0.0,0.0,0.0,0.0,0.0,0.0,0.0,0.0,0.0,0.0,0.0,0.0,0.0,0.0,0.0,0.0,0.0,0.0,0.0,0.0,0.0,0.0,0.0,0.0,0.0,0.0,0.0,0.0,0.0,0.0,0.0,0.0,0.0,0.0,0.0,0.0,0.0,0.0,0.0,0.0,0.0,0.0,0.0,0.0,0.0,0.0,0.0,0.0,0.0,0.0,0.0,0.0,0.0,0.0,0.0,0.0,0.0,0.0,0.0,0.0,0.0,0.0,0.0,0.0,0.0,0.0,0.0,0.0,0.0,0.0,0.0,0.0,0.0,0.0,0.0,0.0,0.0,0.0,0.0,0.0,0.0,0.0,-3.3568,-3.5856,-4.1133,-4.2027,-4.1973,-4.123,-4.0319,-3.7998,-3.3898,-3.1773,0.0,0.0,0.0,0.0,0.0,0.0,0.0,0.0,0.0,0.0,0.0,0.0,0.0,0.0,0.0,0.0,0.0,0.0,0.0,0.0,0.0,0.0,0.0,0.0,0.0,0.0,0.0,0.0,0.0,0.0,0.0,0.0,0.0,0.0,0.0,0.0,0.0,0.0,0.0,0.0,0.0,0.0,0.0,0.0,0.0,0.0,0.0,0.0,0.0,0.0,0.0,0.0,0.0,0.0,0.0,0.0,0.0,0.0,0.0,0.0,0.0,0.0,0.0,0.0,0.0,0.0,0.0,0.0,0.0,0.0,0.0,0.0,0.0,0.0,0.0,0.0,0.0,0.0,0.0,0.0,0.0,0.0,0.0,0.0,0.0,0.0,0.0,0.0,0.0,0.0,0.0,0.0,0.0,0.0,0.0,0.0,0.0,0.0,0.0,0.0,0.0,0.0,-3.6264,-3.8062,-4.1848,-4.2358,-4.2077,-4.1253,-4.0022,-3.7517,-3.3418,-3.0927,0.0,0.0,0.0,0.0,0.0,0.0,0.0,0.0,0.0,0.0,0.0,0.0,0.0,0.0,0.0,0.0,0.0,0.0,0.0,0.0,0.0,0.0,0.0,0.0,0.0,0.0,0.0,0.0,0.0,0.0,0.0,0.0,0.0,0.0,0.0,0.0,0.0,0.0,0.0,0.0,0.0,0.0,0.0,0.0,0.0,0.0,0.0,0.0,0.0,0.0,0.0,0.0,0.0,0.0,0.0,0.0,0.0,0.0,0.0,0.0,0.0,0.0,0.0,0.0,0.0,0.0,0.0,0.0,0.0,0.0,0.0,0.0,0.0,0.0,0.0,0.0,0.0,0.0,0.0,0.0,0.0,0.0,0.0,0.0,0.0,0.0,0.0,0.0,0.0,0.0,0.0,0.0,0.0,0.0,0.0,0.0,0.0,0.0,0.0,0.0,0.0,0.0,-3.6229,-3.9299,-4.0197,-4.0683,-4.0754,-4.0229,-3.76,-3.491,-3.253,-2.8994,0.0,0.0,0.0,0.0,0.0,0.0,0.0,0.0,0.0,0.0,0.0,0.0,0.0,0.0,0.0,0.0,0.0,0.0,0.0,0.0,0.0,0.0,0.0,0.0,0.0,0.0,0.0,0.0,0.0,0.0,0.0,0.0,0.0,0.0,0.0,0.0,0.0,0.0,0.0,0.0,0.0,0.0,0.0,0.0,0.0,0.0,0.0,0.0,0.0,0.0,0.0,0.0,0.0,0.0,0.0,0.0,0.0,0.0,0.0,0.0,0.0,0.0,0.0,0.0,0.0,0.0,0.0,0.0,0.0,0.0,0.0,0.0,0.0,0.0,0.0,0.0,0.0,0.0,0.0,0.0,0.0,0.0,0.0,0.0,0.0,0.0,0.0,0.0,0.0,0.0,0.0,0.0,0.0,0.0,0.0,0.0,0.0,0.0,0.0,0.0,0.0,0.0,-3.498,-3.8014,0.0,-4.1139,-4.1047,-4.0563,-3.9076,-3.6466,-3.2551,0.0,0.0,0.0,0.0,0.0,0.0,0.0,0.0,0.0,0.0,0.0,0.0,0.0,0.0,0.0,0.0,0.0,0.0,0.0,0.0,0.0,0.0,0.0,0.0,0.0,0.0,0.0,0.0,0.0,0.0,0.0,0.0,0.0,0.0,0.0,0.0,0.0,0.0,0.0,0.0,0.0,0.0,0.0,0.0,0.0,0.0,0.0,0.0,0.0,0.0,0.0,0.0,0.0,0.0,0.0,0.0,0.0,0.0,0.0,0.0,0.0,0.0,0.0,0.0,0.0,0.0,0.0,0.0,0.0,0.0,0.0,0.0,0.0,0.0,0.0,0.0,0.0,0.0,0.0,0.0,0.0,0.0,0.0,0.0,0.0,0.0,0.0,0.0,0.0,0.0,0.0,0.0,0.0,0.0,0.0,0.0,0.0,0.0,0.0,0.0,0.0,0.0,-3.1742,-3.4627,-3.7538,0.0,-4.1047,-4.0908,-4.0587,-3.902,-3.6305,-3.2212,0.0,0.0,0.0,0.0,0.0,0.0,0.0,0.0,0.0,0.0,0.0,0.0,0.0,0.0,0.0,0.0,0.0,0.0,0.0,0.0,0.0,0.0,0.0,0.0,0.0,0.0,0.0,0.0,0.0,0.0,0.0,0.0,0.0,0.0,0.0,0.0,0.0,0.0,0.0,0.0,0.0,0.0,0.0,0.0,0.0,0.0,0.0,0.0,0.0,0.0,0.0,0.0,0.0,0.0,0.0,0.0,0.0,0.0,0.0,0.0,0.0,0.0,0.0,0.0,0.0,0.0,0.0,0.0,0.0,0.0,0.0,0.0,0.0,0.0,0.0,0.0,0.0,0.0,0.0,0.0,0.0,0.0,0.0,0.0,0.0,0.0,0.0,0.0,0.0,0.0,0.0,0.0,0.0,0.0,0.0,0.0,0.0,0.0,0.0,0.0,0.0,0.0,-3.1707,-3.5429,-3.8464,-3.9943,-4.0113,-4.0113,-4.0113,-3.6694,-3.3558,0.0,0.0,0.0,0.0,0.0,0.0,0.0,0.0,0.0,0.0,0.0,0.0,0.0,0.0,0.0,0.0,0.0,0.0,0.0,0.0,0.0,0.0,0.0,0.0,0.0,0.0,0.0,0.0,0.0,0.0,0.0,0.0,0.0,0.0,0.0,0.0,0.0,0.0,0.0,0.0,0.0,0.0,0.0,0.0,0.0,0.0,0.0,0.0,0.0,0.0,0.0,0.0,0.0,0.0,0.0,0.0,0.0,0.0,0.0,0.0,0.0,0.0,0.0,0.0,0.0,0.0,0.0,0.0,0.0,0.0,0.0,0.0,0.0,0.0,0.0,0.0,0.0,0.0,0.0,0.0,0.0,0.0,0.0,0.0,0.0,0.0,0.0,0.0,0.0,0.0,0.0,0.0,0.0,0.0,0.0,0.0,0.0,0.0,0.0,0.0,0.0,0.0,0.0,-3.1155,-3.5225,-3.8464,-3.9943,-4.0113,-4.0113,-4.0113,-3.8125,-3.5284,-3.1427,0.0,0.0,0.0,0.0,0.0,0.0,0.0,0.0,0.0,0.0,0.0,0.0,0.0,0.0,0.0,0.0,0.0,0.0,0.0,0.0,0.0,0.0,0.0,0.0,0.0,0.0,0.0,0.0,0.0,0.0,0.0,0.0,0.0,0.0,0.0,0.0,0.0,0.0,0.0,0.0,0.0,0.0,0.0,0.0,0.0,0.0,0.0,0.0,0.0,0.0,0.0,0.0,0.0,0.0,0.0,0.0,0.0,0.0,0.0,0.0,0.0,0.0,0.0,0.0,0.0,0.0,0.0,0.0,0.0,0.0,0.0,0.0,0.0,0.0,0.0,0.0,0.0,0.0,0.0,0.0,0.0,0.0,0.0,0.0,0.0,0.0,0.0,0.0,0.0,0.0,0.0,0.0,0.0,0.0,0.0,0.0,0.0,0.0,0.0,0.0,0.0,0.0,-3.1025,-3.5181,-3.8464,-3.9943,-4.0113,-4.0113,-4.0113,-3.8734,-3.6096,-3.1921,0.0,0.0,0.0,0.0,0.0,0.0,0.0,0.0,0.0,0.0,0.0,0.0,0.0,0.0,0.0,0.0,0.0,0.0,0.0,0.0,0.0,0.0,0.0,0.0,0.0,0.0,0.0,0.0,0.0,0.0,0.0,0.0,0.0,0.0,0.0,0.0,0.0,0.0,0.0,0.0,0.0,0.0,0.0,0.0,0.0,0.0,0.0,0.0,0.0,0.0,0.0,0.0,0.0,0.0,0.0,0.0,0.0,0.0,0.0,0.0,0.0,0.0,0.0,0.0,0.0,0.0,0.0,0.0,0.0,0.0,0.0,0.0,0.0,0.0,0.0,0.0,0.0,0.0,0.0,0.0,0.0,0.0,0.0,0.0,0.0,0.0,0.0,0.0,0.0,0.0,0.0,0.0,0.0,0.0,0.0,0.0,0.0,0.0,0.0,0.0,0.0,0.0,-3.1183,-3.529,-3.8464,-3.9943,-4.0113,-4.0113,-4.0113,-3.8734,-3.6332,-3.2611,0.0,0.0,0.0,0.0,0.0,0.0,0.0,0.0,0.0,0.0,0.0,0.0,0.0,0.0,0.0,0.0,0.0,0.0,0.0,0.0,0.0,0.0,0.0,0.0,0.0,0.0,0.0,0.0,0.0,0.0,0.0,0.0,0.0,0.0,0.0,0.0,0.0,0.0,0.0,0.0,0.0,0.0,0.0,0.0,0.0,0.0,0.0,0.0,0.0,0.0,0.0,0.0,0.0,0.0,0.0,0.0,0.0,0.0,0.0,0.0,-3.5429,0.0,0.0,0.0,0.0,0.0,0.0,0.0,0.0,0.0,0.0,0.0,0.0,0.0,0.0,0.0,0.0,0.0,0.0,0.0,0.0,0.0,0.0,0.0,0.0,0.0,0.0,0.0,0.0,0.0,0.0,0.0,0.0,0.0,0.0,0.0,0.0,0.0,0.0,0.0,0.0,0.0,-3.0983,-3.5159,-3.8464,-3.9943,-4.0113,-4.0113,-4.0113,-3.8734,-3.6523,-3.3296,-2.9555,0.0,0.0,0.0,0.0,0.0,0.0,0.0,0.0,0.0,0.0,0.0,0.0,0.0,0.0,0.0,0.0,0.0,0.0,0.0,0.0,0.0,0.0,0.0,0.0,0.0,0.0,0.0,0.0,0.0,0.0,0.0,0.0,0.0,0.0,0.0,0.0,0.0,0.0,0.0,0.0,0.0,0.0,0.0,0.0,0.0,0.0,0.0,0.0,0.0,0.0,0.0,0.0,0.0,0.0,0.0,0.0,0.0,0.0,0.0,0.0,-3.7224,0.0,0.0,0.0,0.0,0.0,0.0,0.0,0.0,0.0,0.0,0.0,0.0,0.0,0.0,0.0,0.0,0.0,0.0,0.0,0.0,0.0,0.0,0.0,0.0,0.0,0.0,0.0,0.0,0.0,0.0,0.0,0.0,0.0,0.0,0.0,0.0,0.0,0.0,0.0,0.0,-3.1447,-3.5656,-3.887,-3.9977,-4.0113,-4.0087,-4.0011,-3.8974,-3.7195,-3.4499,-3.1073,0.0,0.0,0.0,0.0,0.0,0.0,0.0,0.0,0.0,0.0,0.0,0.0,0.0,0.0,0.0,0.0,0.0,0.0,0.0,0.0,0.0,0.0,0.0,0.0,0.0,0.0,0.0,0.0,0.0,0.0,0.0,0.0,0.0,0.0,0.0,0.0,0.0,0.0,0.0,0.0,0.0,0.0,0.0,0.0,0.0,0.0,0.0,0.0,0.0,0.0,0.0,0.0,0.0,-4.3489,-4.4223,-4.472,-4.532,-4.5627,-4.5469,-4.256,-4.1582,-4.1938,0.0,0.0,0.0,0.0,0.0,0.0,0.0,0.0,0.0,0.0,0.0,0.0,0.0,0.0,0.0,0.0,0.0,0.0,0.0,0.0,0.0,0.0,0.0,0.0,0.0,-3.5463,-3.5284,0.0,0.0,0.0,0.0,0.0,0.0,0.0,0.0,0.0,0.0,0.0,0.0,-3.2226,-3.6321,-3.9276,-4.0011,-4.0113,-4.0062,-3.9935,-3.9244,-3.7874,-3.5698,-3.2801,-2.9948,0.0,0.0,0.0,0.0,0.0,0.0,0.0,0.0,0.0,0.0,0.0,0.0,0.0,0.0,0.0,0.0,0.0,0.0,0.0,0.0,0.0,0.0,0.0,0.0,0.0,0.0,0.0,0.0,0.0,0.0,0.0,0.0,-3.3004,-3.4518,0.0,0.0,0.0,0.0,0.0,0.0,0.0,0.0,0.0,0.0,0.0,0.0,0.0,-4.0702,-4.2763,-4.4785,-4.5645,-4.5313,-4.7304,-4.8,-4.7502,-4.7569,-4.7967,-4.8531,-4.8033,0.0,-4.3369,-4.1039,0.0,0.0,0.0,0.0,0.0,0.0,0.0,0.0,0.0,0.0,0.0,0.0,0.0,0.0,0.0,0.0,0.0,0.0,0.0,0.0,0.0,0.0,-3.9573,-3.9908,-3.999,-3.9595,0.0,-3.4201,-3.0514,-2.8739,0.0,0.0,0.0,0.0,0.0,0.0,0.0,0.0,-3.2983,-3.6603,-3.9276,-4.0011,-4.0113,-4.0113,-4.0087,-3.9261,-3.8085,-3.6377,-3.3985,-3.1616,-2.9296,-2.6445,0.0,0.0,0.0,0.0,0.0,0.0,0.0,0.0,0.0,0.0,0.0,0.0,0.0,0.0,0.0,0.0,0.0,0.0,0.0,0.0,0.0,0.0,0.0,0.0,0.0,0.0,0.0,0.0,0.0,-3.2582,-3.5222,-3.6204,-3.6428,-3.5742,0.0,0.0,0.0,0.0,0.0,0.0,0.0,0.0,0.0,-4.2763,-4.3227,-4.4291,-4.6079,-4.7471,-4.8398,-4.8895,-4.9856,-5.0386,-5.0452,-5.0452,-5.0651,-5.0949,-5.0949,-4.9823,-4.78,-4.4746,-4.265,-4.1117,0.0,0.0,0.0,0.0,0.0,-3.8361,-3.9727,-4.0074,0.0,0.0,0.0,0.0,0.0,0.0,0.0,0.0,0.0,0.0,0.0,0.0,0.0,-4.117,-4.1343,-4.1143,-4.0714,-3.8259,-3.5161,0.0,-3.1596,-3.0446,-2.6437,0.0,0.0,0.0,0.0,-3.322,-3.5047,-3.7845,-3.974,-4.0079,-4.0113,-4.0037,-3.9884,-3.9538,-3.8824,-3.7594,-3.5714,-3.3871,-3.214,-2.9223,-2.6645,0.0,0.0,0.0,0.0,0.0,0.0,0.0,0.0,0.0,0.0,0.0,0.0,0.0,0.0,0.0,0.0,0.0,0.0,0.0,0.0,0.0,0.0,0.0,0.0,0.0,0.0,0.0,0.0,-3.5095,-3.7461,-3.7785,-3.8783,-3.8284,0.0,0.0,0.0,0.0,0.0,0.0,-4.1669,-4.2435,-4.3827,-4.6046,-4.6643,-4.7636,-4.9094,-4.9657,-5.0485,-5.158,-5.158,-5.1879,-5.2409,-5.2409,-5.2409,-5.2409,-5.2409,-5.2111,-5.1348,-4.8001,-4.5881,-4.4556,-4.2588,-4.1549,-4.1156,-4.2365,-4.2532,-4.2446,-4.464,-4.4879,-4.3959,-4.2734,0.0,-3.8837,-3.5883,0.0,0.0,0.0,0.0,-3.7286,-3.9156,-4.0059,-4.0757,-4.1971,-4.2209,-4.2171,-4.2167,-4.1372,-3.9437,0.0,-3.5374,-3.437,-2.9533,0.0,0.0,0.0,0.0,-3.5318,-3.6874,-3.886,-4.0113,-4.0113,-4.0087,-3.9961,-3.9781,-3.9677,-3.9298,-3.8461,-3.7078,-3.566,-3.4293,-3.1765,-2.935,-2.7175,0.0,0.0,0.0,0.0,0.0,0.0,0.0,0.0,0.0,0.0,0.0,0.0,0.0,0.0,0.0,0.0,0.0,0.0,0.0,0.0,0.0,0.0,0.0,0.0,0.0,0.0,0.0,0.0,0.0,-3.9282,-4.1011,0.0,0.0,0.0,0.0,-3.9978,-4.1409,-4.3197,-4.5417,-4.6212,-4.7636,-4.9856,-4.9988,-5.0684,-5.2142,-5.2243,-5.2277,-5.2343,-5.2343,-5.234,-5.2409,-5.2409,-5.2409,-5.2409,-5.2409,-5.2409,-5.2142,-4.9889,-4.8498,-4.7636,-4.6113,-4.5514,-4.5514,-4.558,-4.6011,-4.6576,-4.6742,-4.6311,-4.5881,-4.7206,-4.5218,-4.2137,-4.1243,-3.9628,0.0,0.0,-4.0624,-4.1582,-4.2995,-4.3333,-4.3459,-4.3735,-4.3647,-4.3418,-4.3036,-4.2745,-4.1749,0.0,-3.7557,-3.6186,-3.4404,0.0,-3.3457,-3.4066,-3.4945,-3.6107,-3.7652,-3.914,-4.0113,-4.0113,-3.9986,-3.9884,-3.9884,-3.9659,-3.9168,-3.8461,-3.7543,-3.6406,-3.4939,-3.3381,-3.1568,-2.947,-2.6489,0.0,0.0,0.0,0.0,0.0,0.0,0.0,0.0,0.0,0.0,0.0,0.0,0.0,0.0,0.0,0.0,0.0,0.0,0.0,0.0,0.0,0.0,0.0,0.0,0.0,0.0,0.0,0.0,-4.2696,-4.4721,0.0,-4.2601,-4.28,-4.3297,-4.3857,-4.5218,-4.6808,-4.8531,-4.9326,-5.0286,-5.1578,-5.1612,-5.1843,-5.2373,-5.2409,-5.2409,-5.2409,-5.2409,-5.2409,-5.2409,-5.2409,-5.2409,-5.2409,-5.2409,-5.2409,-5.2343,-5.1545,-5.0783,-5.0021,-4.9028,-4.863,-4.863,-4.863,-4.8796,-4.9028,-4.9028,-4.8862,-4.8498,-4.757,-4.5748,-4.3794,-4.3035,-4.2332,-4.1962,-4.2895,-4.3359,-4.382,-4.4754,-4.5019,-4.4887,-4.4514,-4.4354,-4.4155,-4.3514,-4.3007,-4.2399,-4.1476,-4.0318,-3.8578,-3.5701,-3.6197,-3.6603,-3.5385,-3.6671,-3.8159,-3.9174,-3.9774,-4.0113,-4.0113,-4.0062,-3.9986,-3.9918,-3.9729,-3.9272,-3.8461,-3.7576,-3.6638,-3.5644,-3.3723,-3.2122,-3.0895,-2.8475,-2.579,0.0,0.0,0.0,0.0,0.0,0.0,0.0,0.0,0.0,0.0,0.0,0.0,0.0,0.0,0.0,0.0,0.0,0.0,0.0,0.0,0.0,0.0,0.0,0.0,0.0,0.0,-4.3992,-4.4953,-4.7239,-4.7868,-4.5649,-4.6311,-4.7007,-4.7272,-4.8431,-4.9657,-5.0883,-5.138,-5.1912,-5.2409,-5.2409,-5.2409,-5.2409,-5.2409,-5.2409,-5.2409,-5.2409,-5.2409,-5.2409,-5.2409,-5.2409,-5.2409,-5.2409,-5.2409,-5.2409,-5.2409,-5.2111,-5.1647,-5.1115,-5.0949,-5.0949,-5.0949,-5.0949,-5.0916,-5.0651,-5.0585,-5.0253,-4.8266,-4.6808,-4.5682,-4.4953,-4.4556,-4.4522,-4.5218,-4.5417,-4.5549,-4.6046,-4.6179,-4.5914,-4.492,-4.4688,-4.4489,-4.3764,-4.3289,-4.2945,-4.2737,-4.1759,-4.0169,-3.7754,-3.8385,-3.8747,-3.7253,-3.8299,-3.9446,-3.9969,-4.0011,-3.9961,-3.9961,-3.9935,-3.9858,-3.9755,-3.9425,-3.8954,-3.8384,-3.7086,-3.6141,-3.5644,-3.3723,-3.2232,-3.125,-2.8887,-2.6435,-2.3984,0.0,0.0,0.0,0.0,0.0,0.0,0.0,0.0,0.0,0.0,0.0,0.0,0.0,0.0,0.0,0.0,0.0,0.0,0.0,0.0,0.0,0.0,0.0,-3.9448,-4.3194,-4.5914,-4.5947,-4.8498,-4.9425,-4.7272,-4.8365,-4.9525,-5.022,-5.0916,-5.1647,-5.234,-5.2409,-5.2407,-5.2442,-5.2442,-5.2407,-5.2475,-5.2475,-5.2475,-5.2475,-5.2475,-5.2475,-5.2475,-5.2407,-5.2442,-5.2442,-5.2407,-5.2409,-5.2409,-5.2409,-5.2409,-5.2409,-5.2409,-5.2409,-5.2409,-5.2409,-5.2409,-5.231,-5.158,-5.1315,-5.1083,-4.9624,-4.8663,-4.7901,-4.7173,-4.6444,-4.6013,-4.6709,-4.6941,-4.6941,-4.6941,-4.6941,-4.6576,-4.5086,-4.4721,-4.4522,-4.3797,-4.3598,-4.3426,-4.2841,-4.171,-4.0849,-4.0816,-4.0206,-3.9763,-3.9892,-3.9781,0.0,-3.9858,-3.9781,-3.9703,-3.9703,-3.9573,-3.9501,-3.9501,-3.8705,-3.8195,-3.8162,-3.6108,-3.4883,-3.4849,-3.3458,-3.2,-3.0555,-2.7741,-2.5556,-2.4116,0.0,0.0,0.0,0.0,0.0,0.0,0.0,0.0,0.0,0.0,0.0,0.0,0.0,0.0,0.0,0.0,0.0,0.0,0.0,0.0,0.0,-3.9454,-4.1806,-4.2336,-4.5748,-4.8597,-4.9691,-5.0949,-5.1545,-5.0949,-5.1247,-5.1578,-5.1777,-5.1976,-5.221,-5.2409,-5.2409,-5.2605,-5.3102,-5.3135,-5.34,-5.393,-5.393,-5.393,-5.393,-5.393,-5.393,-5.3897,-5.3367,-5.3135,-5.3102,-5.2605,-5.2409,-5.2409,-5.2409,-5.2409,-5.2409,-5.2409,-5.2409,-5.2409,-5.2409,-5.2409,-5.2376,-5.2177,-5.1746,-5.1249,-5.0851,-4.9823,-4.8763,-4.8564,-4.7968,-4.7438,-4.7636,-4.7703,-4.7703,-4.7703,-4.7703,-4.7471,-4.651,-4.5881,-4.5284,-4.4556,-4.3992,-4.3562,-4.3393,-4.2655,-4.1777,-4.0956,-4.0615,-4.034,-3.9856,-3.9729,0.0,-3.9755,-3.9729,-3.9703,-3.9703,-3.9651,-3.9651,-3.9651,-3.8828,-3.7885,-3.6845,-3.5584,-3.4651,-3.4121,-3.3216,-3.2266,-3.1317,-2.8986,-2.7348,0.0,0.0,0.0,0.0,0.0,0.0,0.0,0.0,0.0,0.0,0.0,0.0,0.0,0.0,0.0,0.0,0.0,0.0,0.0,0.0,0.0,0.0,-4.27,-4.5154,-4.6213,-4.8233,-5.0121,-5.1614,-5.2144,-5.2409,-5.2409,-5.2409,-5.2409,-5.2409,-5.2409,-5.2506,-5.2804,-5.2804,-5.3135,-5.3864,-5.3864,-5.4096,-5.449,-5.449,-5.449,-5.449,-5.449,-5.4324,-5.3993,-5.3599,-5.3268,0.0,-5.2572,-5.2409,-5.2409,-5.2409,-5.2409,0.0,0.0,0.0,0.0,0.0,-5.2409,-5.2409,-5.2409,-5.2144,-5.1713,-5.1415,-5.0717,-4.9922,-4.9293,-4.8796,-4.8398,-4.81,-4.8001,-4.8001,-4.8001,-4.8001,-4.7802,-4.7073,-4.6576,-4.5947,-4.4951,-4.4357,-4.3992,-4.3664,0.0,0.0,-4.1699,-4.1261,-4.0821,-4.0201,-4.0014,-3.9914,-3.9666,-3.9573,-3.952,-3.952,-3.952,-3.952,-3.952,-3.8776,0.0,0.0,0.0,-3.4419,-3.3381,-3.263,0.0,0.0,0.0,0.0,0.0,0.0,0.0,0.0,-2.5375,-2.5176,0.0,0.0,0.0,0.0,0.0,0.0,0.0,0.0,0.0,0.0,0.0,0.0,0.0,0.0,0.0,0.0,-4.5947,-4.8763,-5.0253,-5.0452,-5.0949,-5.234,-5.2506,-5.2539,-5.2605,-5.2539,-5.2506,-5.2506,-5.2506,-5.2771,-5.3367,0.0,0.0,0.0,0.0,-5.4655,-5.4759,-5.4759,-5.4725,-5.4589,-5.4589,-5.4262,-5.3533,-5.3467,-5.3069,-5.2506,-5.2442,-5.2409,-5.2409,-5.2409,-5.2409,-5.2409,-5.2409,-5.2409,-5.2409,-5.2409,-5.2409,0.0,0.0,0.0,0.0,-5.1647,-5.1382,-5.1083,-4.9723,-4.9293,-4.9094,-4.8332,-4.8133,-4.81,-4.8034,-4.8001,-4.7835,-4.7173,-4.6974,-4.6543,-4.5218,-4.4818,-4.4489,-4.383,-4.3664,-4.34,-4.2738,-4.2009,-4.1337,-4.0779,-4.0597,-4.0271,-3.9674,-3.9528,-3.9381,-3.9315,0.0,0.0,-3.9315,-3.8626,-3.7897,-3.7168,-3.5777,-3.4419,-3.3149,-3.2464,-3.2398,-3.3083,-3.2365,-3.2299,-3.295,-3.295,-3.2994,-3.2961,-2.8853,-2.8006,0.0,0.0,0.0,0.0,0.0,0.0,0.0,0.0,0.0,0.0,0.0,0.0,0.0,0.0,0.0,-4.5582,-4.8133,-5.0286,-5.1744,-5.1943,-5.2274,-5.3102,-5.3202,-5.3434,-5.4063,-5.3566,-5.3202,-5.3202,-5.3202,-5.3268,-5.34,-5.3927,0.0,-5.535,-5.5383,-5.5686,-5.6249,-5.6249,-5.5984,-5.5383,0.0,0.0,-5.4295,-5.3699,-5.3334,-5.3169,-5.2605,-5.2409,-5.2409,-5.2409,-5.2409,-5.2409,-5.2409,-5.2409,-5.2409,-5.2409,-5.2409,-5.2409,-5.2409,-5.2409,-5.2409,-5.2243,-5.1779,-5.1249,-5.0984,-5.0452,0.0,-4.9094,-4.8895,-4.8763,-4.8166,-4.8001,-4.7968,-4.7835,-4.7338,-4.6808,-4.6543,-4.5516,-4.4655,-4.4489,-4.4026,-4.3532,-4.34,-4.2771,-4.2071,-4.1337,-4.121,-4.0945,-4.0304,-4.0177,-3.9978,-3.9348,-3.9315,-3.9315,-3.9315,-3.8626,-3.7897,-3.7168,-3.6274,-3.5644,-3.5379,-3.5214,-3.5214,-3.5346,-3.4651,-3.4319,-3.4452,-3.4452,-3.4783,-3.528,-3.2663,-3.1967,0.0,0.0,0.0,0.0,0.0,0.0,0.0,0.0,0.0,0.0,0.0,-3.789,-4.0415,0.0,-4.598,-4.8199,-4.979,-5.1115,-5.2241,-5.2409,-5.2638,-5.3334,-5.3102,-5.3169,-5.3897,-5.3632,-5.34,-5.34,-5.3765,-5.4129,-5.4456,-5.4821,-5.5421,-5.615,-5.615,-5.6316,-5.668,-5.6316,-5.5984,-5.5582,-5.5218,-5.4655,-5.3964,-5.3599,-5.3235,-5.287,-5.2539,-5.2409,-5.2409,-5.2409,-5.2409,-5.2409,-5.2409,-5.2409,-5.2409,-5.2409,-5.2409,-5.2409,-5.2409,-5.2409,-5.2409,-5.2409,-5.2177,-5.1779,-5.1415,-5.1015,-5.0585,-4.9856,-4.9392,-4.9028,-4.8663,-4.8299,-4.8001,-4.8001,-4.7736,-4.7338,-4.6974,-4.6311,-4.5582,-4.4821,-4.439,-4.4026,-4.3664,-4.33,-4.2804,-4.2042,-4.1943,-4.1707,-4.0978,-4.0613,-4.0276,-3.9912,-3.9514,-3.9315,-3.9315,-3.8626,-3.8037,-3.7673,-3.697,-3.6539,-3.6539,-3.6539,-3.6539,-3.6539,-3.6208,-3.6009,-3.6009,-3.6009,-3.6373,-3.7069,-3.5976,-3.5446,0.0,0.0,0.0,0.0,0.0,0.0,0.0,0.0,-3.6108,-3.8328,-4.0315,-4.2431,-4.4887,-4.704,-4.8862,-5.022,-5.1015,-5.1746,-5.2343,-5.2409,-5.2638,-5.3334,-5.2937,-5.287,-5.3566,-5.35,-5.34,-5.34,-5.4096,-5.4754,-5.535,-5.5686,-5.6084,-5.668,-5.668,-5.668,-5.668,-5.5984,-5.5516,-5.535,-5.4622,-5.393,-5.3202,-5.3202,-5.2904,-5.2409,-5.2409,-5.2409,-5.2409,-5.2409,-5.2409,-5.2409,-5.2409,-5.2409,-5.2409,-5.2409,-5.2409,-5.2409,-5.2409,-5.2409,-5.2409,-5.2409,-5.2409,-5.231,-5.1713,-5.1514,-5.1382,-5.0618,-4.9988,-4.9491,-4.9359,-4.8763,-4.8233,-4.8233,-4.81,-4.7835,-4.7239,-4.7007,-4.6543,-4.5351,-4.4917,-4.4489,-4.3926,-4.3698,-4.34,-4.2804,-4.2704,-4.244,-4.1711,-4.1143,-4.0746,-4.0613,-4.0078,-3.968,-3.9514,-3.8825,-3.8427,-3.8427,-3.7864,-3.7533,-3.7533,-3.7533,-3.7533,-3.7533,-3.7533,-3.7533,-3.7533,-3.7533,-3.7831,-3.8427,-3.8427,-3.8096,-3.5943,-3.3988,-3.3282,-3.5644,-3.5943,-3.6936,0.0,0.0,-4.217,-4.4357,-4.5549,-4.6477,-4.7438,-4.8895,-5.022,-5.1015,-5.1812,-5.231,-5.2409,-5.2409,-5.2638,-5.3334,-5.3334,-5.3599,-5.4291,-5.3798,-5.34,-5.34,-5.4096,-5.456,-5.4589,-5.5885,-5.6614,-5.668,-5.668,-5.668,-5.668,-5.5984,-5.5251,-5.4589,-5.3897,-5.3169,-5.2506,-5.2506,-5.244,-5.2409,-5.2409,-5.2409,-5.2409,-5.2409,-5.2409,-5.2409,-5.2409,-5.2409,-5.2409,-5.2409,-5.2409,-5.2409,-5.2409,-5.2409,-5.2409,-5.2409,-5.2409,-5.2409,-5.231,-5.231,-5.2108,-5.1382,-5.1149,-5.0883,-5.0253,-4.9525,-4.8995,-4.8995,-4.8498,-4.7968,-4.7901,-4.7371,-4.6841,-4.6676,-4.5582,-4.4655,-4.4589,-4.4026,-4.3565,-4.3499,-4.3466,-4.3201,-4.2473,-4.2307,-4.2038,-4.1375,-4.121,-4.0912,-4.0343,-3.9613,-3.9183,-3.9183,-3.9116,-3.905,-3.905,-3.905,-3.905,-3.905,-3.905,-3.905,-3.905,-3.905,-3.9116,-3.9183,-3.9183,-3.9149,-3.9653,-3.8791,-3.8593,-3.9421,-4.068,-4.2237,-4.4224,-4.4887,-4.545,-4.6808,-4.8001,-4.9061,-4.9756,-5.0783,-5.1578,0.0,-5.221,-5.2409,-5.2409,-5.2409,-5.2473,-5.2771,-5.2804,-5.3102,-5.3798,-5.3599,-5.34,-5.34,-5.4096,-5.4688,-5.5118,-5.5719,-5.6249,-5.668,-5.668,-5.6481,-5.6084,-5.5355,-5.4589,-5.3864,-5.3169,-5.2672,-5.2409,-5.2409,-5.2409,-5.2409,-5.2409,-5.2409,-5.2409,-5.2409,-5.2409,-5.2409,-5.2409,-5.2409,-5.2409,-5.2409,-5.2409,-5.2409,-5.2409,-5.2409,-5.2409,-5.2409,-5.2409,-5.2409,-5.2409,-5.2409,-5.2343,-5.2045,-5.1647,-5.1249,-5.0916,-4.9988,-4.9094,-4.9094,-4.8531,-4.8001,-4.8001,-4.7769,-4.7404,-4.6974,-4.6378,-4.5715,-4.4851,-4.4423,-4.4092,-4.3664,-4.3598,-4.3499,-4.3168,-4.2771,-4.2208,-4.1508,-4.1409,-4.1309,-4.1011,-4.0315,-3.9945,-3.9945,-3.9547,-3.9315,-3.9315,-3.9315,-3.9315,-3.9315,-3.9315,-3.9315,-3.9315,-3.9315,-3.9315,-3.9315,-3.9315,-3.9315,-4.1475,-4.1806,-4.2473,-4.2336,-4.439,-4.6378,-4.6245,-4.7206,-4.8299,-4.9061,-5.0055,-5.0984,-5.1514,-5.2045,-5.2409,-5.2409,-5.2409,-5.2409,-5.2409,-5.2409,-5.2343,-5.2144,-5.2111,-5.2274,-5.2771,-5.3003,-5.3135,-5.3135,-5.3798,-5.4423,-5.4953,-5.535,-5.5852,-5.6382,-5.6581,-5.6349,-5.5582,-5.4854,-5.4162,-5.34,-5.2705,-5.2409,-5.2409,-5.2409,-5.2409,-5.2409,-5.2409,-5.2409,-5.2409,-5.2409,-5.2409,-5.2409,-5.2409,-5.2409,-5.2409,-5.2409,-5.2409,-5.2409,-5.2409,-5.2409,-5.2409,-5.2409,-5.2409,-5.2409,-5.2409,-5.2409,-5.2409,-5.2409,-5.2045,-5.1614,-5.1614,-5.0651,-4.9723,-4.9723,-4.8995,-4.8299,-4.8299,-4.8133,-4.7835,-4.7305,-4.704,-4.6543,-4.5483,-4.4953,-4.4522,-4.3992,-4.3731,-4.3598,-4.3598,-4.3135,-4.2605,-4.2042,-4.1811,-4.1678,-4.1678,-4.1077,-4.068,-4.068,-4.0177,-3.9812,-3.9613,-3.9613,-3.9514,-3.9315,-3.9315,-3.9315,-3.9315,-3.9315,-3.9315,-3.9315,-3.9315,-3.9315,-4.0641,-4.1442,-4.2866,-4.4224,-4.6278,-4.8299,-4.9723,-5.0618,-5.1382,-5.2111,-5.231,-5.2343,-5.234,-5.2409,-5.2409,-5.2409,-5.2409,-5.2409,-5.2409,-5.2409,-5.2144,-5.1448,-5.1348,-5.1348,0.0,-5.2011,-5.2442,-5.2442,-5.3069,-5.3467,-5.3467,-5.4821,-5.5615,-5.5615,-5.6316,-5.6349,-5.5582,-5.4854,-5.4162,-5.34,-5.2705,-5.2409,-5.2409,-5.2409,-5.2409,-5.2409,-5.2409,-5.2409,-5.2409,-5.2409,-5.2409,-5.2409,-5.2409,-5.2409,-5.2409,-5.2409,-5.2409,-5.2409,-5.2409,-5.2409,-5.2409,-5.2409,-5.2409,-5.2409,-5.2409,-5.2409,-5.2409,-5.2409,-5.2409,-5.2376,-5.2376,-5.1812,-5.1249,-5.1249,-5.0121,-4.9094,-4.9094,-4.8498,-4.8001,-4.7968,-4.7404,-4.6874,-4.6841,-4.5649,-4.4688,-4.4655,-4.4059,-4.3598,-4.3598,-4.3565,-4.3565,-4.3532,-4.287,-4.2473,-4.2473,-4.1778,-4.1375,-4.1375,-4.1347,-4.1044,-4.0409,-4.0376,-4.0044,-3.9315,-3.9315,-3.9315,-3.9315,-3.9315,-3.9315,-3.9315,-3.9315,-3.9315,-4.174,-4.3562,-4.5781,-4.7239,-4.8895,-5.0419,-5.1413,-5.1843,-5.2111,-5.2376,-5.2011,-5.168,-5.168,-5.168,-5.168,-5.168,-5.2111,-5.2409,-5.2409,-5.2409,-5.2144,-5.1415,-5.1746,0.0,0.0,0.0,0.0,-5.234,-5.2605,-5.2937,-5.34,-5.4361,-5.5085,-5.5582,-5.5852,-5.562,-5.4854,-5.4162,-5.3434,-5.2705,-5.2506,-5.2409,-5.2409,-5.2409,-5.2409,-5.2409,-5.2409,-5.2409,-5.2409,-5.2409,-5.2409,-5.2409,-5.2409,-5.2409,-5.2409,-5.2409,-5.2409,-5.2409,-5.2409,-5.2409,-5.2409,-5.2409,-5.2409,-5.2409,-5.2409,-5.2409,-5.2409,-5.2409,-5.2409,-5.2409,-5.2409,-5.1879,-5.1315,-5.1315,-5.0551,-4.9723,-4.9226,-4.8928,-4.8597,-4.81,-4.7802,-4.7471,-4.6974,-4.6477,-4.5814,-4.4851,-4.4092,-4.3598,-4.3598,-4.3598,-4.3598,-4.3598,-4.3367,-4.3234,-4.3234,-4.2539,-4.2109,-4.2109,-4.1645,-4.1309,-4.1077,-4.1077,-4.0945,-4.0713,-4.068,-4.068,-4.068,-4.068,-4.068,-4.068,-4.068,-4.068,-4.3661,-4.5847,-4.8034,-4.9525,-5.0783,-5.1846,-5.231,-5.2409,-5.2241,-5.1711,-5.1015,-5.032,-4.979,-4.9491,-4.9558,-5.0386,-5.0916,-5.1479,-5.231,-5.2409,-5.2144,-5.1415,-5.1746,-5.1846,0.0,0.0,0.0,-5.2343,-5.2409,-5.2572,-5.3036,-5.3732,-5.4291,-5.4787,-5.5052,-5.4821,-5.4129,-5.3665,-5.3069,-5.2409,-5.2409,-5.2409,-5.2409,-5.2409,-5.2409,-5.2409,-5.2409,-5.2409,-5.2409,-5.2409,-5.2409,-5.2409,-5.2409,-5.2409,-5.2409,-5.2409,-5.2409,-5.2409,-5.2409,-5.2409,-5.2409,-5.2409,-5.2409,-5.2409,-5.2409,-5.2409,-5.2409,-5.2409,-5.2409,-5.2409,-5.2409,-5.2078,-5.1713,-5.1713,-5.1115,-5.0386,-4.9657,-4.9293,-4.8895,-4.8133,-4.8001,-4.7835,-4.7371,-4.7073,-4.6477,-4.5284,-4.4456,-4.3926,-4.3631,-4.3598,-4.3598,-4.3598,-4.3598,-4.3598,-4.3598,-4.3168,-4.287,-4.287,-4.244,-4.2075,-4.1778,-4.1778,-4.1645,-4.1409,-4.1409,-4.1409,-4.1409,-4.1409,-4.1409,-4.1409,-4.1409,-4.1409,-4.6212,-4.81,-4.9558,-5.1017,-5.1879,-5.2409,-5.2409,-5.234,-5.1877,-5.0452,-4.9491,-4.8431,0.0,0.0,-4.6477,-4.8597,-4.9094,-4.9955,-5.2075,-5.2409,-5.2144,0.0,0.0,0.0,0.0,0.0,0.0,-5.2376,0.0,-5.2409,-5.2409,-5.3036,-5.34,-5.34,-5.4096,-5.4129,-5.3434,-5.3367,-5.3036,-5.2409,-5.2409,-5.2409,-5.2409,-5.2409,-5.2409,-5.2409,-5.2409,-5.2409,-5.2409,-5.2409,-5.2409,-5.2409,-5.2409,-5.2409,-5.2409,-5.2409,-5.2409,-5.2409,-5.2409,-5.2409,-5.2409,-5.2409,-5.2409,-5.2409,-5.2409,-5.2409,-5.2409,-5.2409,-5.2409,-5.2409,-5.2409,-5.2409,-5.2409,-5.2409,-5.1879,-5.1149,-5.0419,-4.969,-4.8961,-4.8199,-4.8034,-4.8001,-4.8001,-4.7404,-4.6643,-4.5947,-4.5218,-4.4489,-4.3731,-4.3598,-4.3598,-4.3598,-4.3598,-4.3598,-4.3598,-4.3598,-4.3598,-4.3598,-4.3598,-4.3267,-4.2572,-4.2539,-4.2208,-4.1541,-4.148,-4.148,-4.148,-4.148,-4.148,-4.148,-4.148,-4.148,-4.7736,-4.9624,-5.0949,-5.1912,-5.2277,-5.2409,-5.2409,-5.1545,-5.0518,-4.9591,-4.7471,-4.5351,-4.3893,0.0,0.0,-4.6543,-4.8928,0.0,-5.2243,-5.2409,0.0,-5.1415,0.0,-5.1912,-5.1348,-5.1812,0.0,0.0,-5.2409,-5.2409,-5.2409,-5.3036,-5.34,-5.34,-5.3599,-5.3599,-5.34,-5.2904,-5.2572,-5.2409,-5.2409,-5.2409,-5.2409,-5.2409,-5.2409,-5.2409,-5.2409,-5.2409,-5.2409,-5.2409,-5.2409,-5.2409,-5.2409,-5.2409,-5.2409,-5.2409,-5.2409,-5.2409,-5.2409,-5.2409,-5.2409,-5.2409,-5.2409,-5.2409,-5.2409,-5.2409,-5.2409,-5.2409,-5.2409,-5.2409,-5.2409,-5.2409,-5.2409,-5.2409,-5.2277,-5.1945,-5.1183,-5.0452,-4.9723,-4.8961,-4.8398,-4.8001,-4.8001,-4.7404,-4.6841,-4.6643,-4.598,-4.5251,-4.4522,-4.3959,-4.3598,-4.3598,-4.3598,-4.3598,-4.3598,-4.3598,-4.3598,-4.3598,-4.3598,-4.3499,-4.3333,-4.33,-4.3234,-4.3035,-4.3035,-4.3035,-4.3035,-4.3035,-4.3035,-4.3035,-4.3035,-4.3035,-4.9425,-5.0883,-5.1879,-5.231,-5.2409,-5.2142,-5.1148,-5.032,-4.8961,-4.6278,-4.4423,-4.2502,-4.0117,-4.1707,-4.3727,0.0,0.0,0.0,-5.2177,-5.2409,-5.2277,0.0,-5.2177,0.0,-5.1846,-5.2177,-5.2409,0.0,-5.2409,-5.2409,-5.2409,-5.2738,-5.297,-5.297,-5.297,-5.297,-5.297,-5.2572,-5.2409,-5.2409,-5.2409,-5.2409,-5.2409,-5.2409,-5.2409,-5.2409,0.0,-5.2409,-5.2409,-5.2409,-5.2409,-5.2409,-5.2409,-5.2409,-5.2409,-5.2409,-5.2409,-5.2409,-5.2409,-5.2409,-5.2409,-5.2409,-5.2409,-5.2409,-5.2409,-5.2409,-5.2409,-5.2409,-5.2409,-5.2409,-5.2409,-5.2409,-5.2409,-5.2409,-5.2409,-5.221,-5.1481,-5.0949,-5.0353,-4.9326,-4.8763,-4.8398,-4.8067,-4.7669,-4.7371,-4.7371,-4.6742,-4.6113,-4.5715,-4.4754,-4.3959,-4.3631,-4.3598,-4.3598,-4.3598,-4.3598,-4.3598,-4.3598,-4.3598,-4.3598,-4.3598,-4.3598,-4.3598,-4.3598,-4.3598,-4.3598,-4.3598,-4.3598,-4.3598,-4.3598,-4.3598,-4.3598,-5.1083,-5.1912,-5.2409,-5.2409,-5.2343,-5.1678,-4.9591,-4.873,-4.704,-4.227,-4.0878,-3.9553,-3.6307,-3.8096,-4.0845,-4.3069,0.0,-4.9028,-5.1976,-5.2409,-5.2409,-5.2409,-5.2409,-5.2409,-5.2409,-5.2409,-5.2409,-5.2409,-5.2409,-5.2409,-5.2409,-5.2409,-5.2409,-5.2409,-5.2409,-5.2409,-5.2409,-5.2409,-5.2409,-5.2409,-5.2409,-5.2409,-5.2409,-5.2409,-5.2409,-5.2409,0.0,0.0,-5.2409,-5.2409,-5.2409,-5.2409,-5.2409,-5.2409,-5.2409,-5.2409,-5.2409,-5.2409,-5.2409,-5.2409,-5.2409,-5.2409,-5.2409,-5.2409,-5.2409,-5.2409,-5.2409,-5.2409,-5.2409,-5.2409,-5.2409,-5.2409,-5.2409,-5.2409,-5.2409,-5.2243,-5.158,-5.1382,-5.0917,-4.9525,-4.926,-4.9028,-4.8266,-4.8166,-4.81,-4.8001,-4.7471,-4.7007,-4.6908,-4.5682,-4.4589,-4.3962,-4.3896,-4.383,-4.3731,-4.3731,-4.3698,-4.3598,-4.3598,-4.3598,-4.3598,-4.3598,-4.3598,-4.3598,-4.3598,-4.3598,-4.3598,-4.3598,-4.3598,-4.3598,-4.3598,-4.3598,-5.181,-5.231,-5.2409,-5.2409,-5.1945,-5.1083,-4.9458,-4.6742,0.0,-4.111,-3.8129,-3.5644,-3.4419,-3.6605,-3.946,-4.2241,-4.5682,-4.9028,-5.1976,-5.2409,-5.2409,0.0,-5.2409,-5.2409,-5.2409,-5.2409,0.0,0.0,0.0,-5.2409,-5.2409,-5.2409,-5.2409,-5.2409,-5.2409,-5.2409,-5.2409,-5.2409,-5.2409,-5.2409,-5.2409,-5.2409,-5.2409,-5.2409,-5.2409,-5.2409,-5.2409,0.0,-5.2409,-5.2409,-5.2409,-5.2409,-5.2409,-5.2409,-5.2409,-5.2409,-5.2409,-5.2409,-5.2409,-5.2409,-5.2409,-5.2409,-5.2409,-5.2409,-5.2409,-5.2409,-5.2409,-5.2409,-5.2409,-5.2409,-5.2409,-5.2409,-5.2409,-5.2409,-5.2409,-5.234,-5.2243,-5.1746,-5.1015,-5.0187,-5.0021,-4.979,-4.9061,-4.8928,-4.8696,-4.81,-4.7901,-4.7603,-4.6974,-4.6146,-4.5549,-4.5417,-4.5417,-4.5152,-4.4556,-4.4489,-4.4257,-4.3631,-4.3598,-4.3598,-4.3598,-4.3598,-4.3598,-4.3598,-4.3598,-4.3598,-4.3598,-4.3598,-4.3598,-4.3598,-4.3598,-4.3598,-5.2208,-5.2409,-5.2409,-5.2409,-5.158,-5.0056,-4.7404,0.0,0.0,-3.7698,-3.5545,-3.3856,-3.2365,-3.5114,-3.8228,-3.9984,-4.33,-4.6874,-5.022,-5.0684,-5.1115,-5.2241,-5.2409,-5.2409,-5.2409,-5.2409,-5.2409,0.0,0.0,-5.2409,-5.2409,-5.2409,-5.2409,-5.2409,-5.2409,-5.2409,-5.2409,-5.2409,-5.2409,-5.2409,-5.2409,-5.2409,-5.2409,-5.2409,-5.2409,-5.2409,-5.2409,0.0,-5.2409,-5.2409,-5.2409,-5.2409,-5.2409,-5.2409,-5.2409,-5.2409,-5.2409,-5.2409,-5.2409,-5.2409,-5.2409,-5.2409,-5.2409,-5.2409,-5.2409,-5.2409,-5.2409,-5.2409,-5.2409,-5.2409,-5.2409,-5.2409,-5.2409,-5.2409,-5.2409,-5.2409,-5.2409,-5.2144,-5.168,-5.0916,-5.075,-5.0551,-4.9823,-4.969,-4.9425,-4.8696,-4.8564,-4.8299,-4.757,-4.7173,-4.6643,-4.5881,-4.5781,-4.5649,-4.5284,-4.5251,-4.5119,-4.4787,-4.4754,-4.4754,-4.4754,-4.4754,-4.4754,-4.4754,-4.4754,-4.4754,-4.4754,-4.4754,-4.4754,-4.4754,-4.4754,-4.4754,-5.2409,-5.2409,-5.2409,-5.2409,-5.1183,-4.9061,-4.5483,-4.2634,-3.9421,-3.475,-3.3425,-3.2597,-3.1019,-3.37,-3.6671,0.0,-4.1077,-4.4525,-4.8564,-4.926,-5.0088,-5.2177,-5.2409,0.0,-5.2409,-5.2409,0.0,0.0,0.0,0.0,-5.2407,-5.2409,-5.2409,-5.2409,-5.2409,-5.2409,-5.2409,-5.2409,-5.2409,-5.2409,-5.2409,-5.2409,-5.2409,-5.2409,-5.2409,-5.2409,-5.2409,0.0,0.0,-5.2409,-5.2409,-5.2409,-5.2409,-5.2409,-5.2409,-5.2409,-5.2409,-5.2409,-5.2409,-5.2409,-5.2409,-5.2409,-5.2409,-5.2409,-5.2409,-5.2409,-5.2409,-5.2409,-5.2409,-5.2409,-5.2409,-5.2409,-5.2409,-5.2409,-5.2409,-5.2409,-5.2409,-5.2409,-5.2243,-5.1647,-5.1547,-5.128,-5.0551,-5.0452,-5.0187,-4.9458,-4.9193,-4.8895,-4.8332,-4.81,-4.757,-4.6378,-4.6278,-4.6212,-4.6046,-4.6046,-4.5947,-4.5814,-4.5781,-4.5781,-4.5781,-4.5781,-4.5781,-4.5781,-4.5781,-4.5781,-4.5781,-4.5781,-4.5781,-4.5781,-4.5781,-4.5781,-5.2409,-5.2409,-5.2409,-5.2409,-5.0783,-4.8398,-4.5384,0.0,-3.7599,-3.4452,-3.2199,-3.0952,-3.1416,-3.2398,0.0,0.0,0.0,-4.3363,-4.8398,-4.969,-5.0684,-5.2243,0.0,0.0,-5.2409,-5.2409,0.0,0.0,0.0,0.0,-5.2442,-5.2409,-5.2409,-5.2409,-5.2409,-5.2409,-5.2409,-5.2409,-5.2409,-5.2409,-5.2409,-5.2409,-5.2409,-5.2409,-5.2409,-5.2409,-5.2409,0.0,0.0,-5.2409,-5.2409,-5.2409,-5.2409,-5.2409,-5.2409,-5.2409,-5.2409,-5.2409,-5.2409,-5.2409,-5.2409,-5.2409,-5.2409,-5.2409,-5.2409,-5.2409,-5.2409,-5.2409,-5.2409,-5.2409,-5.2409,-5.2409,-5.2409,-5.2409,-5.2409,-5.2409,-5.2409,-5.2409,-5.2409,-5.231,-5.231,-5.2078,-5.1348,-5.1216,-5.0949,-5.022,-4.9525,-4.9094,-4.9028,-4.8398,-4.7968,-4.7802,-4.7802,-4.7537,-4.6841,-4.6808,-4.651,-4.5847,-4.5781,-4.5781,-4.5781,-4.5781,-4.5781,-4.5781,-4.5781,-4.5781,-4.5781,-4.5781,-4.5781,-4.5781,-4.5781,-4.5781,-5.2009,-5.2409,-5.2409,-5.2409,-5.0055,-4.7106,-4.4622,-4.0315,-3.6174,-3.3657,-3.1735,-3.0588,-3.0886,-3.1548,-3.3061,0.0,0.0,0.0,-4.4489,-4.575,-4.7272,-5.0088,-5.0817,0.0,0.0,0.0,0.0,0.0,0.0,0.0,-5.2407,-5.2771,-5.2804,-5.2407,-5.2409,-5.2409,-5.2409,-5.2409,-5.2409,-5.2409,-5.2409,-5.2409,-5.2409,-5.2409,-5.2409,-5.2409,-5.2409,0.0,0.0,-5.2409,-5.2409,-5.2409,-5.2409,-5.2409,-5.2409,-5.2409,-5.2409,-5.2409,-5.2409,-5.2409,-5.2409,-5.2409,-5.2409,-5.2409,-5.2409,-5.2409,-5.2409,-5.2409,-5.2409,-5.2409,-5.2409,-5.2409,-5.2409,-5.2409,-5.2409,-5.2409,-5.2409,-5.2409,-5.2409,-5.2409,-5.2409,-5.231,-5.2011,-5.1978,-5.1713,-5.0949,-5.0585,-5.0253,-4.9823,-4.9525,-4.916,-4.873,-4.8266,-4.7868,-4.7603,-4.757,-4.7438,-4.7139,-4.7106,-4.7106,-4.7106,-4.7106,-4.7106,-4.7106,-4.7106,-4.7106,-4.7106,-4.7106,-4.7106,-4.7106,-4.7106,-4.7106,-5.1247,-5.2042,-5.2376,-5.2144,-4.9458,-4.6245,-4.383,-3.952,-3.5379,-3.3183,-3.1537,-3.0489,-3.0489,-3.1085,-3.2243,0.0,0.0,-3.7765,-4.191,-4.3135,-4.479,-4.8067,0.0,-4.979,0.0,0.0,0.0,0.0,0.0,0.0,0.0,-5.3036,-5.3102,-5.2442,-5.2409,-5.2409,-5.2409,-5.2409,-5.2409,-5.2409,-5.2409,-5.2409,-5.2409,-5.2409,-5.2409,-5.2409,0.0,0.0,0.0,-5.2409,-5.2409,-5.2409,-5.2409,-5.2409,-5.2409,-5.2409,-5.2409,-5.2409,-5.2409,-5.2409,-5.2409,-5.2409,-5.2409,-5.2409,-5.2409,-5.2409,-5.2409,-5.2409,-5.2409,-5.2409,-5.2409,-5.2409,-5.2409,-5.2409,-5.2409,-5.2409,-5.2409,-5.2409,-5.2409,-5.2409,-5.2409,-5.2409,-5.2409,-5.2409,-5.2243,-5.1713,-5.1448,-5.1082,-5.0585,-5.0353,-5.0021,-4.9491,-4.8961,-4.8465,-4.8034,-4.8001,-4.8001,-4.8001,-4.8001,-4.8001,-4.8001,-4.8001,-4.8001,-4.8001,-4.8001,-4.8001,-4.8001,-4.8001,-4.8001,-4.8001,-4.8001,-4.8001,-5.0021,-5.128,-5.2243,-5.1514,-4.9061,-4.6146,-4.3168,-3.9156,-3.5379,-3.3183,-3.1537,-3.0489,-3.0489,-3.1085,-3.2078,-3.3557,-3.5644,0.0,-4.1976,-4.3135,-4.4426,0.0,0.0,-4.7504,0.0,0.0,0.0,0.0,0.0,0.0,0.0,-5.3036,-5.3102,-5.2442,-5.2409,-5.2409,-5.2409,-5.2409,-5.2409,-5.2409,-5.2409,-5.2409,-5.2409,-5.2409,-5.2409,0.0,0.0,0.0,0.0,-5.2409,-5.2409,-5.2409,-5.2409,-5.2409,-5.2409,-5.2409,-5.2409,-5.2409,-5.2409,-5.2409,-5.2409,-5.2409,-5.2409,-5.2409,-5.2409,-5.2409,-5.2409,-5.2409,-5.2409,-5.2409,-5.2409,-5.2409,-5.2409,-5.2409,-5.2409,-5.2409,-5.2409,-5.2409,-5.2409,-5.2409,-5.2409,-5.2409,-5.2409,-5.2409,-5.2409,-5.2409,-5.1779,-5.1315,-5.1282,-5.0651,-5.022,-5.0187,-5.0187,-4.9591,-4.8133,-4.8001,-4.8001,-4.8001,-4.8001,-4.8001,-4.8001,-4.8001,-4.8001,-4.8001,-4.8001,-4.8001,-4.8001,-4.8001,-4.8001,-4.8001,-4.8001,-4.8001,-4.6709,-4.7901,-4.8465,-4.7703,-4.5715,-4.3264,-4.0845,-3.7665,-3.4618,-3.2398,-3.1184,-3.0489,-3.0489,-3.0688,-3.1813,-3.4816,-3.5876,0.0,0.0,0.0,0.0,-4.6013,-4.8796,-5.0817,0.0,0.0,0.0,0.0,0.0,0.0,0.0,-5.2572,-5.2605,-5.2409,-5.2409,-5.2409,-5.2409,-5.2409,-5.2409,-5.2409,-5.2409,-5.2409,-5.2409,-5.2409,0.0,0.0,0.0,0.0,0.0,-5.2409,-5.2409,-5.2409,-5.2409,-5.2409,-5.2475,-5.2904,-5.3069,-5.3069,-5.3069,-5.3069,-5.3003,-5.2539,-5.2409,-5.2409,-5.2409,-5.2409,-5.2409,-5.2409,-5.2409,-5.2409,-5.2409,-5.2409,-5.2409,-5.2409,-5.2409,-5.2409,-5.2409,-5.2409,-5.2409,-5.2409,-5.2409,-5.2409,-5.2409,-5.2409,-5.2409,-5.2409,-5.221,-5.2078,-5.2078,-5.1843,-5.1512,-5.0982,-5.0949,-5.0551,-4.9591,-4.9525,-4.9293,-4.8796,-4.8763,-4.8531,-4.8034,-4.8001,-4.8001,-4.8001,-4.8001,-4.8001,-4.8001,-4.8001,-4.8001,-4.8001,-4.8001,-4.8001,-4.3727,-4.5483,-4.6311,-4.5549,-4.3727,-4.1541,-3.9355,-3.6605,-3.3955,-3.2012,-3.1019,-3.0489,-3.0489,-3.0721,-3.1681,-3.3988,-3.528,0.0,0.0,0.0,0.0,-4.6013,0.0,0.0,0.0,0.0,0.0,0.0,0.0,0.0,0.0,-5.2409,-5.2409,-5.2409,-5.2409,-5.2409,-5.2409,-5.2409,-5.2409,-5.2409,-5.2409,-5.2409,-5.2409,-5.2409,0.0,0.0,0.0,0.0,0.0,-5.2409,-5.2409,-5.2409,-5.2409,-5.2409,-5.2473,-5.3169,-5.34,-5.3467,-5.3732,-5.3831,-5.3732,-5.3003,-5.2605,-5.2409,-5.2409,-5.2409,-5.2409,-5.2409,-5.2409,-5.2409,-5.2409,-5.2409,-5.2409,-5.2409,-5.2409,-5.2409,-5.2409,-5.2409,-5.2409,-5.2409,-5.2409,-5.2409,-5.2409,-5.2409,-5.2409,-5.2409,-5.2409,-5.2409,-5.2409,-5.2409,-5.2243,-5.1779,-5.1713,-5.1547,-5.1082,-5.0518,-5.0021,-4.9558,-4.9525,-4.9326,-4.8862,-4.8829,-4.8829,-4.8829,-4.8829,-4.8696,-4.8398,-4.8133,-4.8001,-4.8001,-4.8001,-4.8001,0.0,-4.3529,-4.5086,-4.4324,-4.2568,-4.0481,-3.8394,-3.5744,0.0,-3.1813,-3.0986,-3.0522,-3.0621,-3.1118,-3.1615,-3.1946,-3.4253,0.0,0.0,-4.0917,0.0,0.0,-4.8498,0.0,0.0,0.0,0.0,0.0,0.0,0.0,0.0,-5.2409,-5.2409,-5.2409,-5.2409,-5.2409,-5.2409,-5.2409,-5.2409,-5.2409,-5.2409,-5.2409,-5.2409,-5.2409,0.0,0.0,0.0,0.0,0.0,-5.2409,-5.2409,-5.2409,-5.2409,-5.2409,-5.2473,-5.3202,-5.35,-5.3599,-5.4291,-5.4556,-5.4423,-5.3665,-5.297,-5.2475,-5.2407,-5.2409,-5.2409,-5.2409,-5.2409,-5.2409,-5.2409,-5.2409,-5.2409,-5.2409,-5.2409,-5.2409,-5.2409,-5.2409,-5.2409,-5.2409,-5.2409,-5.2409,-5.2409,-5.2409,-5.2409,-5.2409,-5.2409,-5.2409,-5.2409,-5.2409,-5.2409,-5.2409,-5.2409,-5.2409,-5.2409,-5.1148,-5.0353,-5.0286,-5.0286,-5.0253,-5.022,-5.022,-5.022,-5.022,-5.022,-4.9889,-4.9193,-4.8498,-4.8166,-4.8166,-4.8166,-4.8166,-3.5578,0.0,-3.9818,-3.9056,-3.8063,-3.6837,0.0,-3.3856,-3.2531,-3.1052,-3.0621,-3.082,-3.1967,-3.1404,-3.1879,-3.5256,0.0,0.0,-3.952,0.0,0.0,-5.0684,0.0,0.0,0.0,0.0,0.0,0.0,0.0,0.0,0.0,-5.2409,-5.2409,-5.2409,-5.2409,-5.2409,-5.2409,-5.2409,-5.2409,-5.2409,-5.2409,-5.2409,-5.2409,-5.2409,0.0,0.0,0.0,0.0,-5.2409,-5.2409,-5.2409,-5.2409,-5.2409,-5.2409,-5.2539,-5.3798,-5.4225,-5.4361,-5.5085,-5.5317,-5.5118,-5.3831,-5.3301,-5.3069,-5.2539,-5.2409,-5.2409,-5.2409,-5.2409,-5.2409,-5.2409,-5.2409,-5.2409,-5.2409,-5.2409,-5.2409,-5.2409,-5.2409,-5.2409,-5.2409,-5.2409,-5.2409,-5.2409,-5.2409,-5.2409,-5.2409,-5.2409,-5.2409,-5.2409,-5.2409,-5.2409,-5.2409,-5.2409,-5.2409,-5.2409,-5.2075,-5.1612,-5.1048,-5.1015,-5.0783,-5.022,-5.022,-5.022,-5.022,-5.022,-5.0121,-4.9955,-4.979,-4.969,-4.969,-4.969,-4.969,-3.2796,-3.5214,-3.7599,-3.7201,-3.6539,-3.5711,-3.4551,-3.3193,-3.1868,-3.0721,-3.0489,-3.0853,-3.2,-3.1835,-3.2398,-3.5148,-3.6406,0.0,0.0,0.0,-4.9028,-5.2009,0.0,0.0,0.0,0.0,0.0,0.0,0.0,0.0,0.0,-5.2409,-5.2409,-5.2409,-5.2409,-5.2409,-5.2409,-5.2409,-5.2409,-5.2409,-5.2409,-5.2409,-5.2409,-5.2409,-5.2409,0.0,0.0,0.0,-5.2409,-5.2409,-5.2409,-5.2409,-5.2409,-5.2409,-5.2539,-5.3997,-5.449,-5.4659,-5.5752,-5.5885,-5.545,-5.4655,-5.4158,-5.3864,-5.3467,-5.3135,-5.2771,-5.2473,-5.2409,-5.2409,-5.2409,-5.2409,-5.2409,-5.2409,-5.2409,-5.2409,-5.2409,-5.2409,-5.2409,-5.2409,-5.2409,-5.2409,-5.2409,-5.2409,-5.2409,-5.2409,-5.2409,-5.2409,-5.2409,-5.2409,-5.2409,-5.2409,-5.2409,-5.2409,-5.2409,-5.2409,-5.2243,-5.1846,-5.1812,-5.1647,-5.1214,-5.1214,-5.1214,-5.1214,-5.0883,-5.0684,-5.0684,-5.0386,-5.022,-5.022,-5.022,-5.022,-3.1846,-3.4362,-3.687,-3.6671,-3.6208,-3.5644,-3.4883,-3.3193,-3.1548,-3.082,-3.0754,-3.1085,-3.1946,-3.2597,-3.3425,-3.4608,0.0,0.0,-4.6344,-4.8332,-5.0055,0.0,0.0,0.0,0.0,0.0,0.0,0.0,0.0,0.0,0.0,-5.2409,-5.2409,-5.2409,-5.2409,-5.2409,-5.2409,-5.2409,-5.2409,-5.2409,-5.2409,-5.2409,-5.2409,-5.2409,-5.2409,0.0,0.0,0.0,-5.2409,-5.2409,-5.2409,-5.2409,-5.2409,-5.2409,-5.2539,-5.3864,-5.439,-5.4725,-5.6183,-5.6282,-5.5747,-5.5615,-5.5152,-5.4659,-5.4523,-5.4063,-5.3467,-5.287,-5.2539,-5.2409,-5.2409,-5.2409,-5.2409,-5.2409,-5.2409,-5.2409,-5.2409,-5.2409,-5.2409,-5.2409,-5.2409,-5.2409,-5.2409,-5.2409,-5.2409,-5.2409,-5.2409,-5.2409,-5.2409,-5.2409,-5.2409,-5.2409,-5.2409,-5.2409,-5.2409,-5.2409,-5.2409,-5.2409,-5.2409,-5.2409,-5.2409,-5.2409,-5.2409,-5.2409,-5.1812,-5.1481,-5.1481,-5.085,-5.0551,-5.0551,-5.0551,-5.0551,-3.2961,-3.4783,-3.5876,-3.4618,-3.4684,-3.4883,-3.4121,-3.3226,-3.2332,-3.1581,-3.1934,-3.2762,-3.4154,-3.4485,-3.5611,-3.8884,0.0,-4.4655,0.0,0.0,0.0,0.0,0.0,0.0,0.0,0.0,0.0,0.0,0.0,0.0,0.0,-5.2409,-5.2409,-5.2409,-5.2409,-5.2409,-5.2409,-5.2409,-5.2409,-5.2409,-5.2409,-5.2409,-5.2409,-5.2409,-5.2409,0.0,0.0,-5.2409,-5.2409,-5.2409,-5.2409,-5.2409,-5.2409,-5.2409,-5.2473,-5.3301,-5.3927,-5.4725,-5.6183,-5.6614,-5.6415,-5.5819,-5.5516,-5.5284,-5.4688,-5.439,-5.4291,-5.4229,-5.3301,-5.2409,-5.2409,-5.2409,-5.2409,-5.2409,-5.2409,-5.2409,-5.2409,-5.2409,-5.2409,-5.2409,-5.2409,-5.2409,-5.2409,-5.2409,-5.2409,-5.2409,-5.2409,-5.2409,-5.2409,-5.2409,-5.2409,-5.2409,-5.2409,-5.2409,-5.2409,-5.2409,-5.2409,-5.2409,-5.2409,-5.2409,-5.2409,-5.2409,-5.2409,-5.2409,-5.231,-5.2243,-5.2243,-5.2108,-5.2042,-5.2042,-5.2042,-5.2042,-3.1868,-3.3392,-3.475,-3.4452,-3.5545,-3.6506,-3.5744,-3.4684,-3.3789,-3.3458,-3.3657,-3.422,-3.528,-3.6473,-3.8619,-4.2634,0.0,-4.7106,-4.8928,0.0,0.0,0.0,0.0,0.0,0.0,0.0,0.0,0.0,0.0,0.0,0.0,0.0,-5.2409,-5.2409,-5.2409,-5.2409,-5.2409,-5.2409,-5.2409,-5.2409,-5.2409,-5.2409,-5.2409,-5.2409,-5.2409,-5.2409,0.0,-5.2409,-5.2409,-5.2409,-5.2409,-5.2409,-5.2409,-5.2409,-5.2506,-5.3599,-5.4456,-5.5218,-5.6316,-5.668,-5.6614,-5.6316,-5.6183,-5.6117,-5.5786,-5.5421,-5.5085,-5.5085,-5.4361,-5.3533,-5.3533,-5.3533,-5.3533,-5.3533,-5.3235,-5.2937,-5.2937,-5.2638,-5.2409,-5.2409,-5.2409,-5.2409,-5.2409,-5.2409,-5.2409,-5.2409,-5.2409,-5.2409,-5.2409,-5.2409,-5.2409,-5.2409,-5.2409,-5.2409,-5.2409,-5.2409,-5.2409,-5.2409,-5.2409,-5.2409,-5.2409,-5.2409,-5.2409,-5.2409,-5.2409,-5.2409,-5.2409,-5.2409,-5.2409,-5.2409,-5.2409,-5.2409,-3.178,-3.2895,-3.4286,-3.5181,-3.6572,-3.7731,-3.7831,-3.6738,-3.5777,-3.6108,-3.6174,-3.634,-3.6936,-3.909,0.0,-4.5483,-4.757,-4.916,0.0,0.0,0.0,0.0,0.0,0.0,0.0,0.0,0.0,0.0,0.0,0.0,0.0,0.0,-5.2409,-5.2409,-5.2409,-5.2409,-5.2409,-5.2409,-5.2409,-5.2409,-5.2409,-5.2409,-5.2409,-5.2409,-5.2409,-5.2409,-5.2409,-5.2409,-5.2409,-5.2409,-5.2409,-5.2409,-5.2409,-5.2409,-5.2539,-5.3997,-5.4854,-5.545,-5.6382,-5.668,-5.668,-5.668,-5.668,-5.668,-5.668,-5.6316,-5.5885,-5.5885,-5.5454,-5.4957,-5.4593,-5.449,-5.449,-5.449,-5.4059,-5.3665,-5.3665,-5.3268,-5.287,-5.287,-5.287,-5.287,-5.287,-5.287,-5.2804,-5.2638,-5.2605,-5.2572,-5.2442,-5.2409,-5.2409,-5.2409,-5.2409,-5.2409,-5.2409,-5.2409,-5.2409,-5.2409,-5.2409,-5.2409,-5.2409,-5.2409,-5.2409,-5.2409,-5.2409,-5.2409,-5.2409,-5.2409,-5.2409,-5.2409,-5.2409,-5.2409,-3.5048,-3.5214,-3.5148,-3.6605,-3.6539,-3.687,-3.9547,-3.9023,-3.8361,-3.9719,-4.0011,-4.0044,-4.0078,-4.2962,-4.5649,-4.6643,-4.9193,0.0,0.0,0.0,0.0,0.0,0.0,0.0,0.0,0.0,0.0,0.0,0.0,0.0,0.0,0.0,0.0,-5.2409,-5.2409,-5.2409,-5.2409,-5.2409,-5.2409,-5.2409,-5.2409,-5.2409,-5.2409,-5.2409,-5.2409,-5.2409,-5.2409,-5.2409,-5.2409,-5.2409,-5.2409,-5.2409,-5.2409,-5.2409,-5.2539,-5.3997,-5.4523,-5.4792,-5.6216,-5.668,-5.668,-5.668,-5.668,-5.668,-5.668,-5.6647,-5.6614,-5.6614,-5.6581,-5.6216,-5.4858,-5.449,-5.449,-5.449,-5.4494,-5.439,-5.439,-5.4394,-5.4361,-5.4361,-5.4361,-5.4361,-5.4361,-5.4361,-5.4129,-5.3434,-5.3334,-5.3102,-5.2473,-5.2409,-5.2409,-5.2409,-5.2409,-5.2409,-5.2409,-5.2409,-5.2409,-5.2409,-5.2409,-5.2409,-5.2409,-5.2409,-5.2409,-5.2409,-5.2409,-5.2409,-5.2409,-5.2409,-5.2409,-5.2409,-5.2409,-5.2409,-3.3856,-3.4419,-3.5148,-3.6174,-3.7235,-3.856,-4.058,-4.0945,-4.1442,-4.3363,-4.379,-4.379,-4.379,0.0,-4.7404,-4.8166,-5.0353,0.0,0.0,0.0,0.0,0.0,0.0,0.0,0.0,0.0,0.0,0.0,0.0,0.0,0.0,0.0,0.0,-5.2409,-5.2409,-5.2409,-5.2409,-5.2409,-5.2409,-5.2409,-5.2409,-5.2409,-5.2409,-5.2409,-5.2409,-5.2409,-5.2409,-5.2409,-5.2409,-5.2409,-5.2409,-5.2409,-5.2409,-5.2638,-5.3135,-5.4162,-5.4787,-5.5317,-5.6349,-5.668,-5.668,-5.668,-5.668,-5.668,-5.668,-5.668,-5.668,-5.668,-5.668,-5.6547,-5.6017,-5.5885,-5.5885,-5.5885,-5.5521,-5.5185,-5.5185,-5.4821,-5.449,-5.449,-5.449,-5.449,-5.449,-5.449,-5.4427,-5.4162,-5.4059,-5.3997,-5.3732,-5.3301,-5.3036,-5.3036,-5.2638,-5.2409,-5.2409,-5.2409,-5.2409,-5.2409,-5.2409,-5.2409,-5.2409,-5.2409,-5.2409,-5.2409,-5.2409,-5.2409,-5.2409,-5.2409,-5.2409,-5.2409,-5.2409,-5.2409,-3.3657,-3.4121,-3.5114,-3.6108,-3.7831,-3.9912,-4.227,-4.2999,-4.3959,-4.6643,-4.6643,-4.6146,-4.6146,0.0,0.0,0.0,0.0,0.0,0.0,0.0,0.0,0.0,0.0,0.0,0.0,0.0,0.0,0.0,0.0,0.0,0.0,0.0,0.0,0.0,-5.2409,-5.2409,-5.2409,-5.2409,-5.2409,-5.2409,-5.2409,-5.2409,-5.2409,-5.2409,-5.2409,-5.2409,-5.2409,-5.2409,-5.2409,-5.2409,-5.2409,-5.2409,-5.2409,-5.2672,-5.3202,-5.4162,-5.4787,-5.5383,-5.6349,-5.668,-5.668,-5.668,-5.668,-5.668,-5.668,-5.668,-5.668,-5.668,-5.668,-5.668,-5.668,-5.668,-5.668,-5.668,-5.6316,-5.5951,-5.5951,-5.5554,-5.5189,-5.5189,-5.5189,-5.5189,-5.5189,-5.5189,-5.5123,-5.4854,-5.4821,-5.4754,-5.4523,-5.4063,-5.3665,-5.3434,-5.2804,-5.2409,-5.2409,-5.2409,-5.2409,-5.2409,-5.2409,-5.2409,-5.2409,-5.2409,-5.2409,-5.2409,-5.2409,-5.2409,-5.2409,-5.2409,-5.2409,-5.2409,-5.2409,-5.2409,-3.528,-3.4883,-3.5247,-3.6738,-3.8228,-4.0509,-4.4821,-4.5251,-4.5781,-4.9458,-4.8465,-4.6941,-4.6941,-4.7537,0.0,0.0,0.0,0.0,0.0,0.0,0.0,0.0,0.0,0.0,0.0,0.0,0.0,0.0,0.0,0.0,0.0,0.0,0.0,0.0,-5.2409,-5.2409,-5.2409,-5.2409,-5.2409,-5.2409,-5.2409,-5.2409,-5.2409,-5.2409,-5.2409,-5.2409,-5.2409,-5.2409,-5.2409,-5.2409,-5.2409,-5.2409,-5.2409,-5.2409,-5.2572,-5.3997,-5.449,-5.4725,-5.6183,-5.668,-5.668,-5.668,-5.668,-5.668,-5.668,-5.668,-5.668,-5.668,-5.668,-5.668,-5.668,-5.668,-5.668,-5.668,-5.668,-5.668,-5.668,-5.668,-5.668,-5.668,-5.668,-5.668,-5.668,-5.668,-5.6448,-5.5714,-5.5615,-5.5317,-5.4589,-5.449,-5.4225,-5.35,-5.2804,-5.2409,-5.2409,-5.2409,-5.2409,-5.2409,-5.2409,-5.2409,-5.2409,-5.2409,-5.2409,-5.2409,-5.2409,-5.2409,-5.2409,-5.2409,-5.2409,-5.2409,-5.2409,-5.2409,-3.4386,-3.4883,-3.6042,-3.7533,-4.0514,-4.3857,-4.6709,-4.7173,-4.7934,-5.1082,-5.0783,-4.9823,-4.9326,-4.9823,0.0,0.0,0.0,0.0,0.0,0.0,0.0,0.0,0.0,0.0,0.0,0.0,0.0,0.0,0.0,0.0,0.0,0.0,0.0,0.0,-5.2409,-5.2409,-5.2409,-5.2409,-5.2409,-5.2409,-5.2409,-5.2409,-5.2409,-5.2409,-5.2409,-5.2409,-5.2409,-5.2409,-5.2409,-5.2409,-5.2409,-5.2409,-5.2409,-5.2672,-5.3169,-5.3566,-5.4357,-5.5317,-5.5786,-5.6282,-5.668,-5.668,-5.668,-5.668,-5.668,-5.668,-5.668,-5.668,-5.668,-5.668,-5.668,-5.668,-5.668,-5.668,-5.668,-5.668,-5.668,-5.668,-5.668,-5.668,-5.668,-5.668,-5.668,-5.668,-5.6614,-5.6415,-5.6382,-5.6117,-5.535,-5.5251,-5.4787,-5.3496,-5.3235,-5.2904,-5.2407,-5.2409,-5.2409,-5.2409,-5.2409,-5.2409,-5.2409,-5.2409,-5.2409,-5.2409,-5.2409,-5.2409,-5.2409,-5.2409,-5.2409,-5.2409,-5.2409,-5.2409,-3.5148,-3.6174,-3.7798,-3.9852,-4.2535,-4.5483,-4.8597,-4.9525,-5.0253,-5.2009,-5.1578,-5.0817,-5.0651,-5.075,0.0,0.0,0.0,0.0,0.0,0.0,0.0,0.0,0.0,0.0,0.0,0.0,0.0,0.0,0.0,0.0,0.0,0.0,0.0,0.0,-5.2409,-5.2409,-5.2409,-5.2409,-5.2409,-5.2409,-5.2409,-5.2409,-5.2409,-5.2409,-5.2409,-5.2409,-5.2409,-5.2409,-5.2409,-5.2409,-5.2409,-5.2409,-5.2409,-5.2638,-5.3036,-5.3301,-5.3927,-5.4787,-5.5383,-5.5918,-5.6316,-5.6581,-5.668,-5.668,-5.668,-5.668,-5.668,-5.668,-5.668,-5.668,-5.668,-5.668,-5.668,-5.668,-5.668,-5.668,-5.668,-5.668,-5.668,-5.668,-5.668,-5.668,-5.668,-5.668,-5.668,-5.668,-5.668,-5.6514,-5.6084,-5.5747,-5.5118,-5.3927,-5.3599,-5.3135,-5.2475,-5.2409,-5.2409,-5.2409,-5.2409,-5.2409,-5.2409,-5.2409,-5.2409,-5.2409,-5.2409,-5.2409,-5.2409,-5.2409,-5.2409,-5.2409,-5.2409,-5.2409,-3.6704,-3.8063,-4.0011,-4.2936,-4.4522,-4.6376,-5.0486,-5.1945,-5.2409,-5.2409,0.0,-5.0618,-5.1282,-5.085,0.0,0.0,0.0,0.0,0.0,0.0,0.0,0.0,0.0,0.0,0.0,0.0,0.0,0.0,0.0,0.0,0.0,0.0,0.0,0.0,-5.2409,-5.2409,-5.2409,-5.2409,-5.2409,0.0,-5.2409,-5.2409,-5.2409,-5.2409,-5.2409,-5.2409,-5.2409,-5.2409,-5.2409,-5.2409,-5.2409,-5.2409,-5.2409,-5.2409,-5.244,-5.3069,-5.3367,-5.3599,-5.492,-5.5483,-5.5681,-5.6382,-5.6647,-5.668,-5.668,-5.668,-5.668,-5.668,-5.668,-5.668,-5.668,-5.668,-5.668,-5.668,-5.668,-5.668,-5.668,-5.668,-5.668,-5.668,-5.668,-5.668,-5.668,-5.668,-5.668,-5.668,-5.668,-5.668,-5.668,-5.6117,-5.5416,-5.4655,-5.403,-5.3301,-5.2539,-5.2473,-5.244,-5.2409,-5.2409,-5.2409,-5.2409,-5.2409,-5.2409,-5.2409,-5.2409,-5.2409,-5.2409,-5.2409,-5.2409,-5.2409,-5.2409,-5.2409,-3.5181,-3.7301,-4.0144,-4.3595,-4.7173,-5.0288,-5.1812,-5.231,-5.2409,-5.2409,-5.2142,-5.1976,-5.2144,0.0,0.0,0.0,0.0,0.0,0.0,0.0,0.0,0.0,0.0,0.0,0.0,0.0,0.0,0.0,0.0,0.0,0.0,0.0,0.0,-5.2409,-5.2409,-5.2409,-5.2409,-5.2409,-5.2409,0.0,-5.2409,-5.2409,-5.2409,-5.2409,-5.2409,-5.2409,-5.2409,-5.2409,-5.2409,-5.2409,-5.2409,-5.2409,-5.2409,-5.2409,-5.2442,-5.2539,-5.2937,-5.3467,-5.3765,-5.4622,-5.5615,-5.5819,-5.6216,-5.668,-5.668,-5.668,-5.668,-5.668,-5.668,-5.668,-5.668,-5.668,-5.668,-5.668,-5.668,-5.668,-5.668,-5.668,-5.668,-5.668,-5.668,-5.668,-5.668,-5.668,-5.668,-5.668,-5.668,-5.668,-5.668,-5.6547,-5.6183,-5.5416,-5.5218,-5.4589,-5.3301,-5.3202,-5.297,-5.2442,-5.2409,-5.2409,-5.2409,-5.2409,-5.2409,-5.2409,-5.2409,-5.2409,-5.2409,-5.2409,-5.2409,-5.2409,-5.2409,-5.2409,-3.5909,-3.8626,-4.1773,-4.5814,-4.9326,-5.1945,-5.231,-5.2409,-5.2409,-5.2409,-5.2409,-5.2409,0.0,0.0,0.0,0.0,0.0,0.0,0.0,0.0,0.0,0.0,0.0,0.0,0.0,0.0,0.0,0.0,0.0,0.0,0.0,-5.2409,-5.2409,-5.2409,-5.2409,-5.2409,-5.2409,-5.2409,-5.2409,-5.2409,-5.2409,-5.2409,-5.2409,-5.2409,-5.2409,-5.2409,-5.2409,-5.2409,-5.2409,-5.2409,-5.2409,-5.2409,-5.2409,-5.2409,-5.2409,-5.2409,-5.2605,-5.297,-5.3301,-5.4125,-5.5118,-5.5483,-5.6117,-5.668,-5.668,-5.668,-5.668,-5.668,-5.668,-5.668,-5.668,-5.668,-5.668,-5.668,-5.668,-5.668,-5.668,-5.668,-5.668,-5.668,-5.668,-5.668,-5.668,-5.668,-5.668,-5.668,-5.668,-5.668,-5.668,-5.668,-5.6415,-5.5648,-5.5582,-5.5118,-5.3993,-5.3632,-5.3268,-5.2904,-5.2572,-5.2409,-5.2409,-5.2409,-5.2409,-5.2409,-5.2409,-5.2409,-5.2409,-5.2409,-5.2409,-5.2409,-5.2409,-5.2409,-3.6208,-3.9725,-4.3532,-4.8001,-5.0651,-5.2243,-5.2376,-5.2409,-5.2409,-5.2409,-5.2409,0.0,0.0,0.0,0.0,0.0,0.0,0.0,0.0,0.0,0.0,0.0,0.0,0.0,0.0,0.0,0.0,0.0,0.0,0.0,-5.2409,-5.2409,-5.2409,-5.2409,-5.2409,-5.2409,-5.2409,-5.2409,-5.2409,-5.2409,-5.2409,-5.2409,-5.2409,-5.2409,-5.2409,-5.2409,-5.2409,-5.2409,-5.2409,-5.2409,-5.2409,-5.2409,-5.2409,-5.2409,-5.2409,-5.2409,-5.2409,-5.2473,-5.3036,-5.3798,-5.4589,-5.5185,-5.6017,-5.668,-5.668,-5.668,-5.668,-5.668,-5.668,-5.668,-5.668,-5.668,-5.668,-5.668,-5.668,-5.668,-5.668,-5.668,-5.668,-5.668,-5.668,-5.668,-5.668,-5.668,-5.668,-5.668,-5.668,-5.668,-5.668,-5.668,-5.6448,-5.5885,-5.5819,-5.5483,-5.4721,-5.4162,-5.3732,-5.3632,-5.2937,-5.2572,-5.2572,-5.2475,-5.2409,-5.2409,-5.2409,-5.2409,-5.2409,-5.2409,-5.2409,-5.2409,-5.2409,-5.2409,-3.2177,-3.7375,-4.3532,-4.8001,-5.0286,-5.1614,-5.2241,0.0,-5.2409,0.0,0.0,0.0,0.0,0.0,0.0,0.0,0.0,0.0,0.0,0.0,0.0,0.0,0.0,0.0,0.0,0.0,0.0,0.0,0.0,0.0,-5.2409,-5.2409,-5.2409,-5.2409,-5.2409,-5.2409,-5.2409,-5.2409,-5.2409,-5.2409,-5.2409,-5.2409,-5.2409,-5.2409,-5.2409,-5.2409,-5.2409,-5.2409,-5.2409,-5.2409,-5.2409,-5.2409,-5.2409,-5.2409,-5.2409,-5.2409,-5.2409,-5.2407,-5.2473,-5.34,-5.449,-5.4589,-5.5587,-5.668,-5.668,-5.668,-5.668,-5.668,-5.668,-5.668,-5.668,-5.668,-5.668,-5.668,-5.668,-5.668,-5.668,-5.668,-5.668,-5.668,-5.668,-5.668,-5.668,-5.668,-5.668,-5.668,-5.668,-5.668,-5.668,-5.668,-5.6647,-5.6547,-5.6547,-5.6249,-5.5516,-5.535,-5.5019,-5.4357,-5.3699,-5.3268,-5.3268,-5.2705,-5.2409,-5.2409,-5.2409,-5.2409,-5.2409,-5.2409,-5.2409,-5.2409,-5.2409,-5.2409,-3.4816,-3.9156,-4.3466,-4.7504,-4.9293,-5.0253,-5.0982,-5.1479,-5.1779,-5.1779,0.0,0.0,0.0,0.0,0.0,0.0,0.0,0.0,0.0,0.0,0.0,0.0,0.0,0.0,0.0,0.0,0.0,0.0,0.0,-5.2409,-5.2409,-5.2409,-5.2409,-5.2409,-5.2409,-5.2409,-5.2409,-5.2409,-5.2409,-5.2409,-5.2409,-5.2409,-5.2409,-5.2409,-5.2409,-5.2409,-5.2409,-5.2409,-5.2409,-5.2409,-5.2409,-5.2409,-5.2409,-5.2409,-5.2409,-5.2409,-5.2409,-5.2409,-5.2409,-5.3301,-5.449,-5.449,-5.5521,-5.668,-5.668,-5.668,-5.668,-5.668,-5.668,-5.668,-5.668,-5.668,-5.668,-5.668,-5.668,-5.668,-5.668,-5.668,-5.668,-5.668,-5.668,-5.668,-5.668,-5.668,-5.668,-5.668,-5.668,-5.668,-5.668,-5.668,-5.668,-5.668,-5.668,-5.6547,-5.6249,-5.5852,-5.545,-5.5118,-5.439,-5.3831,-5.3434,-5.3135,-5.2771,-5.2407,-5.2409,-5.2409,-5.2409,-5.2409,-5.2409,-5.2409,-5.2409,-5.2409,-3.6,-3.9056,-4.1541,-4.5616,-4.7438,-4.8564,0.0,0.0,-5.1015,0.0,0.0,0.0,0.0,0.0,0.0,0.0,0.0,0.0,0.0,0.0,0.0,0.0,0.0,0.0,0.0,0.0,0.0,0.0,0.0,-5.2409,-5.2409,-5.2409,-5.2409,-5.2409,-5.2409,-5.2409,-5.2409,-5.2409,-5.2409,-5.2409,-5.2409,-5.2409,-5.2409,-5.2409,-5.2409,-5.2409,-5.2409,-5.2409,-5.2409,-5.2409,-5.2409,-5.2409,-5.2409,-5.2409,-5.2409,-5.2409,-5.2409,-5.2409,-5.2409,-5.3301,-5.449,-5.449,-5.5521,-5.668,-5.668,-5.668,-5.668,-5.668,-5.668,-5.668,-5.668,-5.668,-5.668,-5.668,-5.668,-5.668,-5.668,-5.668,-5.668,-5.668,-5.668,-5.668,-5.668,-5.668,-5.668,-5.668,-5.668,-5.668,-5.668,-5.668,-5.668,-5.668,-5.668,-5.668,-5.668,-5.6216,-5.5885,-5.5885,-5.5185,-5.4523,-5.3997,-5.3632,-5.3169,-5.2638,-5.2473,-5.2409,-5.2409,-5.2409,-5.2409,-5.2409,-5.2409,-5.2409,-3.1823,-3.4154,-3.6506,-4.1513,-4.439,-4.6543,0.0,0.0,0.0,0.0,0.0,0.0,0.0,0.0,0.0,0.0,0.0,0.0,0.0,0.0,0.0,0.0,0.0,0.0,0.0,0.0,0.0,0.0,0.0,-5.2409,-5.2409,-5.2409,-5.2409,-5.2409,-5.2409,-5.2409,-5.2409,-5.2409,-5.2409,-5.2409,-5.2409,-5.2409,-5.2409,-5.2409,-5.2409,-5.2409,-5.2409,-5.2409,-5.2409,-5.2409,-5.2409,-5.2409,-5.2409,-5.2409,-5.2409,-5.2409,-5.2409,-5.2409,-5.2409,-5.3301,-5.449,-5.449,-5.5521,-5.668,-5.668,-5.668,-5.668,-5.668,-5.668,-5.668,-5.668,-5.668,-5.668,-5.668,-5.668,-5.668,-5.668,-5.668,-5.668,-5.668,-5.668,-5.668,-5.668,-5.668,-5.668,-5.668,-5.668,-5.668,-5.668,-5.668,-5.668,-5.668,-5.668,-5.668,-5.668,-5.6647,-5.6614,-5.6614,-5.5951,-5.5516,-5.5483,-5.4162,-5.34,-5.3367,-5.2705,-5.2409,-5.2409,-5.2409,-5.2409,-5.2409,-5.2409,-5.2409,-3.0742,-3.3061,-3.5777,-3.952,-4.1707,-4.3562,-4.5781,-4.757,0.0,0.0,0.0,0.0,0.0,0.0,0.0,0.0,0.0,0.0,0.0,0.0,0.0,0.0,0.0,0.0,0.0,0.0,0.0,0.0,0.0,0.0,-5.2409,-5.2409,-5.2409,-5.2409,-5.2409,-5.2409,-5.2409,-5.2409,-5.2409,-5.2409,-5.2409,-5.2409,-5.2409,-5.2409,-5.2409,-5.2409,-5.2409,-5.2409,-5.2409,-5.2409,-5.2409,-5.2409,-5.2409,-5.2409,-5.2409,-5.2409,-5.2409,-5.2475,-5.287,-5.3699,-5.4556,-5.5019,-5.5885,-5.668,-5.668,-5.668,-5.668,-5.668,-5.668,-5.668,-5.668,-5.668,-5.668,-5.668,-5.668,-5.668,-5.668,-5.668,-5.668,-5.668,-5.668,-5.668,-5.668,-5.668,-5.668,-5.668,-5.668,-5.668,-5.668,-5.668,-5.668,-5.668,-5.668,-5.668,-5.668,-5.668,-5.668,-5.668,-5.6448,-5.6084,-5.5615,-5.4622,-5.3861,-5.3434,-5.2738,-5.2409,-5.2409,-5.2409,-5.2409,-5.2409,-5.2409,-5.2409,-2.9284,-3.157,-3.4485,0.0,-3.8692,-4.0183,-4.386,0.0,0.0,0.0,0.0,0.0,0.0,0.0,0.0,0.0,0.0,0.0,0.0,0.0,0.0,0.0,0.0,0.0,0.0,0.0,0.0,0.0,0.0,0.0,-5.2045,-5.2277,-5.2409,-5.2409,-5.2409,-5.2409,-5.2409,-5.2409,-5.2409,-5.2409,-5.2409,-5.2409,-5.2409,-5.2409,-5.2409,-5.2409,-5.2409,-5.2409,-5.2409,-5.2409,-5.2409,-5.2409,-5.2409,-5.2409,-5.2409,-5.2409,-5.2409,-5.2473,-5.3169,-5.3861,-5.4589,-5.535,-5.6117,-5.668,-5.668,-5.668,-5.668,-5.668,-5.668,-5.668,-5.668,-5.668,-5.668,-5.668,-5.668,-5.668,-5.668,-5.668,-5.668,-5.668,-5.668,-5.668,-5.668,-5.668,-5.668,-5.668,-5.668,-5.668,-5.668,-5.668,-5.668,-5.668,-5.668,-5.668,-5.668,-5.668,-5.668,-5.668,-5.668,-5.6481,-5.5984,-5.5289,-5.449,-5.3798,-5.3102,-5.2605,-5.2409,-5.2409,-5.2409,-5.2409,-5.2409,-5.2409,0.0,0.0,0.0,0.0,0.0,0.0,-4.2965,0.0,0.0,0.0,0.0,0.0,0.0,0.0,0.0,0.0,0.0,0.0,0.0,0.0,0.0,0.0,0.0,0.0,0.0,0.0,0.0,0.0,0.0,-5.1282,-5.1282,-5.1978,-5.2376,-5.2376,-5.2376,-5.2409,-5.2409,-5.2409,-5.2409,-5.2409,-5.2409,-5.2409,-5.2409,-5.2409,-5.2409,-5.2409,-5.2409,-5.2409,-5.2409,-5.2409,-5.2409,-5.2409,-5.2409,-5.2409,-5.2409,-5.2409,-5.2409,-5.2473,-5.3202,-5.393,-5.4622,-5.5383,-5.6117,-5.668,-5.668,-5.668,-5.668,-5.668,-5.668,-5.668,-5.668,-5.668,-5.668,-5.668,-5.668,-5.668,-5.668,-5.668,-5.668,-5.668,-5.668,-5.668,-5.668,-5.668,-5.668,-5.668,-5.668,-5.668,-5.668,-5.668,-5.668,-5.668,-5.668,-5.668,-5.668,-5.668,-5.668,-5.668,-5.668,-5.668,-5.668,-5.5984,-5.5251,-5.4523,-5.3798,-5.3069,-5.2442,-5.2407,-5.2409,-5.2409,-5.2409,-5.2409,-2.758,0.0,0.0,0.0,0.0,0.0,0.0,0.0,0.0,0.0,0.0,0.0,0.0,0.0,0.0,0.0,0.0,0.0,0.0,0.0,0.0,0.0,0.0,0.0,0.0,0.0,0.0,0.0,-5.0386,-5.0518,-5.0518,-5.0717,-5.1048,-5.1614,-5.1614,-5.1879,-5.2373,-5.2409,-5.2409,-5.2409,-5.2409,-5.2409,-5.2409,-5.2409,-5.2409,-5.2409,-5.2409,-5.2409,-5.2409,-5.2409,-5.2409,-5.2409,-5.2409,-5.2409,-5.2409,-5.2409,-5.2409,-5.2572,-5.3798,-5.4361,-5.4688,-5.5984,-5.6514,-5.668,-5.668,-5.668,-5.668,-5.668,-5.668,-5.668,-5.668,-5.668,-5.668,-5.668,-5.668,-5.668,-5.668,-5.668,-5.668,-5.668,-5.668,-5.668,-5.668,-5.668,-5.668,-5.668,-5.668,-5.668,-5.668,-5.668,-5.668,-5.668,-5.668,-5.668,-5.668,-5.668,-5.668,-5.668,-5.668,-5.668,-5.668,-5.5984,-5.5483,-5.5284,-5.4063,-5.3334,-5.3135,-5.2638,-5.2409,-5.2409,-5.2409,-5.2409,-2.8674,-2.9748,-3.1504,0.0,0.0,0.0,0.0,-3.6771,0.0,0.0,0.0,0.0,0.0,0.0,0.0,0.0,0.0,0.0,0.0,0.0,0.0,0.0,0.0,0.0,0.0,0.0,0.0,-4.9293,-4.9591,-4.9889,-5.0187,-5.022,-5.0419,-5.0817,-5.1149,-5.1514,-5.1945,-5.2277,-5.2409,-5.2409,-5.2409,-5.2409,-5.2409,-5.2409,-5.2409,-5.2409,-5.2409,-5.2409,-5.2409,-5.2409,-5.2409,-5.2409,-5.2409,-5.2409,-5.2409,-5.2409,-5.2409,-5.2572,-5.403,-5.449,-5.4759,-5.6216,-5.668,-5.668,-5.668,-5.668,-5.668,-5.668,-5.668,-5.668,-5.668,-5.668,-5.668,-5.668,-5.668,-5.668,-5.668,-5.668,-5.668,-5.668,-5.668,-5.668,-5.668,-5.668,-5.668,-5.668,-5.668,-5.668,-5.668,-5.668,-5.668,-5.668,-5.668,-5.668,-5.668,-5.668,-5.668,-5.668,-5.668,-5.668,-5.668,-5.6282,-5.5918,-5.5582,-5.4423,-5.3566,-5.297,-5.2572,-5.2409,-5.2409,-5.2409,-5.2409,-3.041,-3.1305,-3.295,-3.3425,-3.1702,0.0,-3.6928,-3.6365,0.0,0.0,0.0,0.0,0.0,0.0,0.0,0.0,0.0,0.0,0.0,0.0,0.0,0.0,0.0,0.0,0.0,-4.8001,-4.8001,-4.8001,-4.863,-4.926,-4.9922,-4.9955,-4.9988,-5.0088,-5.0717,-5.1149,-5.1315,-5.1978,-5.2272,-5.2266,-5.2338,-5.2338,-5.2266,-5.2338,-5.2409,-5.2409,-5.2409,-5.2409,-5.2409,-5.2409,-5.2409,-5.2409,-5.2409,-5.2409,-5.2409,-5.2409,-5.2409,-5.2572,-5.403,-5.449,-5.4759,-5.6216,-5.668,-5.668,-5.668,-5.668,-5.668,-5.668,-5.668,-5.668,-5.668,-5.668,-5.668,-5.668,-5.668,-5.668,-5.668,-5.668,-5.668,-5.668,-5.668,-5.668,-5.668,-5.668,-5.668,-5.668,-5.668,-5.668,-5.668,-5.668,-5.668,-5.668,-5.668,-5.668,-5.668,-5.668,-5.668,-5.668,-5.668,-5.668,-5.668,-5.668,-5.6382,-5.5714,-5.4887,-5.3831,-5.2409,-5.2409,-5.2409,-5.2409,-5.2409,-5.2409,-3.3061,-3.3259,-3.3326,-3.2277,0.0,0.0,-3.157,-3.2266,0.0,0.0,0.0,0.0,0.0,0.0,0.0,0.0,0.0,0.0,0.0,0.0,0.0,0.0,0.0,0.0,0.0,-4.8001,-4.8001,-4.8001,-4.8133,-4.8299,-4.8431,-4.8431,-4.8696,-4.9293,-4.9458,-5.0088,-5.1282,-5.1448,-5.146,-5.1359,-5.2053,-5.2017,-5.1397,-5.2053,-5.2409,-5.2409,-5.2409,-5.2409,-5.2409,-5.2409,-5.2409,-5.2409,-5.2409,-5.2409,-5.2409,-5.2409,-5.2409,-5.2572,-5.403,-5.449,-5.4759,-5.6216,-5.668,-5.668,-5.668,-5.668,-5.668,-5.668,-5.668,-5.668,-5.668,-5.668,-5.668,-5.668,-5.668,-5.668,-5.668,-5.668,-5.668,-5.668,-5.668,-5.668,-5.668,-5.668,-5.668,-5.668,-5.668,-5.668,-5.668,-5.668,-5.668,-5.668,-5.668,-5.668,-5.668,-5.668,-5.668,-5.668,-5.668,-5.668,-5.668,-5.668,-5.6614,-5.6481,-5.5189,-5.3831,-5.2409,-5.2409,-5.2409,-5.2409,-5.2409,-5.2409,-3.5114,-3.4883,-3.4816,-3.4428,0.0,0.0,0.0,0.0,0.0,0.0,0.0,0.0,0.0,0.0,0.0,0.0,0.0,0.0,0.0,0.0,0.0,0.0,0.0,0.0,0.0,-4.7438,-4.7603,-4.7968,-4.8001,-4.8001,-4.8001,-4.8001,-4.8166,-4.8531,-4.8928,-4.9624,-5.0717,-5.0662,-5.079,-5.1102,-5.1102,-5.1102,-5.1102,-5.1102,-5.1327,-5.1762,-5.1762,-5.1762,-5.1762,-5.1762,-5.1762,-5.1798,-5.223,-5.2409,-5.2409,-5.2409,-5.2409,-5.2572,-5.403,-5.449,-5.4759,-5.6216,-5.668,-5.668,-5.668,-5.668,-5.668,-5.668,-5.668,-5.668,-5.668,-5.668,-5.668,-5.668,-5.668,-5.668,-5.668,-5.668,-5.668,-5.668,-5.668,-5.668,-5.668,-5.668,-5.668,-5.668,-5.668,-5.668,-5.668,-5.668,-5.668,-5.668,-5.668,-5.668,-5.668,-5.668,-5.668,-5.668,-5.668,-5.668,-5.668,-5.668,-5.6514,-5.615,-5.509,-5.3997,-5.2904,-5.2539,-5.2409,-5.2409,-5.2409,-5.2409,0.0,0.0,0.0,0.0,0.0,-3.4136,0.0,0.0,0.0,0.0,0.0,0.0,0.0,0.0,0.0,0.0,0.0,0.0,0.0,0.0,0.0,0.0,0.0,0.0,0.0,-4.6212,-4.6477,-4.7504,-4.7305,-4.7338,-4.7769,-4.7934,-4.8001,-4.8001,-4.8597,-4.926,-4.9988,-5.002,-5.0232,-5.0612,-5.0242,-5.0267,-5.0608,-5.0073,-5.019,-5.0838,-5.0838,-5.0838,-5.0838,-5.0838,-5.0838,-5.0951,-5.1835,-5.2158,-5.2194,-5.2338,-5.2409,-5.2572,-5.403,-5.449,-5.4759,-5.6216,-5.668,-5.668,-5.668,-5.668,-5.668,-5.668,-5.668,-5.668,-5.668,-5.668,-5.668,-5.668,-5.668,-5.668,-5.668,-5.668,-5.668,-5.668,-5.668,-5.668,-5.668,-5.668,-5.668,-5.668,-5.668,-5.668,-5.668,-5.668,-5.668,-5.668,-5.668,-5.668,-5.668,-5.668,-5.668,-5.668,-5.668,-5.668,-5.668,-5.668,-5.6349,-5.5615,-5.4854,-5.4162,-5.34,-5.2705,-5.2409,-5.2409,-5.2409,-5.2409,0.0,0.0,0.0,0.0,-3.7187,0.0,0.0,0.0,0.0,0.0,0.0,0.0,0.0,0.0,0.0,0.0,0.0,0.0,0.0,0.0,0.0,0.0,0.0,0.0,0.0,0.0,-4.386,-4.5881,-4.4854,-4.4956,-4.6908,-4.7636,-4.8001,-4.8001,-4.8067,-4.8498,-4.9226,-4.9853,-4.9772,-4.9005,-5.0326,-5.0229,-4.8872,-4.9527,-4.9844,-4.9923,-4.9923,-4.9923,-4.9923,-4.9923,-4.9923,-5.0041,-5.0914,-5.1247,-5.1359,-5.2089,-5.2409,-5.2572,-5.403,-5.449,-5.4759,-5.6216,-5.668,-5.668,-5.668,-5.668,-5.668,-5.668,-5.668,-5.668,-5.668,-5.668,-5.668,-5.668,-5.668,-5.668,-5.668,-5.668,-5.668,-5.668,-5.668,-5.668,-5.668,-5.668,-5.668,-5.668,-5.668,-5.668,-5.668,-5.668,-5.668,-5.668,-5.668,-5.668,-5.668,-5.668,-5.668,-5.668,-5.668,-5.668,-5.668,-5.668,-5.6349,-5.5615,-5.4854,-5.4162,-5.34,-5.2705,-5.2409,-5.2409,-5.2409,-5.2409,0.0,0.0,0.0,0.0,0.0,0.0,-3.2228,0.0,-3.0703,0.0,0.0,0.0,0.0,0.0,0.0,0.0,0.0,0.0,0.0,0.0,0.0,0.0,0.0,0.0,0.0,0.0,0.0,0.0,0.0,-4.3959,-4.6146,-4.6974,-4.757,-4.8001,-4.8001,-4.8365,-4.9094,-4.8822,-4.8701,-4.8685,-4.8814,-4.878,-4.8615,-4.8449,-4.8656,-4.9116,-4.9116,-4.9116,-4.9116,-4.9116,-4.9116,-4.9157,-4.9519,-4.9915,-5.0384,-5.0767,-5.1474,-5.2408,-5.3455,-5.4382,-5.5322,-5.6349,-5.668,-5.668,-5.668,-5.668,-5.668,-5.668,-5.668,-5.668,-5.668,-5.668,-5.668,-5.668,-5.668,-5.668,-5.668,-5.668,-5.668,-5.668,-5.668,-5.668,-5.668,-5.668,-5.668,-5.668,-5.668,-5.668,-5.668,-5.668,-5.668,-5.668,-5.668,-5.668,-5.668,-5.668,-5.668,-5.668,-5.668,-5.668,-5.668,-5.668,-5.6547,-5.6249,-5.5483,-5.4754,-5.4026,-5.3334,-5.2771,-5.2409,-5.2409,-5.2409,-4.1311,0.0,0.0,0.0,0.0,0.0,0.0,0.0,0.0,0.0,0.0,0.0,0.0,0.0,0.0,0.0,0.0,0.0,0.0,0.0,0.0,0.0,0.0,0.0,0.0,0.0,0.0,0.0,0.0,0.0,-4.5052,-4.5922,-4.678,-4.7669,-4.7901,-4.8134,-4.8461,-4.812,-4.801,-4.8091,-4.7801,-4.7849,-4.8198,-4.7581,-4.7666,-4.824,-4.824,-4.824,-4.824,-4.824,-4.824,-4.824,-4.824,-4.8615,-4.9197,-4.9607,-5.0643,-5.1926,-5.2634,-5.4059,-5.5677,-5.6437,-5.668,-5.668,-5.668,-5.668,-5.668,-5.668,-5.668,-5.668,-5.668,-5.668,-5.668,-5.668,-5.668,-5.668,-5.668,-5.668,-5.668,-5.668,-5.668,-5.668,-5.668,-5.668,-5.668,-5.668,-5.668,-5.668,-5.668,-5.668,-5.668,-5.668,-5.668,-5.668,-5.668,-5.668,-5.668,-5.668,-5.668,-5.668,-5.668,-5.668,-5.668,-5.668,-5.5984,-5.5317,-5.4787,-5.3864,-5.3169,-5.2672,-5.2473,-5.2409,0.0,0.0,0.0,-3.6432,0.0,0.0,0.0,0.0,-3.2656,0.0,0.0,0.0,0.0,0.0,0.0,0.0,0.0,0.0,0.0,0.0,0.0,0.0,0.0,0.0,0.0,0.0,0.0,0.0,0.0,0.0,-4.3403,-4.449,-4.5571,-4.6908,-4.7636,-4.7638,-4.6894,-4.8181,-4.8089,-4.6573,-4.7927,-4.8145,-4.7352,-4.7309,-4.7309,-4.7352,-4.7352,-4.7352,-4.7352,-4.7352,-4.7352,-4.7352,-4.7352,-4.7352,-4.7581,-4.9197,-5.0247,-5.0943,-5.171,-5.3396,-5.5442,-5.6414,-5.668,-5.668,-5.668,-5.668,-5.668,-5.668,-5.668,-5.668,-5.668,-5.668,-5.668,-5.668,-5.668,-5.668,-5.668,-5.668,-5.668,-5.668,-5.668,-5.668,-5.668,-5.668,-5.668,-5.668,-5.668,-5.668,-5.668,-5.668,-5.668,-5.668,-5.668,-5.668,-5.668,-5.668,-5.668,-5.668,-5.668,-5.668,-5.668,-5.668,-5.668,-5.668,-5.5984,-5.5582,-5.5549,-5.4129,-5.34,-5.3367,-5.2705,-5.2409,0.0,0.0,-4.5668,-4.0469,0.0,0.0,0.0,0.0,0.0,0.0,0.0,0.0,0.0,0.0,0.0,0.0,0.0,0.0,0.0,0.0,0.0,0.0,0.0,0.0,0.0,0.0,0.0,0.0,-3.7015,0.0,0.0,-4.3225,-4.4593,-4.5538,-4.7144,-4.7605,-4.6828,-4.7613,-4.7529,-4.6502,-4.7338,-4.7581,-4.7309,-4.7309,-4.7309,-4.7309,-4.7309,-4.7309,-4.7309,-4.7309,-4.7309,-4.7309,-4.7309,-4.7309,-4.7396,-4.7934,-4.9239,-5.0912,-5.2702,-5.3777,-5.4611,-5.5474,-5.5789,-5.5908,-5.6525,-5.668,-5.668,-5.668,-5.668,-5.668,-5.668,-5.668,-5.668,-5.668,-5.668,-5.668,-5.668,-5.668,-5.668,-5.668,-5.668,-5.668,-5.668,-5.668,-5.668,-5.668,-5.668,-5.668,-5.668,-5.668,-5.668,-5.668,-5.668,-5.668,-5.668,-5.668,-5.668,-5.668,-5.668,-5.668,-5.668,-5.668,-5.668,-5.668,-5.6448,-5.6084,-5.5582,-5.4589,-5.3897,-5.34,-5.2705,-5.2409,-4.5658,-4.6437,0.0,-4.2197,-4.0642,0.0,-3.382,0.0,0.0,0.0,0.0,0.0,0.0,0.0,0.0,0.0,0.0,0.0,0.0,0.0,0.0,0.0,0.0,0.0,0.0,0.0,-3.5451,-3.6271,-3.5439,0.0,0.0,0.0,-4.2847,-4.404,-4.6126,-4.6807,-4.5989,-4.7061,-4.7068,-4.6092,-4.6906,-4.7309,-4.7309,-4.7309,-4.7309,-4.7309,-4.7309,-4.7309,-4.7309,-4.7309,-4.7309,-4.7309,-4.7309,-4.7309,-4.7309,-4.7309,-4.8481,-5.0455,-5.2729,-5.3502,-5.3632,-5.4569,-5.4861,-5.5026,-5.5908,-5.6218,-5.6257,-5.6603,-5.668,-5.668,-5.668,-5.668,-5.668,-5.668,-5.668,-5.668,-5.668,-5.668,-5.668,-5.668,-5.668,-5.668,-5.668,-5.668,-5.668,-5.668,-5.668,-5.668,-5.668,-5.668,-5.668,-5.668,-5.668,-5.668,-5.668,-5.668,-5.668,-5.668,-5.668,-5.668,-5.668,-5.668,-5.668,-5.668,-5.668,-5.6448,-5.5984,-5.5218,-5.449,-5.3798,-5.3069,-5.2605]},{"header":{"parameterUnit":"m.s-1","parameterCategory":1,"la1":30.6,"la2":29.2853,"lo1":-89.7004,"lo2":-87.6739,"dy":0.0162,"dx":0.0183,"nx":112,"ny":82,"refTime":"2026-03-07T00:00:00:Z","depth":0,"parameterNumber":3,"parameterNumberName":"V-component_of_WINDS"},"data":[0.0,0.0,0.0,0.0,0.0,0.0,0.0,0.0,0.0,0.0,0.0,0.0,0.0,0.0,0.0,0.0,0.0,0.0,0.0,0.0,0.0,0.0,0.0,0.0,0.0,0.0,0.0,0.0,0.0,0.0,0.0,0.0,0.0,0.0,0.0,0.0,0.0,0.0,0.0,0.0,0.0,0.0,0.0,0.0,0.0,0.0,0.0,0.0,0.0,0.0,0.0,0.0,0.0,0.0,0.0,0.0,0.0,0.0,0.0,0.0,0.0,0.0,0.0,0.0,0.0,0.0,0.0,0.0,0.0,0.0,0.0,0.0,0.0,0.0,0.0,0.0,0.0,0.0,0.0,0.0,0.0,0.0,0.0,0.0,0.0,0.0,0.0,0.0,0.0,0.0,1.4206,1.4989,1.6668,1.8149,1.9147,1.972,1.9294,1.7497,0.0,0.0,0.0,0.0,0.0,0.0,0.0,0.0,0.0,0.0,0.0,0.0,0.0,0.0,0.0,0.0,0.0,0.0,0.0,0.0,0.0,0.0,0.0,0.0,0.0,0.0,0.0,0.0,0.0,0.0,0.0,0.0,0.0,0.0,0.0,0.0,0.0,0.0,0.0,0.0,0.0,0.0,0.0,0.0,0.0,0.0,0.0,0.0,0.0,0.0,0.0,0.0,0.0,0.0,0.0,0.0,0.0,0.0,0.0,0.0,0.0,0.0,0.0,0.0,0.0,0.0,0.0,0.0,0.0,0.0,0.0,0.0,0.0,0.0,0.0,0.0,0.0,0.0,0.0,0.0,0.0,0.0,0.0,0.0,0.0,0.0,0.0,0.0,0.0,0.0,0.0,0.0,0.0,0.0,0.0,0.0,0.0,0.0,0.0,0.0,0.0,0.0,0.0,0.0,1.556,1.8633,1.9446,2.0195,2.1141,2.1739,2.093,1.8304,0.0,0.0,0.0,0.0,0.0,0.0,0.0,0.0,0.0,0.0,0.0,0.0,0.0,0.0,0.0,0.0,0.0,0.0,0.0,0.0,0.0,0.0,0.0,0.0,0.0,0.0,0.0,0.0,0.0,0.0,0.0,0.0,0.0,0.0,0.0,0.0,0.0,0.0,0.0,0.0,0.0,0.0,0.0,0.0,0.0,0.0,0.0,0.0,0.0,0.0,0.0,0.0,0.0,0.0,0.0,0.0,0.0,0.0,0.0,0.0,0.0,0.0,0.0,0.0,0.0,0.0,0.0,0.0,0.0,0.0,0.0,0.0,0.0,0.0,0.0,0.0,0.0,0.0,0.0,0.0,0.0,0.0,0.0,0.0,0.0,0.0,0.0,0.0,0.0,0.0,0.0,0.0,0.0,0.0,0.0,0.0,0.0,0.0,0.0,0.0,0.0,0.0,0.0,1.399,1.5498,1.8153,1.8547,1.9239,2.0782,2.0933,2.0311,1.8935,1.7206,0.0,0.0,0.0,0.0,0.0,0.0,0.0,0.0,0.0,0.0,0.0,0.0,0.0,0.0,0.0,0.0,0.0,0.0,0.0,0.0,0.0,0.0,0.0,0.0,0.0,0.0,0.0,0.0,0.0,0.0,0.0,0.0,0.0,0.0,0.0,0.0,0.0,0.0,0.0,0.0,0.0,0.0,0.0,0.0,0.0,0.0,0.0,0.0,0.0,0.0,0.0,0.0,0.0,0.0,0.0,0.0,0.0,0.0,0.0,0.0,0.0,0.0,0.0,0.0,0.0,0.0,0.0,0.0,0.0,0.0,0.0,0.0,0.0,0.0,0.0,0.0,0.0,0.0,0.0,0.0,0.0,0.0,0.0,0.0,0.0,0.0,0.0,0.0,0.0,0.0,0.0,0.0,0.0,0.0,0.0,0.0,0.0,0.0,0.0,0.0,0.0,0.0,1.544,1.6402,1.8468,1.8473,1.901,2.0737,2.0228,1.9634,1.9149,1.7364,0.0,0.0,0.0,0.0,0.0,0.0,0.0,0.0,0.0,0.0,0.0,0.0,0.0,0.0,0.0,0.0,0.0,0.0,0.0,0.0,0.0,0.0,0.0,0.0,0.0,0.0,0.0,0.0,0.0,0.0,0.0,0.0,0.0,0.0,0.0,0.0,0.0,0.0,0.0,0.0,0.0,0.0,0.0,0.0,0.0,0.0,0.0,0.0,0.0,0.0,0.0,0.0,0.0,0.0,0.0,0.0,0.0,0.0,0.0,0.0,0.0,0.0,0.0,0.0,0.0,0.0,0.0,0.0,0.0,0.0,0.0,0.0,0.0,0.0,0.0,0.0,0.0,0.0,0.0,0.0,0.0,0.0,0.0,0.0,0.0,0.0,0.0,0.0,0.0,0.0,0.0,0.0,0.0,0.0,0.0,0.0,0.0,0.0,0.0,0.0,0.0,0.0,1.7768,1.9754,2.2397,2.1917,2.1784,2.2818,2.1436,2.0003,1.8734,1.6655,0.0,0.0,0.0,0.0,0.0,0.0,0.0,0.0,0.0,0.0,0.0,0.0,0.0,0.0,0.0,0.0,0.0,0.0,0.0,0.0,0.0,0.0,0.0,0.0,0.0,0.0,0.0,0.0,0.0,0.0,0.0,0.0,0.0,0.0,0.0,0.0,0.0,0.0,0.0,0.0,0.0,0.0,0.0,0.0,0.0,0.0,0.0,0.0,0.0,0.0,0.0,0.0,0.0,0.0,0.0,0.0,0.0,0.0,0.0,0.0,0.0,0.0,0.0,0.0,0.0,0.0,0.0,0.0,0.0,0.0,0.0,0.0,0.0,0.0,0.0,0.0,0.0,0.0,0.0,0.0,0.0,0.0,0.0,0.0,0.0,0.0,0.0,0.0,0.0,0.0,0.0,0.0,0.0,0.0,0.0,0.0,0.0,0.0,0.0,0.0,0.0,0.0,1.7298,1.9005,0.0,2.0962,2.1141,2.2138,2.1438,2.0265,1.8699,0.0,0.0,0.0,0.0,0.0,0.0,0.0,0.0,0.0,0.0,0.0,0.0,0.0,0.0,0.0,0.0,0.0,0.0,0.0,0.0,0.0,0.0,0.0,0.0,0.0,0.0,0.0,0.0,0.0,0.0,0.0,0.0,0.0,0.0,0.0,0.0,0.0,0.0,0.0,0.0,0.0,0.0,0.0,0.0,0.0,0.0,0.0,0.0,0.0,0.0,0.0,0.0,0.0,0.0,0.0,0.0,0.0,0.0,0.0,0.0,0.0,0.0,0.0,0.0,0.0,0.0,0.0,0.0,0.0,0.0,0.0,0.0,0.0,0.0,0.0,0.0,0.0,0.0,0.0,0.0,0.0,0.0,0.0,0.0,0.0,0.0,0.0,0.0,0.0,0.0,0.0,0.0,0.0,0.0,0.0,0.0,0.0,0.0,0.0,0.0,0.0,0.0,1.5739,1.7739,1.9593,0.0,2.1141,2.1409,2.2094,2.1296,2.0072,1.8504,0.0,0.0,0.0,0.0,0.0,0.0,0.0,0.0,0.0,0.0,0.0,0.0,0.0,0.0,0.0,0.0,0.0,0.0,0.0,0.0,0.0,0.0,0.0,0.0,0.0,0.0,0.0,0.0,0.0,0.0,0.0,0.0,0.0,0.0,0.0,0.0,0.0,0.0,0.0,0.0,0.0,0.0,0.0,0.0,0.0,0.0,0.0,0.0,0.0,0.0,0.0,0.0,0.0,0.0,0.0,0.0,0.0,0.0,0.0,0.0,0.0,0.0,0.0,0.0,0.0,0.0,0.0,0.0,0.0,0.0,0.0,0.0,0.0,0.0,0.0,0.0,0.0,0.0,0.0,0.0,0.0,0.0,0.0,0.0,0.0,0.0,0.0,0.0,0.0,0.0,0.0,0.0,0.0,0.0,0.0,0.0,0.0,0.0,0.0,0.0,0.0,0.0,1.6243,1.9639,2.2207,2.3003,2.3101,2.3101,2.3101,2.1132,1.9375,0.0,0.0,0.0,0.0,0.0,0.0,0.0,0.0,0.0,0.0,0.0,0.0,0.0,0.0,0.0,0.0,0.0,0.0,0.0,0.0,0.0,0.0,0.0,0.0,0.0,0.0,0.0,0.0,0.0,0.0,0.0,0.0,0.0,0.0,0.0,0.0,0.0,0.0,0.0,0.0,0.0,0.0,0.0,0.0,0.0,0.0,0.0,0.0,0.0,0.0,0.0,0.0,0.0,0.0,0.0,0.0,0.0,0.0,0.0,0.0,0.0,0.0,0.0,0.0,0.0,0.0,0.0,0.0,0.0,0.0,0.0,0.0,0.0,0.0,0.0,0.0,0.0,0.0,0.0,0.0,0.0,0.0,0.0,0.0,0.0,0.0,0.0,0.0,0.0,0.0,0.0,0.0,0.0,0.0,0.0,0.0,0.0,0.0,0.0,0.0,0.0,0.0,0.0,1.7358,2.0082,2.2207,2.3003,2.3101,2.3101,2.3101,2.2012,2.0371,1.8144,0.0,0.0,0.0,0.0,0.0,0.0,0.0,0.0,0.0,0.0,0.0,0.0,0.0,0.0,0.0,0.0,0.0,0.0,0.0,0.0,0.0,0.0,0.0,0.0,0.0,0.0,0.0,0.0,0.0,0.0,0.0,0.0,0.0,0.0,0.0,0.0,0.0,0.0,0.0,0.0,0.0,0.0,0.0,0.0,0.0,0.0,0.0,0.0,0.0,0.0,0.0,0.0,0.0,0.0,0.0,0.0,0.0,0.0,0.0,0.0,0.0,0.0,0.0,0.0,0.0,0.0,0.0,0.0,0.0,0.0,0.0,0.0,0.0,0.0,0.0,0.0,0.0,0.0,0.0,0.0,0.0,0.0,0.0,0.0,0.0,0.0,0.0,0.0,0.0,0.0,0.0,0.0,0.0,0.0,0.0,0.0,0.0,0.0,0.0,0.0,0.0,0.0,1.7509,2.0158,2.2207,2.3003,2.3101,2.3101,2.3101,2.2363,2.084,1.8383,0.0,0.0,0.0,0.0,0.0,0.0,0.0,0.0,0.0,0.0,0.0,0.0,0.0,0.0,0.0,0.0,0.0,0.0,0.0,0.0,0.0,0.0,0.0,0.0,0.0,0.0,0.0,0.0,0.0,0.0,0.0,0.0,0.0,0.0,0.0,0.0,0.0,0.0,0.0,0.0,0.0,0.0,0.0,0.0,0.0,0.0,0.0,0.0,0.0,0.0,0.0,0.0,0.0,0.0,0.0,0.0,0.0,0.0,0.0,0.0,0.0,0.0,0.0,0.0,0.0,0.0,0.0,0.0,0.0,0.0,0.0,0.0,0.0,0.0,0.0,0.0,0.0,0.0,0.0,0.0,0.0,0.0,0.0,0.0,0.0,0.0,0.0,0.0,0.0,0.0,0.0,0.0,0.0,0.0,0.0,0.0,0.0,0.0,0.0,0.0,0.0,0.0,1.7064,1.9966,2.2207,2.3003,2.3101,2.3101,2.3101,2.2363,2.0977,1.8828,0.0,0.0,0.0,0.0,0.0,0.0,0.0,0.0,0.0,0.0,0.0,0.0,0.0,0.0,0.0,0.0,0.0,0.0,0.0,0.0,0.0,0.0,0.0,0.0,0.0,0.0,0.0,0.0,0.0,0.0,0.0,0.0,0.0,0.0,0.0,0.0,0.0,0.0,0.0,0.0,0.0,0.0,0.0,0.0,0.0,0.0,0.0,0.0,0.0,0.0,0.0,0.0,0.0,0.0,0.0,0.0,0.0,0.0,0.0,0.0,2.0974,0.0,0.0,0.0,0.0,0.0,0.0,0.0,0.0,0.0,0.0,0.0,0.0,0.0,0.0,0.0,0.0,0.0,0.0,0.0,0.0,0.0,0.0,0.0,0.0,0.0,0.0,0.0,0.0,0.0,0.0,0.0,0.0,0.0,0.0,0.0,0.0,0.0,0.0,0.0,0.0,0.0,1.7663,2.0197,2.2207,2.3003,2.3101,2.3101,2.3101,2.2363,2.1193,1.9515,1.7323,0.0,0.0,0.0,0.0,0.0,0.0,0.0,0.0,0.0,0.0,0.0,0.0,0.0,0.0,0.0,0.0,0.0,0.0,0.0,0.0,0.0,0.0,0.0,0.0,0.0,0.0,0.0,0.0,0.0,0.0,0.0,0.0,0.0,0.0,0.0,0.0,0.0,0.0,0.0,0.0,0.0,0.0,0.0,0.0,0.0,0.0,0.0,0.0,0.0,0.0,0.0,0.0,0.0,0.0,0.0,0.0,0.0,0.0,0.0,0.0,2.2311,0.0,0.0,0.0,0.0,0.0,0.0,0.0,0.0,0.0,0.0,0.0,0.0,0.0,0.0,0.0,0.0,0.0,0.0,0.0,0.0,0.0,0.0,0.0,0.0,0.0,0.0,0.0,0.0,0.0,0.0,0.0,0.0,0.0,0.0,0.0,0.0,0.0,0.0,0.0,0.0,1.811,2.0586,2.2441,2.3023,2.3101,2.3144,2.3276,2.2729,2.1746,2.0321,1.8441,0.0,0.0,0.0,0.0,0.0,0.0,0.0,0.0,0.0,0.0,0.0,0.0,0.0,0.0,0.0,0.0,0.0,0.0,0.0,0.0,0.0,0.0,0.0,0.0,0.0,0.0,0.0,0.0,0.0,0.0,0.0,0.0,0.0,0.0,0.0,0.0,0.0,0.0,0.0,0.0,0.0,0.0,0.0,0.0,0.0,0.0,0.0,0.0,0.0,0.0,0.0,0.0,0.0,2.652,2.6967,2.7203,2.7569,2.7892,2.8,2.6017,2.5295,2.5386,0.0,0.0,0.0,0.0,0.0,0.0,0.0,0.0,0.0,0.0,0.0,0.0,0.0,0.0,0.0,0.0,0.0,0.0,0.0,0.0,0.0,0.0,0.0,0.0,0.0,2.0994,2.0836,0.0,0.0,0.0,0.0,0.0,0.0,0.0,0.0,0.0,0.0,0.0,0.0,1.8559,2.0917,2.2676,2.3042,2.3101,2.3188,2.3406,2.3117,2.2365,2.1133,1.966,1.8039,0.0,0.0,0.0,0.0,0.0,0.0,0.0,0.0,0.0,0.0,0.0,0.0,0.0,0.0,0.0,0.0,0.0,0.0,0.0,0.0,0.0,0.0,0.0,0.0,0.0,0.0,0.0,0.0,0.0,0.0,0.0,0.0,1.9929,2.1049,0.0,0.0,0.0,0.0,0.0,0.0,0.0,0.0,0.0,0.0,0.0,0.0,0.0,2.531,2.6656,2.7917,2.8384,2.8177,2.9487,2.9921,2.9539,2.9653,2.99,3.0252,2.9942,0.0,2.6642,2.521,0.0,0.0,0.0,0.0,0.0,0.0,0.0,0.0,0.0,0.0,0.0,0.0,0.0,0.0,0.0,0.0,0.0,0.0,0.0,0.0,0.0,0.0,2.4013,2.3684,2.3851,2.3674,0.0,1.9746,1.7617,1.6551,0.0,0.0,0.0,0.0,0.0,0.0,0.0,0.0,1.9043,2.1133,2.2676,2.3042,2.3101,2.3101,2.3144,2.3011,2.2546,2.1749,2.0572,1.928,1.7908,1.6206,0.0,0.0,0.0,0.0,0.0,0.0,0.0,0.0,0.0,0.0,0.0,0.0,0.0,0.0,0.0,0.0,0.0,0.0,0.0,0.0,0.0,0.0,0.0,0.0,0.0,0.0,0.0,0.0,0.0,1.9722,2.132,2.2186,2.2268,2.1742,0.0,0.0,0.0,0.0,0.0,0.0,0.0,0.0,0.0,2.6656,2.6946,2.7676,2.8794,2.9663,3.0243,3.0553,3.1153,3.1485,3.1526,3.1526,3.165,3.1836,3.1836,3.1058,2.9652,2.7757,2.6393,2.5382,0.0,0.0,0.0,0.0,0.0,2.345,2.4285,2.4617,0.0,0.0,0.0,0.0,0.0,0.0,0.0,0.0,0.0,0.0,0.0,0.0,0.0,2.4921,2.5087,2.4966,2.4162,2.248,2.0505,0.0,1.8242,1.7578,1.5225,0.0,0.0,0.0,0.0,1.918,2.0234,2.1795,2.2886,2.3081,2.3101,2.3232,2.3493,2.3464,2.3213,2.2757,2.1939,2.0909,1.9696,1.7952,1.6328,0.0,0.0,0.0,0.0,0.0,0.0,0.0,0.0,0.0,0.0,0.0,0.0,0.0,0.0,0.0,0.0,0.0,0.0,0.0,0.0,0.0,0.0,0.0,0.0,0.0,0.0,0.0,0.0,2.1454,2.29,2.3268,2.3883,2.3576,0.0,0.0,0.0,0.0,0.0,0.0,2.5974,2.6517,2.7386,2.8773,2.9145,2.9766,3.0677,3.1029,3.1547,3.2153,3.2153,3.2339,3.2669,3.2669,3.2669,3.2669,3.2669,3.2483,3.2008,2.9994,2.8669,2.7841,2.6419,2.5649,2.5468,2.5962,2.6064,2.6203,2.7557,2.784,2.7469,2.6703,0.0,2.4092,2.2259,0.0,0.0,0.0,0.0,2.2737,2.4171,2.479,2.5221,2.5783,2.5993,2.5906,2.5462,2.4736,2.3405,0.0,2.0526,1.9844,1.7051,0.0,0.0,0.0,0.0,2.0391,2.1289,2.2379,2.3101,2.3101,2.3144,2.3363,2.3667,2.3841,2.3788,2.3511,2.3001,2.2175,2.1118,1.9561,1.8118,1.6734,0.0,0.0,0.0,0.0,0.0,0.0,0.0,0.0,0.0,0.0,0.0,0.0,0.0,0.0,0.0,0.0,0.0,0.0,0.0,0.0,0.0,0.0,0.0,0.0,0.0,0.0,0.0,0.0,0.0,2.4487,2.5627,0.0,0.0,0.0,0.0,2.4921,2.5875,2.6993,2.838,2.8876,2.9766,3.1153,3.1236,3.1671,3.2582,3.2566,3.2587,3.2628,3.2628,3.2706,3.2669,3.2669,3.2669,3.2669,3.2669,3.2669,3.2582,3.1174,3.0305,2.9766,2.8814,2.8371,2.8371,2.8413,2.8681,2.9104,2.9208,2.8938,2.8669,2.9497,2.8255,2.633,2.5771,2.4522,0.0,0.0,2.5139,2.5669,2.6801,2.7143,2.709,2.6867,2.701,2.6934,2.5987,2.5939,2.5396,0.0,2.1902,2.0839,1.9863,0.0,1.9316,1.9668,2.0176,2.0899,2.1738,2.2598,2.3101,2.3101,2.3319,2.3493,2.3493,2.3947,2.4002,2.3511,2.3289,2.2749,2.178,2.0808,1.9582,1.8148,1.6432,0.0,0.0,0.0,0.0,0.0,0.0,0.0,0.0,0.0,0.0,0.0,0.0,0.0,0.0,0.0,0.0,0.0,0.0,0.0,0.0,0.0,0.0,0.0,0.0,0.0,0.0,0.0,0.0,2.6615,2.7945,0.0,2.662,2.6744,2.7055,2.7338,2.8255,2.9249,3.0325,3.0822,3.1422,3.223,3.225,3.2395,3.2727,3.2669,3.2669,3.2669,3.2669,3.2669,3.2669,3.2669,3.2669,3.2669,3.2669,3.2669,3.2628,3.2209,3.1733,3.1257,3.0636,3.0387,3.0387,3.0387,3.0491,3.0636,3.0636,3.0532,3.0305,2.9725,2.8587,2.7365,2.6957,2.6388,2.6094,2.6739,2.7028,2.7249,2.7966,2.8131,2.8048,2.7613,2.7648,2.7524,2.6927,2.6484,2.5982,2.5169,2.3987,2.2554,2.0664,2.0898,2.1133,2.043,2.1172,2.2031,2.2617,2.2906,2.3101,2.3101,2.3188,2.3319,2.3513,2.3754,2.3831,2.3511,2.3309,2.2894,2.2273,2.1073,2.0023,1.9259,1.775,1.6076,0.0,0.0,0.0,0.0,0.0,0.0,0.0,0.0,0.0,0.0,0.0,0.0,0.0,0.0,0.0,0.0,0.0,0.0,0.0,0.0,0.0,0.0,0.0,0.0,0.0,0.0,2.7489,2.809,2.9518,2.9911,2.8524,2.8938,2.9373,2.9539,3.0263,3.1029,3.1795,3.2106,3.2359,3.2669,3.2669,3.2669,3.2669,3.2669,3.2669,3.2669,3.2669,3.2669,3.2669,3.2669,3.2669,3.2669,3.2669,3.2669,3.2669,3.2669,3.2483,3.2194,3.194,3.1836,3.1836,3.1836,3.1836,3.1816,3.165,3.1609,3.1402,3.016,2.9249,2.8545,2.809,2.7841,2.7821,2.8255,2.838,2.8462,2.8773,2.8856,2.869,2.8069,2.7924,2.78,2.7413,2.6919,2.651,2.6253,2.5154,2.3779,2.2183,2.2498,2.2653,2.1725,2.2335,2.3004,2.3193,2.3276,2.3363,2.3363,2.3406,2.3537,2.3711,2.3806,2.3754,2.3637,2.3062,2.2584,2.2273,2.1073,2.0141,1.9575,1.805,1.6519,1.4987,0.0,0.0,0.0,0.0,0.0,0.0,0.0,0.0,0.0,0.0,0.0,0.0,0.0,0.0,0.0,0.0,0.0,0.0,0.0,0.0,0.0,0.0,0.0,2.459,2.6925,2.869,2.8711,3.0305,3.0884,2.9539,3.0222,3.0946,3.1381,3.1816,3.2194,3.2706,3.2669,3.2747,3.269,3.269,3.2747,3.2711,3.2711,3.2711,3.2711,3.2711,3.2711,3.2711,3.2747,3.269,3.269,3.2747,3.2669,3.2669,3.2669,3.2669,3.2669,3.2669,3.2669,3.2669,3.2669,3.2669,3.2607,3.2153,3.1988,3.1843,3.1008,3.0408,2.9932,2.9477,2.9021,2.8752,2.9187,2.9332,2.9332,2.9332,2.9332,2.9104,2.8173,2.7945,2.7821,2.7434,2.7309,2.707,2.6382,2.531,2.4545,2.4525,2.4099,2.3774,2.3557,2.3667,0.0,2.3537,2.3667,2.3797,2.3797,2.4013,2.4206,2.4206,2.401,2.3867,2.3846,2.2563,2.1797,2.1776,2.0907,1.9996,1.9139,1.7377,1.6008,1.507,0.0,0.0,0.0,0.0,0.0,0.0,0.0,0.0,0.0,0.0,0.0,0.0,0.0,0.0,0.0,0.0,0.0,0.0,0.0,0.0,0.0,2.4654,2.6123,2.6455,2.8587,3.0367,3.0975,3.1836,3.2209,3.1836,3.2023,3.223,3.2354,3.2478,3.2545,3.2669,3.2669,3.2871,3.3182,3.3203,3.3368,3.3699,3.3699,3.3699,3.3699,3.3699,3.3699,3.3679,3.3348,3.3203,3.3182,3.2871,3.2669,3.2669,3.2669,3.2669,3.2669,3.2669,3.2669,3.2669,3.2669,3.2669,3.2649,3.2525,3.2256,3.1946,3.1698,3.1133,3.047,3.0346,2.9973,2.9642,2.9766,2.9808,2.9808,2.9808,2.9808,2.9663,2.9063,2.8669,2.8297,2.7841,2.7489,2.722,2.7049,2.646,2.5726,2.467,2.4404,2.4179,2.3771,2.3754,0.0,2.3711,2.3754,2.3797,2.3797,2.3884,2.3884,2.3884,2.3735,2.333,2.2634,2.2074,2.1652,2.1321,2.0705,2.0162,1.9616,1.8112,1.7048,0.0,0.0,0.0,0.0,0.0,0.0,0.0,0.0,0.0,0.0,0.0,0.0,0.0,0.0,0.0,0.0,0.0,0.0,0.0,0.0,0.0,0.0,2.6682,2.8284,2.8948,3.0139,3.1319,3.2173,3.2504,3.2669,3.2669,3.2669,3.2669,3.2669,3.2669,3.2809,3.2996,3.2996,3.3203,3.3658,3.3658,3.3803,3.4132,3.4132,3.4132,3.4132,3.4132,3.4028,3.382,3.3492,3.3285,0.0,3.2851,3.2669,3.2669,3.2669,3.2669,0.0,0.0,0.0,0.0,0.0,3.2669,3.2669,3.2669,3.2504,3.2235,3.205,3.1692,3.1195,3.0801,3.0491,3.0243,3.0056,2.9994,2.9994,2.9994,2.9994,2.987,2.9415,2.9104,2.8711,2.802,2.7717,2.7489,2.7351,0.0,0.0,2.5553,2.5223,2.4893,2.4334,2.4341,2.428,2.4011,2.4013,2.41,2.41,2.41,2.41,2.41,2.382,0.0,0.0,0.0,2.1507,2.0808,2.0389,0.0,0.0,0.0,0.0,0.0,0.0,0.0,0.0,1.5856,1.5732,0.0,0.0,0.0,0.0,0.0,0.0,0.0,0.0,0.0,0.0,0.0,0.0,0.0,0.0,0.0,0.0,2.8711,3.047,3.1402,3.1526,3.1836,3.2706,3.2809,3.283,3.2871,3.283,3.2809,3.2809,3.2809,3.2975,3.3348,0.0,0.0,0.0,0.0,3.4235,3.4217,3.4217,3.4196,3.4194,3.4194,3.3906,3.3451,3.341,3.3161,3.2809,3.269,3.2669,3.2669,3.2669,3.2669,3.2669,3.2669,3.2669,3.2669,3.2669,3.2669,0.0,0.0,0.0,0.0,3.2194,3.2029,3.1843,3.1071,3.0801,3.0677,3.0201,3.0077,3.0056,3.0015,2.9994,2.9891,2.9477,2.9352,2.9083,2.8255,2.7937,2.78,2.7455,2.7351,2.7185,2.677,2.6314,2.5768,2.5112,2.5183,2.5042,2.4372,2.4461,2.4549,2.4507,0.0,0.0,2.4507,2.4136,2.3681,2.3225,2.2356,2.1507,2.0664,2.0286,2.0245,2.0622,2.0224,2.0182,2.054,2.054,2.0617,2.0596,1.803,1.7543,0.0,0.0,0.0,0.0,0.0,0.0,0.0,0.0,0.0,0.0,0.0,0.0,0.0,0.0,0.0,2.8483,3.0077,3.1422,3.2333,3.2457,3.2664,3.3182,3.3244,3.3389,3.3782,3.3472,3.3244,3.3244,3.3244,3.3285,3.3368,3.3779,0.0,3.4671,3.4691,3.4797,3.5148,3.5148,3.4983,3.4691,0.0,0.0,3.3927,3.3555,3.3327,3.3223,3.2871,3.2669,3.2669,3.2669,3.2669,3.2669,3.2669,3.2669,3.2669,3.2669,3.2669,3.2669,3.2669,3.2669,3.2669,3.2566,3.2277,3.1946,3.1781,3.1526,0.0,3.0677,3.0553,3.047,3.0098,2.9994,2.9973,2.9891,2.958,2.9249,2.9083,2.8442,2.7903,2.78,2.751,2.7268,2.7185,2.6791,2.6289,2.5768,2.5751,2.5585,2.5063,2.5044,2.4921,2.4528,2.4507,2.4507,2.4507,2.4136,2.3681,2.3225,2.2666,2.2273,2.2108,2.2004,2.2004,2.2087,2.1652,2.1445,2.1528,2.1528,2.1735,2.2045,2.041,1.9975,0.0,0.0,0.0,0.0,0.0,0.0,0.0,0.0,0.0,0.0,0.0,2.3619,2.5254,0.0,2.8731,3.0118,3.1112,3.194,3.2644,3.2669,3.2892,3.3327,3.3182,3.3223,3.3679,3.3513,3.3368,3.3368,3.3596,3.3824,3.4111,3.4339,3.4631,3.5086,3.5086,3.519,3.5418,3.519,3.4983,3.4816,3.4588,3.4235,3.372,3.3492,3.3265,3.3037,3.283,3.2669,3.2669,3.2669,3.2669,3.2669,3.2669,3.2669,3.2669,3.2669,3.2669,3.2669,3.2669,3.2669,3.2669,3.2669,3.2525,3.2277,3.205,3.1878,3.1609,3.1153,3.0864,3.0636,3.0408,3.018,2.9994,2.9994,2.9829,2.958,2.9352,2.8938,2.8483,2.8007,2.7738,2.751,2.7351,2.7123,2.6812,2.6335,2.6273,2.6061,2.5606,2.5378,2.5106,2.4879,2.4631,2.4507,2.4507,2.4136,2.3826,2.3598,2.3101,2.2832,2.2832,2.2832,2.2832,2.2832,2.2625,2.2501,2.2501,2.2501,2.2729,2.3163,2.248,2.2149,0.0,0.0,0.0,0.0,0.0,0.0,0.0,0.0,2.2563,2.395,2.5192,2.645,2.8048,2.9394,3.0532,3.1381,3.1878,3.2256,3.2628,3.2669,3.2892,3.3327,3.3078,3.3037,3.3472,3.343,3.3368,3.3368,3.3803,3.4297,3.4671,3.4797,3.5045,3.5418,3.5418,3.5418,3.5418,3.4983,3.4774,3.4671,3.4214,3.3699,3.3244,3.3244,3.3058,3.2669,3.2669,3.2669,3.2669,3.2669,3.2669,3.2669,3.2669,3.2669,3.2669,3.2669,3.2669,3.2669,3.2669,3.2669,3.2669,3.2669,3.2669,3.2607,3.2235,3.2112,3.2029,3.1629,3.1236,3.0926,3.0843,3.047,3.0139,3.0139,3.0056,2.9891,2.9518,2.9373,2.9083,2.8338,2.7999,2.78,2.7448,2.7372,2.7185,2.6812,2.675,2.6584,2.6127,2.5709,2.5461,2.5378,2.4983,2.4735,2.4631,2.426,2.4012,2.4012,2.366,2.3453,2.3453,2.3453,2.3453,2.3453,2.3453,2.3453,2.3453,2.3453,2.3639,2.4012,2.4012,2.3805,2.2459,2.1238,2.0746,2.2273,2.2459,2.308,0.0,0.0,2.6351,2.7717,2.8462,2.9042,2.9642,3.0553,3.1381,3.1878,3.2297,3.2607,3.2669,3.2669,3.2892,3.3327,3.3327,3.3492,3.4007,3.3617,3.3368,3.3368,3.3803,3.4093,3.4194,3.4921,3.5376,3.5418,3.5418,3.5418,3.5418,3.4983,3.4608,3.4194,3.3679,3.3223,3.2809,3.2809,3.2768,3.2669,3.2669,3.2669,3.2669,3.2669,3.2669,3.2669,3.2669,3.2669,3.2669,3.2669,3.2669,3.2669,3.2669,3.2669,3.2669,3.2669,3.2669,3.2669,3.2607,3.2607,3.2561,3.2029,3.1884,3.1795,3.1402,3.0946,3.0615,3.0615,3.0305,2.9973,2.9932,2.9601,2.927,2.9166,2.8483,2.7903,2.7862,2.751,2.7289,2.7247,2.7226,2.7061,2.6604,2.6501,2.6268,2.5854,2.5751,2.5564,2.5148,2.4693,2.4425,2.4425,2.4383,2.4342,2.4342,2.4342,2.4342,2.4342,2.4342,2.4342,2.4342,2.4342,2.4383,2.4425,2.4425,2.4404,2.4778,2.424,2.4115,2.4633,2.542,2.6392,2.7634,2.8048,2.84,2.9249,2.9994,3.0582,3.1091,3.1733,3.223,0.0,3.2545,3.2669,3.2669,3.2669,3.2789,3.2975,3.2996,3.3182,3.3617,3.3492,3.3368,3.3368,3.3803,3.4256,3.4526,3.4817,3.5148,3.5418,3.5418,3.5293,3.5045,3.459,3.4194,3.3658,3.3223,3.2913,3.2669,3.2669,3.2669,3.2669,3.2669,3.2669,3.2669,3.2669,3.2669,3.2669,3.2669,3.2669,3.2669,3.2669,3.2669,3.2669,3.2669,3.2669,3.2669,3.2669,3.2669,3.2669,3.2669,3.2669,3.2628,3.2442,3.2194,3.1946,3.1816,3.1236,3.0677,3.0677,3.0325,2.9994,2.9994,2.9849,2.9622,2.9352,2.898,2.8566,2.7958,2.7759,2.7552,2.7351,2.7309,2.7247,2.704,2.6791,2.6438,2.5937,2.5875,2.5813,2.5627,2.5192,2.49,2.49,2.4652,2.4507,2.4507,2.4507,2.4507,2.4507,2.4507,2.4507,2.4507,2.4507,2.4507,2.4507,2.4507,2.4507,2.5916,2.6123,2.6604,2.6455,2.7738,2.898,2.8897,2.9497,3.018,3.0657,3.1278,3.1781,3.2112,3.2442,3.2669,3.2669,3.2669,3.2669,3.2669,3.2669,3.2628,3.2504,3.2483,3.2664,3.2975,3.312,3.3203,3.3203,3.3617,3.409,3.4422,3.4671,3.49,3.5231,3.5355,3.5211,3.4816,3.436,3.3844,3.3368,3.2934,3.2669,3.2669,3.2669,3.2669,3.2669,3.2669,3.2669,3.2669,3.2669,3.2669,3.2669,3.2669,3.2669,3.2669,3.2669,3.2669,3.2669,3.2669,3.2669,3.2669,3.2669,3.2669,3.2669,3.2669,3.2669,3.2669,3.2669,3.2442,3.2173,3.2173,3.165,3.1071,3.1071,3.0615,3.018,3.018,3.0077,2.9891,2.9559,2.9394,2.9083,2.8421,2.809,2.7821,2.7489,2.7392,2.7309,2.7309,2.7019,2.6687,2.6335,2.619,2.6107,2.6107,2.5668,2.542,2.542,2.5044,2.4817,2.4693,2.4693,2.4631,2.4507,2.4507,2.4507,2.4507,2.4507,2.4507,2.4507,2.4507,2.4507,2.5334,2.5896,2.6786,2.7634,2.8918,3.018,3.1071,3.1629,3.2029,3.2483,3.2607,3.2628,3.2706,3.2669,3.2669,3.2669,3.2669,3.2669,3.2669,3.2669,3.2504,3.207,3.2008,3.2008,0.0,3.2421,3.269,3.269,3.3161,3.341,3.341,3.4339,3.4837,3.4837,3.519,3.5211,3.4816,3.436,3.3844,3.3368,3.2934,3.2669,3.2669,3.2669,3.2669,3.2669,3.2669,3.2669,3.2669,3.2669,3.2669,3.2669,3.2669,3.2669,3.2669,3.2669,3.2669,3.2669,3.2669,3.2669,3.2669,3.2669,3.2669,3.2669,3.2669,3.2669,3.2669,3.2669,3.2669,3.2649,3.2649,3.2297,3.1946,3.1946,3.1319,3.0677,3.0677,3.0305,2.9994,2.9973,2.9622,2.929,2.927,2.8524,2.7924,2.7903,2.7531,2.7309,2.7309,2.7289,2.7289,2.7268,2.6853,2.6604,2.6604,2.6169,2.5854,2.5854,2.5899,2.5647,2.5189,2.5168,2.4962,2.4507,2.4507,2.4507,2.4507,2.4507,2.4507,2.4507,2.4507,2.4507,2.6082,2.722,2.8607,2.9518,3.0553,3.1505,3.2126,3.2395,3.2483,3.2649,3.2421,3.2215,3.2215,3.2215,3.2215,3.2215,3.2483,3.2669,3.2669,3.2669,3.2504,3.205,3.2256,0.0,0.0,0.0,0.0,3.2706,3.2871,3.3078,3.3368,3.3969,3.4505,3.4816,3.49,3.4755,3.436,3.3844,3.3389,3.2934,3.2809,3.2669,3.2669,3.2669,3.2669,3.2669,3.2669,3.2669,3.2669,3.2669,3.2669,3.2669,3.2669,3.2669,3.2669,3.2669,3.2669,3.2669,3.2669,3.2669,3.2669,3.2669,3.2669,3.2669,3.2669,3.2669,3.2669,3.2669,3.2669,3.2669,3.2669,3.2339,3.1988,3.1988,3.1588,3.1071,3.076,3.0574,3.0367,3.0056,2.987,2.9663,2.9352,2.9042,2.8628,2.7958,2.7552,2.7309,2.7309,2.7309,2.7309,2.7309,2.7164,2.7081,2.7081,2.6646,2.6376,2.6376,2.6086,2.5813,2.5668,2.5668,2.5585,2.544,2.542,2.542,2.542,2.542,2.542,2.542,2.542,2.542,2.7282,2.8649,3.0015,3.0946,3.1733,3.2318,3.2607,3.2669,3.2644,3.2313,3.1878,3.1443,3.1112,3.0926,3.0967,3.1485,3.1816,3.2168,3.2607,3.2669,3.2504,3.205,3.2256,3.2318,0.0,0.0,0.0,3.2628,3.2669,3.2851,3.3141,3.3575,3.4007,3.4318,3.4484,3.4339,3.3824,3.3534,3.3161,3.2669,3.2669,3.2669,3.2669,3.2669,3.2669,3.2669,3.2669,3.2669,3.2669,3.2669,3.2669,3.2669,3.2669,3.2669,3.2669,3.2669,3.2669,3.2669,3.2669,3.2669,3.2669,3.2669,3.2669,3.2669,3.2669,3.2669,3.2669,3.2669,3.2669,3.2669,3.2669,3.2463,3.2235,3.2235,3.194,3.1485,3.1029,3.0801,3.0553,3.0077,2.9994,2.9891,2.9601,2.9415,2.9042,2.8297,2.7779,2.7448,2.733,2.7309,2.7309,2.7309,2.7309,2.7309,2.7309,2.704,2.6853,2.6853,2.6584,2.6356,2.6169,2.6169,2.6086,2.5875,2.5875,2.5875,2.5875,2.5875,2.5875,2.5875,2.5875,2.5875,2.8876,3.0056,3.0967,3.1802,3.2339,3.2669,3.2669,3.2706,3.2416,3.1526,3.0926,3.0263,0.0,0.0,2.9042,3.0367,3.0677,3.1215,3.254,3.2669,3.2504,0.0,0.0,0.0,0.0,0.0,0.0,3.2649,0.0,3.2669,3.2669,3.3141,3.3368,3.3368,3.3803,3.3824,3.3389,3.3348,3.3141,3.2669,3.2669,3.2669,3.2669,3.2669,3.2669,3.2669,3.2669,3.2669,3.2669,3.2669,3.2669,3.2669,3.2669,3.2669,3.2669,3.2669,3.2669,3.2669,3.2669,3.2669,3.2669,3.2669,3.2669,3.2669,3.2669,3.2669,3.2669,3.2669,3.2669,3.2669,3.2669,3.2669,3.2669,3.2669,3.2339,3.1884,3.1505,3.105,3.0594,3.0118,3.0015,2.9994,2.9994,2.9622,2.9145,2.8711,2.8255,2.78,2.7392,2.7309,2.7309,2.7309,2.7309,2.7309,2.7309,2.7309,2.7309,2.7309,2.7309,2.7102,2.6667,2.6646,2.6438,2.5958,2.5982,2.5982,2.5982,2.5982,2.5982,2.5982,2.5982,2.5982,2.9829,3.1008,3.1836,3.2359,3.2587,3.2669,3.2669,3.2209,3.1567,3.0988,2.9663,2.8338,2.7427,0.0,0.0,2.9083,3.0574,0.0,3.2566,3.2669,0.0,3.205,0.0,3.2359,3.2008,3.2297,0.0,0.0,3.2669,3.2669,3.2669,3.3141,3.3368,3.3368,3.3492,3.3492,3.3368,3.3058,3.2851,3.2669,3.2669,3.2669,3.2669,3.2669,3.2669,3.2669,3.2669,3.2669,3.2669,3.2669,3.2669,3.2669,3.2669,3.2669,3.2669,3.2669,3.2669,3.2669,3.2669,3.2669,3.2669,3.2669,3.2669,3.2669,3.2669,3.2669,3.2669,3.2669,3.2669,3.2669,3.2669,3.2669,3.2669,3.2669,3.2587,3.238,3.1905,3.1526,3.1071,3.0594,3.0243,2.9994,2.9994,2.9622,2.927,2.9145,2.8731,2.8276,2.7821,2.7469,2.7309,2.7309,2.7309,2.7309,2.7309,2.7309,2.7309,2.7309,2.7309,2.7247,2.7143,2.7123,2.7081,2.6957,2.6957,2.6957,2.6957,2.6957,2.6957,2.6957,2.6957,2.6957,3.0884,3.1795,3.2339,3.2607,3.2669,3.2582,3.1961,3.1443,3.0594,2.8918,2.7759,2.6558,2.5068,2.6061,2.7324,0.0,0.0,0.0,3.2525,3.2669,3.2587,0.0,3.2525,0.0,3.2318,3.2525,3.2669,0.0,3.2669,3.2669,3.2669,3.2954,3.3099,3.3099,3.3099,3.3099,3.3099,3.2851,3.2669,3.2669,3.2669,3.2669,3.2669,3.2669,3.2669,3.2669,0.0,3.2669,3.2669,3.2669,3.2669,3.2669,3.2669,3.2669,3.2669,3.2669,3.2669,3.2669,3.2669,3.2669,3.2669,3.2669,3.2669,3.2669,3.2669,3.2669,3.2669,3.2669,3.2669,3.2669,3.2669,3.2669,3.2669,3.2669,3.2669,3.2545,3.2091,3.1836,3.1464,3.0822,3.047,3.0243,3.0036,2.9787,2.9601,2.9601,2.9208,2.8814,2.8566,2.7966,2.7469,2.733,2.7309,2.7309,2.7309,2.7309,2.7309,2.7309,2.7309,2.7309,2.7309,2.7309,2.7309,2.7309,2.7309,2.7309,2.7309,2.7309,2.7309,2.7309,2.7309,2.7309,3.1843,3.2359,3.2669,3.2669,3.2628,3.2292,3.0988,3.045,2.9394,2.6413,2.5544,2.4716,2.2687,2.3805,2.5523,2.6978,0.0,3.0636,3.2478,3.2669,3.2669,3.2669,3.2669,3.2669,3.2669,3.2669,3.2669,3.2669,3.2669,3.2669,3.2669,3.2669,3.2669,3.2669,3.2669,3.2669,3.2669,3.2669,3.2669,3.2669,3.2669,3.2669,3.2669,3.2669,3.2669,3.2669,0.0,0.0,3.2669,3.2669,3.2669,3.2669,3.2669,3.2669,3.2669,3.2669,3.2669,3.2669,3.2669,3.2669,3.2669,3.2669,3.2669,3.2669,3.2669,3.2669,3.2669,3.2669,3.2669,3.2669,3.2669,3.2669,3.2669,3.2669,3.2669,3.2566,3.2153,3.2029,3.174,3.0946,3.0781,3.0636,3.016,3.0098,3.0056,2.9994,2.9663,2.9373,2.9311,2.8545,2.7862,2.7537,2.7496,2.7455,2.7392,2.7392,2.7372,2.7309,2.7309,2.7309,2.7309,2.7309,2.7309,2.7309,2.7309,2.7309,2.7309,2.7309,2.7309,2.7309,2.7309,2.7309,3.2375,3.2607,3.2669,3.2669,3.238,3.1843,3.0905,2.9208,0.0,2.5689,2.3826,2.2273,2.1507,2.2873,2.4717,2.6459,2.8545,3.0636,3.2478,3.2669,3.2669,0.0,3.2669,3.2669,3.2669,3.2669,0.0,0.0,0.0,3.2669,3.2669,3.2669,3.2669,3.2669,3.2669,3.2669,3.2669,3.2669,3.2669,3.2669,3.2669,3.2669,3.2669,3.2669,3.2669,3.2669,3.2669,0.0,3.2669,3.2669,3.2669,3.2669,3.2669,3.2669,3.2669,3.2669,3.2669,3.2669,3.2669,3.2669,3.2669,3.2669,3.2669,3.2669,3.2669,3.2669,3.2669,3.2669,3.2669,3.2669,3.2669,3.2669,3.2669,3.2669,3.2669,3.2706,3.2566,3.2256,3.1878,3.136,3.1257,3.1112,3.0657,3.0574,3.0429,3.0056,2.9932,2.9746,2.9352,2.8835,2.8462,2.838,2.838,2.8214,2.7841,2.78,2.7655,2.733,2.7309,2.7309,2.7309,2.7309,2.7309,2.7309,2.7309,2.7309,2.7309,2.7309,2.7309,2.7309,2.7309,2.7309,3.2623,3.2669,3.2669,3.2669,3.2153,3.1202,2.9622,0.0,0.0,2.3557,2.2211,2.1155,2.0224,2.1942,2.3888,2.4985,2.7123,2.929,3.1381,3.1671,3.194,3.2644,3.2669,3.2669,3.2669,3.2669,3.2669,0.0,0.0,3.2669,3.2669,3.2669,3.2669,3.2669,3.2669,3.2669,3.2669,3.2669,3.2669,3.2669,3.2669,3.2669,3.2669,3.2669,3.2669,3.2669,3.2669,0.0,3.2669,3.2669,3.2669,3.2669,3.2669,3.2669,3.2669,3.2669,3.2669,3.2669,3.2669,3.2669,3.2669,3.2669,3.2669,3.2669,3.2669,3.2669,3.2669,3.2669,3.2669,3.2669,3.2669,3.2669,3.2669,3.2669,3.2669,3.2669,3.2669,3.2504,3.2215,3.1816,3.1712,3.1588,3.1133,3.105,3.0884,3.0429,3.0346,3.018,2.9725,2.9477,2.9145,2.8669,2.8607,2.8524,2.8297,2.8276,2.8193,2.7986,2.7966,2.7966,2.7966,2.7966,2.7966,2.7966,2.7966,2.7966,2.7966,2.7966,2.7966,2.7966,2.7966,2.7966,3.2669,3.2669,3.2669,3.2669,3.1905,3.0582,2.8421,2.6641,2.4633,2.1714,2.0886,2.0369,1.943,2.1109,2.2915,0.0,2.5668,2.789,3.0346,3.0781,3.1298,3.2525,3.2669,0.0,3.2669,3.2669,0.0,0.0,0.0,0.0,3.2747,3.2669,3.2669,3.2669,3.2669,3.2669,3.2669,3.2669,3.2669,3.2669,3.2669,3.2669,3.2669,3.2669,3.2669,3.2669,3.2669,0.0,0.0,3.2669,3.2669,3.2669,3.2669,3.2669,3.2669,3.2669,3.2669,3.2669,3.2669,3.2669,3.2669,3.2669,3.2669,3.2669,3.2669,3.2669,3.2669,3.2669,3.2669,3.2669,3.2669,3.2669,3.2669,3.2669,3.2669,3.2669,3.2669,3.2669,3.2566,3.2194,3.2132,3.2043,3.1588,3.1526,3.136,3.0905,3.0739,3.0553,3.0201,3.0056,2.9725,2.898,2.8918,2.8876,2.8773,2.8773,2.8711,2.8628,2.8607,2.8607,2.8607,2.8607,2.8607,2.8607,2.8607,2.8607,2.8607,2.8607,2.8607,2.8607,2.8607,2.8607,3.2669,3.2669,3.2669,3.2669,3.1733,3.0243,2.8359,0.0,2.3494,2.1528,2.012,1.9388,1.9679,2.0245,0.0,0.0,0.0,2.7096,3.0243,3.105,3.1671,3.2566,0.0,0.0,3.2669,3.2669,0.0,0.0,0.0,0.0,3.269,3.2669,3.2669,3.2669,3.2669,3.2669,3.2669,3.2669,3.2669,3.2669,3.2669,3.2669,3.2669,3.2669,3.2669,3.2669,3.2669,0.0,0.0,3.2669,3.2669,3.2669,3.2669,3.2669,3.2669,3.2669,3.2669,3.2669,3.2669,3.2669,3.2669,3.2669,3.2669,3.2669,3.2669,3.2669,3.2669,3.2669,3.2669,3.2669,3.2669,3.2669,3.2669,3.2669,3.2669,3.2669,3.2669,3.2669,3.2669,3.2607,3.2607,3.2463,3.2008,3.1926,3.1836,3.1381,3.0946,3.0677,3.0636,3.0243,2.9973,2.987,2.987,2.9704,2.927,2.9249,2.9063,2.8649,2.8607,2.8607,2.8607,2.8607,2.8607,2.8607,2.8607,2.8607,2.8607,2.8607,2.8607,2.8607,2.8607,2.8607,3.2499,3.2669,3.2669,3.2669,3.1278,2.9435,2.7883,2.5192,2.2604,2.1031,1.9831,1.916,1.9347,1.9761,2.0659,0.0,0.0,0.0,2.78,2.8657,2.9539,3.1298,3.1754,0.0,0.0,0.0,0.0,0.0,0.0,0.0,3.2747,3.2975,3.2996,3.2747,3.2669,3.2669,3.2669,3.2669,3.2669,3.2669,3.2669,3.2669,3.2669,3.2669,3.2669,3.2669,3.2669,0.0,0.0,3.2669,3.2669,3.2669,3.2669,3.2669,3.2669,3.2669,3.2669,3.2669,3.2669,3.2669,3.2669,3.2669,3.2669,3.2669,3.2669,3.2669,3.2669,3.2669,3.2669,3.2669,3.2669,3.2669,3.2669,3.2669,3.2669,3.2669,3.2669,3.2669,3.2669,3.2669,3.2669,3.2607,3.2421,3.2401,3.2235,3.1836,3.1609,3.1402,3.1133,3.0946,3.0719,3.045,3.016,2.9911,2.9746,2.9725,2.9642,2.9456,2.9435,2.9435,2.9435,2.9435,2.9435,2.9435,2.9435,2.9435,2.9435,2.9435,2.9435,2.9435,2.9435,2.9435,3.2023,3.252,3.2649,3.2504,3.0905,2.8897,2.7455,2.4695,2.2108,2.0684,1.9706,1.9098,1.9098,1.9471,2.0197,0.0,0.0,2.3598,2.6252,2.7019,2.8056,3.0036,0.0,3.1112,0.0,0.0,0.0,0.0,0.0,0.0,0.0,3.3141,3.3182,3.269,3.2669,3.2669,3.2669,3.2669,3.2669,3.2669,3.2669,3.2669,3.2669,3.2669,3.2669,3.2669,0.0,0.0,0.0,3.2669,3.2669,3.2669,3.2669,3.2669,3.2669,3.2669,3.2669,3.2669,3.2669,3.2669,3.2669,3.2669,3.2669,3.2669,3.2669,3.2669,3.2669,3.2669,3.2669,3.2669,3.2669,3.2669,3.2669,3.2669,3.2669,3.2669,3.2669,3.2669,3.2669,3.2669,3.2669,3.2669,3.2669,3.2669,3.2566,3.2235,3.207,3.1919,3.1609,3.1464,3.1257,3.0926,3.0594,3.0284,3.0015,2.9994,2.9994,2.9994,2.9994,2.9994,2.9994,2.9994,2.9994,2.9994,2.9994,2.9994,2.9994,2.9994,2.9994,2.9994,2.9994,2.9994,3.1257,3.2043,3.2566,3.2112,3.0657,2.8835,2.704,2.4467,2.2108,2.0684,1.9706,1.9098,1.9098,1.9471,2.0093,2.0969,2.2273,0.0,2.6293,2.7019,2.7828,0.0,0.0,2.9684,0.0,0.0,0.0,0.0,0.0,0.0,0.0,3.3141,3.3182,3.269,3.2669,3.2669,3.2669,3.2669,3.2669,3.2669,3.2669,3.2669,3.2669,3.2669,3.2669,0.0,0.0,0.0,0.0,3.2669,3.2669,3.2669,3.2669,3.2669,3.2669,3.2669,3.2669,3.2669,3.2669,3.2669,3.2669,3.2669,3.2669,3.2669,3.2669,3.2669,3.2669,3.2669,3.2669,3.2669,3.2669,3.2669,3.2669,3.2669,3.2669,3.2669,3.2669,3.2669,3.2669,3.2669,3.2669,3.2669,3.2669,3.2669,3.2669,3.2669,3.2277,3.1988,3.1967,3.165,3.1381,3.136,3.136,3.0988,3.0077,2.9994,2.9994,2.9994,2.9994,2.9994,2.9994,2.9994,2.9994,2.9994,2.9994,2.9994,2.9994,2.9994,2.9994,2.9994,2.9994,2.9994,2.9187,2.9932,3.0284,2.9808,2.8566,2.7034,2.5523,2.3536,2.1631,2.0245,1.9533,1.9098,1.9098,1.9222,1.9927,2.1756,2.2418,0.0,0.0,0.0,0.0,2.8752,3.0491,3.1754,0.0,0.0,0.0,0.0,0.0,0.0,0.0,3.2851,3.2871,3.2669,3.2669,3.2669,3.2669,3.2669,3.2669,3.2669,3.2669,3.2669,3.2669,3.2669,0.0,0.0,0.0,0.0,0.0,3.2669,3.2669,3.2669,3.2669,3.2669,3.2711,3.3058,3.3161,3.3161,3.3161,3.3161,3.312,3.283,3.2669,3.2669,3.2669,3.2669,3.2669,3.2669,3.2669,3.2669,3.2669,3.2669,3.2669,3.2669,3.2669,3.2669,3.2669,3.2669,3.2669,3.2669,3.2669,3.2669,3.2669,3.2669,3.2669,3.2669,3.2545,3.2463,3.2463,3.2395,3.2188,3.1857,3.1836,3.1588,3.0988,3.0946,3.0801,3.0491,3.047,3.0325,3.0015,2.9994,2.9994,2.9994,2.9994,2.9994,2.9994,2.9994,2.9994,2.9994,2.9994,2.9994,2.7324,2.8421,2.8938,2.8462,2.7324,2.5958,2.4592,2.2873,2.1217,2.0052,1.943,1.9098,1.9098,1.9243,1.9844,2.1238,2.2045,0.0,0.0,0.0,0.0,2.8752,0.0,0.0,0.0,0.0,0.0,0.0,0.0,0.0,0.0,3.2669,3.2669,3.2669,3.2669,3.2669,3.2669,3.2669,3.2669,3.2669,3.2669,3.2669,3.2669,3.2669,0.0,0.0,0.0,0.0,0.0,3.2669,3.2669,3.2669,3.2669,3.2669,3.2789,3.3223,3.3368,3.341,3.3575,3.3637,3.3575,3.312,3.2871,3.2669,3.2669,3.2669,3.2669,3.2669,3.2669,3.2669,3.2669,3.2669,3.2669,3.2669,3.2669,3.2669,3.2669,3.2669,3.2669,3.2669,3.2669,3.2669,3.2669,3.2669,3.2669,3.2669,3.2669,3.2669,3.2669,3.2669,3.2566,3.2277,3.2235,3.2132,3.1919,3.1567,3.1257,3.0967,3.0946,3.0822,3.0532,3.0512,3.0512,3.0512,3.0512,3.0429,3.0243,3.0077,2.9994,2.9994,2.9994,2.9994,0.0,2.72,2.8173,2.7696,2.6599,2.5295,2.3991,2.2335,0.0,1.9927,1.9409,1.9119,1.9181,1.9492,1.9803,2.001,2.1404,0.0,0.0,2.563,0.0,0.0,3.0305,0.0,0.0,0.0,0.0,0.0,0.0,0.0,0.0,3.2669,3.2669,3.2669,3.2669,3.2669,3.2669,3.2669,3.2669,3.2669,3.2669,3.2669,3.2669,3.2669,0.0,0.0,0.0,0.0,0.0,3.2669,3.2669,3.2669,3.2669,3.2669,3.2789,3.3244,3.343,3.3492,3.4007,3.4173,3.409,3.3534,3.3099,3.2711,3.2747,3.2669,3.2669,3.2669,3.2669,3.2669,3.2669,3.2669,3.2669,3.2669,3.2669,3.2669,3.2669,3.2669,3.2669,3.2669,3.2669,3.2669,3.2669,3.2669,3.2669,3.2669,3.2669,3.2669,3.2669,3.2669,3.2669,3.2669,3.2669,3.2669,3.2669,3.1961,3.1464,3.1422,3.1422,3.1402,3.1381,3.1381,3.1381,3.1381,3.1381,3.1174,3.0739,3.0305,3.0098,3.0098,3.0098,3.0098,2.2232,0.0,2.4881,2.4405,2.3784,2.3018,0.0,2.1155,2.0327,1.945,1.9181,1.9305,1.9975,1.9624,1.9969,2.2084,0.0,0.0,2.4695,0.0,0.0,3.1671,0.0,0.0,0.0,0.0,0.0,0.0,0.0,0.0,0.0,3.2669,3.2669,3.2669,3.2669,3.2669,3.2669,3.2669,3.2669,3.2669,3.2669,3.2669,3.2669,3.2669,0.0,0.0,0.0,0.0,3.2669,3.2669,3.2669,3.2669,3.2669,3.2669,3.283,3.3617,3.3966,3.3969,3.4505,3.465,3.4526,3.3637,3.3306,3.3161,3.283,3.2669,3.2669,3.2669,3.2669,3.2669,3.2669,3.2669,3.2669,3.2669,3.2669,3.2669,3.2669,3.2669,3.2669,3.2669,3.2669,3.2669,3.2669,3.2669,3.2669,3.2669,3.2669,3.2669,3.2669,3.2669,3.2669,3.2669,3.2669,3.2669,3.2669,3.254,3.225,3.1899,3.1878,3.1733,3.1381,3.1381,3.1381,3.1381,3.1381,3.1319,3.1215,3.1112,3.105,3.105,3.105,3.105,2.0493,2.2004,2.3494,2.3246,2.2832,2.2315,2.159,2.0741,1.9913,1.9243,1.9098,1.9326,1.9996,1.9893,2.0245,2.1963,2.2749,0.0,0.0,0.0,3.0636,3.2499,0.0,0.0,0.0,0.0,0.0,0.0,0.0,0.0,0.0,3.2669,3.2669,3.2669,3.2669,3.2669,3.2669,3.2669,3.2669,3.2669,3.2669,3.2669,3.2669,3.2669,3.2669,0.0,0.0,0.0,3.2669,3.2669,3.2669,3.2669,3.2669,3.2669,3.283,3.3741,3.4132,3.4155,3.4838,3.4921,3.4733,3.4235,3.3924,3.3658,3.341,3.3203,3.2975,3.2789,3.2669,3.2669,3.2669,3.2669,3.2669,3.2669,3.2669,3.2669,3.2669,3.2669,3.2669,3.2669,3.2669,3.2669,3.2669,3.2669,3.2669,3.2669,3.2669,3.2669,3.2669,3.2669,3.2669,3.2669,3.2669,3.2669,3.2669,3.2669,3.2566,3.2318,3.2297,3.2194,3.2002,3.2002,3.2002,3.2002,3.1795,3.1671,3.1671,3.1485,3.1381,3.1381,3.1381,3.1381,1.9948,2.1524,2.3039,2.2915,2.2625,2.2273,2.1797,2.0741,1.9761,1.9305,1.9264,1.9471,2.001,2.0369,2.0886,2.1573,0.0,0.0,2.8959,3.0201,3.1278,0.0,0.0,0.0,0.0,0.0,0.0,0.0,0.0,0.0,0.0,3.2669,3.2669,3.2669,3.2669,3.2669,3.2669,3.2669,3.2669,3.2669,3.2669,3.2669,3.2669,3.2669,3.2669,0.0,0.0,0.0,3.2669,3.2669,3.2669,3.2669,3.2669,3.2669,3.283,3.3658,3.4069,3.4196,3.5107,3.5169,3.492,3.4837,3.4546,3.4155,3.4152,3.3782,3.341,3.3037,3.283,3.2669,3.2669,3.2669,3.2669,3.2669,3.2669,3.2669,3.2669,3.2669,3.2669,3.2669,3.2669,3.2669,3.2669,3.2669,3.2669,3.2669,3.2669,3.2669,3.2669,3.2669,3.2669,3.2669,3.2669,3.2669,3.2669,3.2669,3.2669,3.2669,3.2669,3.2669,3.2669,3.2669,3.2669,3.2669,3.2297,3.2091,3.2091,3.1774,3.1588,3.1588,3.1588,3.1588,2.0596,2.1735,2.2418,2.1631,2.1673,2.1797,2.1321,2.0762,2.0203,1.9782,1.9955,2.0472,2.1342,2.1549,2.2252,2.4239,0.0,2.7903,0.0,0.0,0.0,0.0,0.0,0.0,0.0,0.0,0.0,0.0,0.0,0.0,0.0,3.2669,3.2669,3.2669,3.2669,3.2669,3.2669,3.2669,3.2669,3.2669,3.2669,3.2669,3.2669,3.2669,3.2669,0.0,0.0,3.2669,3.2669,3.2669,3.2669,3.2669,3.2669,3.2669,3.2789,3.3306,3.3779,3.4196,3.5107,3.5376,3.5252,3.4879,3.4774,3.4629,3.4256,3.4069,3.4007,3.3886,3.3306,3.2669,3.2669,3.2669,3.2669,3.2669,3.2669,3.2669,3.2669,3.2669,3.2669,3.2669,3.2669,3.2669,3.2669,3.2669,3.2669,3.2669,3.2669,3.2669,3.2669,3.2669,3.2669,3.2669,3.2669,3.2669,3.2669,3.2669,3.2669,3.2669,3.2669,3.2669,3.2669,3.2669,3.2669,3.2669,3.2607,3.2566,3.2566,3.2561,3.252,3.252,3.252,3.252,1.9913,2.0866,2.1714,2.1528,2.2211,2.2811,2.2335,2.1673,2.1114,2.0907,2.1031,2.1383,2.2045,2.2791,2.4073,2.6641,0.0,2.9435,3.0574,0.0,0.0,0.0,0.0,0.0,0.0,0.0,0.0,0.0,0.0,0.0,0.0,0.0,3.2669,3.2669,3.2669,3.2669,3.2669,3.2669,3.2669,3.2669,3.2669,3.2669,3.2669,3.2669,3.2669,3.2669,0.0,3.2669,3.2669,3.2669,3.2669,3.2669,3.2669,3.2669,3.2809,3.3492,3.4111,3.4588,3.519,3.5418,3.5376,3.519,3.5107,3.5066,3.4859,3.4631,3.4505,3.4505,3.3969,3.3451,3.3451,3.3451,3.3451,3.3451,3.3265,3.3078,3.3078,3.2892,3.2669,3.2669,3.2669,3.2669,3.2669,3.2669,3.2669,3.2669,3.2669,3.2669,3.2669,3.2669,3.2669,3.2669,3.2669,3.2669,3.2669,3.2669,3.2669,3.2669,3.2669,3.2669,3.2669,3.2669,3.2669,3.2669,3.2669,3.2669,3.2669,3.2669,3.2669,3.2669,3.2669,3.2669,1.9907,2.0555,2.1424,2.1983,2.2853,2.3577,2.3639,2.2956,2.2356,2.2563,2.2604,2.2708,2.308,2.4426,0.0,2.8421,2.9725,3.0719,0.0,0.0,0.0,0.0,0.0,0.0,0.0,0.0,0.0,0.0,0.0,0.0,0.0,0.0,3.2669,3.2669,3.2669,3.2669,3.2669,3.2669,3.2669,3.2669,3.2669,3.2669,3.2669,3.2669,3.2669,3.2669,3.2669,3.2669,3.2669,3.2669,3.2669,3.2669,3.2669,3.2669,3.283,3.3741,3.436,3.4733,3.5231,3.5418,3.5418,3.5418,3.5418,3.5418,3.5418,3.519,3.4921,3.4921,3.4652,3.4341,3.4113,3.4132,3.4132,3.4132,3.3862,3.3534,3.3534,3.3285,3.3037,3.3037,3.3037,3.3037,3.3037,3.3037,3.2996,3.2892,3.2871,3.2851,3.269,3.2669,3.2669,3.2669,3.2669,3.2669,3.2669,3.2669,3.2669,3.2669,3.2669,3.2669,3.2669,3.2669,3.2669,3.2669,3.2669,3.2669,3.2669,3.2669,3.2669,3.2669,3.2669,3.2669,2.1901,2.2004,2.1963,2.2873,2.2832,2.3039,2.4652,2.4385,2.3971,2.4819,2.4941,2.4962,2.4983,2.678,2.8524,2.9145,3.0739,0.0,0.0,0.0,0.0,0.0,0.0,0.0,0.0,0.0,0.0,0.0,0.0,0.0,0.0,0.0,0.0,3.2669,3.2669,3.2669,3.2669,3.2669,3.2669,3.2669,3.2669,3.2669,3.2669,3.2669,3.2669,3.2669,3.2669,3.2669,3.2669,3.2669,3.2669,3.2669,3.2669,3.2669,3.283,3.3741,3.4152,3.4238,3.5128,3.5418,3.5418,3.5418,3.5418,3.5418,3.5418,3.5397,3.5376,3.5376,3.5355,3.5128,3.4279,3.4132,3.4132,3.4132,3.4051,3.4069,3.4069,3.3989,3.3969,3.3969,3.3969,3.3969,3.3969,3.3969,3.3824,3.3389,3.3327,3.3182,3.2789,3.2669,3.2669,3.2669,3.2669,3.2669,3.2669,3.2669,3.2669,3.2669,3.2669,3.2669,3.2669,3.2669,3.2669,3.2669,3.2669,3.2669,3.2669,3.2669,3.2669,3.2669,3.2669,3.2669,2.1155,2.1507,2.1963,2.2604,2.3267,2.4095,2.5357,2.5585,2.5896,2.7096,2.7297,2.7297,2.7297,0.0,2.9622,3.0098,3.1464,0.0,0.0,0.0,0.0,0.0,0.0,0.0,0.0,0.0,0.0,0.0,0.0,0.0,0.0,0.0,0.0,3.2669,3.2669,3.2669,3.2669,3.2669,3.2669,3.2669,3.2669,3.2669,3.2669,3.2669,3.2669,3.2669,3.2669,3.2669,3.2669,3.2669,3.2669,3.2669,3.2669,3.2892,3.3203,3.3844,3.4318,3.465,3.5211,3.5418,3.5418,3.5418,3.5418,3.5418,3.5418,3.5418,3.5418,3.5418,3.5418,3.5335,3.5004,3.4921,3.4921,3.4921,3.4693,3.4567,3.4567,3.4339,3.4132,3.4132,3.4132,3.4132,3.4132,3.4132,3.401,3.3844,3.3862,3.3741,3.3575,3.3306,3.3141,3.3141,3.2892,3.2669,3.2669,3.2669,3.2669,3.2669,3.2669,3.2669,3.2669,3.2669,3.2669,3.2669,3.2669,3.2669,3.2669,3.2669,3.2669,3.2669,3.2669,3.2669,2.1031,2.1321,2.1942,2.2563,2.3639,2.4879,2.6413,2.6868,2.7469,2.9145,2.9145,2.8835,2.8835,0.0,0.0,0.0,0.0,0.0,0.0,0.0,0.0,0.0,0.0,0.0,0.0,0.0,0.0,0.0,0.0,0.0,0.0,0.0,0.0,0.0,3.2669,3.2669,3.2669,3.2669,3.2669,3.2669,3.2669,3.2669,3.2669,3.2669,3.2669,3.2669,3.2669,3.2669,3.2669,3.2669,3.2669,3.2669,3.2669,3.2913,3.3244,3.3844,3.4318,3.4691,3.5211,3.5418,3.5418,3.5418,3.5418,3.5418,3.5418,3.5418,3.5418,3.5418,3.5418,3.5418,3.5418,3.5418,3.5418,3.5418,3.519,3.4962,3.4962,3.4714,3.4486,3.4486,3.4486,3.4486,3.4486,3.4486,3.4445,3.436,3.4339,3.4297,3.4152,3.3782,3.3534,3.3389,3.2996,3.2669,3.2669,3.2669,3.2669,3.2669,3.2669,3.2669,3.2669,3.2669,3.2669,3.2669,3.2669,3.2669,3.2669,3.2669,3.2669,3.2669,3.2669,3.2669,2.2045,2.1797,2.2025,2.2956,2.3888,2.5251,2.8007,2.8276,2.8607,3.0905,3.0284,2.9332,2.9332,2.9704,0.0,0.0,0.0,0.0,0.0,0.0,0.0,0.0,0.0,0.0,0.0,0.0,0.0,0.0,0.0,0.0,0.0,0.0,0.0,0.0,3.2669,3.2669,3.2669,3.2669,3.2669,3.2669,3.2669,3.2669,3.2669,3.2669,3.2669,3.2669,3.2669,3.2669,3.2669,3.2669,3.2669,3.2669,3.2669,3.2669,3.2851,3.3741,3.4132,3.4196,3.5107,3.5418,3.5418,3.5418,3.5418,3.5418,3.5418,3.5418,3.5418,3.5418,3.5418,3.5418,3.5418,3.5418,3.5418,3.5418,3.5418,3.5418,3.5418,3.5418,3.5418,3.5418,3.5418,3.5418,3.5418,3.5418,3.5273,3.4899,3.4837,3.465,3.4194,3.4132,3.3966,3.343,3.2996,3.2669,3.2669,3.2669,3.2669,3.2669,3.2669,3.2669,3.2669,3.2669,3.2669,3.2669,3.2669,3.2669,3.2669,3.2669,3.2669,3.2669,3.2669,3.2669,2.1487,2.1797,2.2522,2.3453,2.5316,2.7338,2.9187,2.9477,2.9953,3.1919,3.1733,3.1133,3.0822,3.1133,0.0,0.0,0.0,0.0,0.0,0.0,0.0,0.0,0.0,0.0,0.0,0.0,0.0,0.0,0.0,0.0,0.0,0.0,0.0,0.0,3.2669,3.2669,3.2669,3.2669,3.2669,3.2669,3.2669,3.2669,3.2669,3.2669,3.2669,3.2669,3.2669,3.2669,3.2669,3.2669,3.2669,3.2669,3.2669,3.2913,3.3223,3.3472,3.4049,3.465,3.4859,3.5169,3.5418,3.5418,3.5418,3.5418,3.5418,3.5418,3.5418,3.5418,3.5418,3.5418,3.5418,3.5418,3.5418,3.5418,3.5418,3.5418,3.5418,3.5418,3.5418,3.5418,3.5418,3.5418,3.5418,3.5418,3.5376,3.5252,3.5231,3.5066,3.4671,3.4608,3.4318,3.3509,3.3265,3.3058,3.2747,3.2669,3.2669,3.2669,3.2669,3.2669,3.2669,3.2669,3.2669,3.2669,3.2669,3.2669,3.2669,3.2669,3.2669,3.2669,3.2669,3.2669,2.1963,2.2604,2.3619,2.4902,2.6579,2.8421,3.0367,3.0946,3.1402,3.2499,3.223,3.1754,3.165,3.1712,0.0,0.0,0.0,0.0,0.0,0.0,0.0,0.0,0.0,0.0,0.0,0.0,0.0,0.0,0.0,0.0,0.0,0.0,0.0,0.0,3.2669,3.2669,3.2669,3.2669,3.2669,3.2669,3.2669,3.2669,3.2669,3.2669,3.2669,3.2669,3.2669,3.2669,3.2669,3.2669,3.2669,3.2669,3.2669,3.2892,3.3141,3.3306,3.3779,3.4318,3.4691,3.4941,3.519,3.5355,3.5418,3.5418,3.5418,3.5418,3.5418,3.5418,3.5418,3.5418,3.5418,3.5418,3.5418,3.5418,3.5418,3.5418,3.5418,3.5418,3.5418,3.5418,3.5418,3.5418,3.5418,3.5418,3.5418,3.5418,3.5418,3.5314,3.5045,3.492,3.4526,3.3779,3.3492,3.3203,3.2711,3.2669,3.2669,3.2669,3.2669,3.2669,3.2669,3.2669,3.2669,3.2669,3.2669,3.2669,3.2669,3.2669,3.2669,3.2669,3.2669,3.2669,2.2936,2.3784,2.4941,2.6895,2.7821,2.8909,3.1471,3.238,3.2669,3.2669,0.0,3.1629,3.1967,3.1774,0.0,0.0,0.0,0.0,0.0,0.0,0.0,0.0,0.0,0.0,0.0,0.0,0.0,0.0,0.0,0.0,0.0,0.0,0.0,0.0,3.2669,3.2669,3.2669,3.2669,3.2669,0.0,3.2669,3.2669,3.2669,3.2669,3.2669,3.2669,3.2669,3.2669,3.2669,3.2669,3.2669,3.2669,3.2669,3.2669,3.2768,3.3161,3.3348,3.3492,3.4401,3.4754,3.4878,3.5231,3.5397,3.5418,3.5418,3.5418,3.5418,3.5418,3.5418,3.5418,3.5418,3.5418,3.5418,3.5418,3.5418,3.5418,3.5418,3.5418,3.5418,3.5418,3.5418,3.5418,3.5418,3.5418,3.5418,3.5418,3.5418,3.5418,3.5418,3.5066,3.4712,3.4235,3.3762,3.3306,3.283,3.2789,3.2768,3.2669,3.2669,3.2669,3.2669,3.2669,3.2669,3.2669,3.2669,3.2669,3.2669,3.2669,3.2669,3.2669,3.2669,3.2669,2.1983,2.3308,2.5024,2.7241,2.9477,3.1347,3.2297,3.2607,3.2669,3.2669,3.2582,3.2478,3.2504,0.0,0.0,0.0,0.0,0.0,0.0,0.0,0.0,0.0,0.0,0.0,0.0,0.0,0.0,0.0,0.0,0.0,0.0,0.0,0.0,3.2669,3.2669,3.2669,3.2669,3.2669,3.2669,0.0,3.2669,3.2669,3.2669,3.2669,3.2669,3.2669,3.2669,3.2669,3.2669,3.2669,3.2669,3.2669,3.2669,3.2669,3.269,3.283,3.3078,3.341,3.3596,3.4214,3.4837,3.4879,3.5128,3.5418,3.5418,3.5418,3.5418,3.5418,3.5418,3.5418,3.5418,3.5418,3.5418,3.5418,3.5418,3.5418,3.5418,3.5418,3.5418,3.5418,3.5418,3.5418,3.5418,3.5418,3.5418,3.5418,3.5418,3.5418,3.5418,3.5335,3.5107,3.4712,3.4588,3.4194,3.3306,3.3244,3.3099,3.269,3.2669,3.2669,3.2669,3.2669,3.2669,3.2669,3.2669,3.2669,3.2669,3.2669,3.2669,3.2669,3.2669,3.2669,2.2439,2.4136,2.6103,2.8628,3.0822,3.238,3.2607,3.2669,3.2669,3.2669,3.2669,3.2669,0.0,0.0,0.0,0.0,0.0,0.0,0.0,0.0,0.0,0.0,0.0,0.0,0.0,0.0,0.0,0.0,0.0,0.0,0.0,3.2669,3.2669,3.2669,3.2669,3.2669,3.2669,3.2669,3.2669,3.2669,3.2669,3.2669,3.2669,3.2669,3.2669,3.2669,3.2669,3.2669,3.2669,3.2669,3.2669,3.2669,3.2669,3.2669,3.2669,3.2669,3.2871,3.3099,3.3306,3.3903,3.4526,3.4754,3.5066,3.5418,3.5418,3.5418,3.5418,3.5418,3.5418,3.5418,3.5418,3.5418,3.5418,3.5418,3.5418,3.5418,3.5418,3.5418,3.5418,3.5418,3.5418,3.5418,3.5418,3.5418,3.5418,3.5418,3.5418,3.5418,3.5418,3.5418,3.5252,3.4857,3.4816,3.4526,3.382,3.3513,3.3285,3.3058,3.2851,3.2669,3.2669,3.2669,3.2669,3.2669,3.2669,3.2669,3.2669,3.2669,3.2669,3.2669,3.2669,3.2669,2.2625,2.4883,2.7268,2.9994,3.165,3.2566,3.2649,3.2669,3.2669,3.2669,3.2669,0.0,0.0,0.0,0.0,0.0,0.0,0.0,0.0,0.0,0.0,0.0,0.0,0.0,0.0,0.0,0.0,0.0,0.0,0.0,3.2669,3.2669,3.2669,3.2669,3.2669,3.2669,3.2669,3.2669,3.2669,3.2669,3.2669,3.2669,3.2669,3.2669,3.2669,3.2669,3.2669,3.2669,3.2669,3.2669,3.2669,3.2669,3.2669,3.2669,3.2669,3.2669,3.2669,3.2789,3.3141,3.3617,3.4194,3.4567,3.5004,3.5418,3.5418,3.5418,3.5418,3.5418,3.5418,3.5418,3.5418,3.5418,3.5418,3.5418,3.5418,3.5418,3.5418,3.5418,3.5418,3.5418,3.5418,3.5418,3.5418,3.5418,3.5418,3.5418,3.5418,3.5418,3.5418,3.5418,3.5273,3.4921,3.4879,3.4754,3.4277,3.3844,3.3575,3.3513,3.3078,3.2851,3.2851,3.2711,3.2669,3.2669,3.2669,3.2669,3.2669,3.2669,3.2669,3.2669,3.2669,3.2669,2.0155,2.3411,2.7268,2.9994,3.1422,3.2173,3.2644,0.0,3.2669,0.0,0.0,0.0,0.0,0.0,0.0,0.0,0.0,0.0,0.0,0.0,0.0,0.0,0.0,0.0,0.0,0.0,0.0,0.0,0.0,0.0,3.2669,3.2669,3.2669,3.2669,3.2669,3.2669,3.2669,3.2669,3.2669,3.2669,3.2669,3.2669,3.2669,3.2669,3.2669,3.2669,3.2669,3.2669,3.2669,3.2669,3.2669,3.2669,3.2669,3.2669,3.2669,3.2669,3.2669,3.2747,3.2789,3.3368,3.4132,3.4194,3.4734,3.5418,3.5418,3.5418,3.5418,3.5418,3.5418,3.5418,3.5418,3.5418,3.5418,3.5418,3.5418,3.5418,3.5418,3.5418,3.5418,3.5418,3.5418,3.5418,3.5418,3.5418,3.5418,3.5418,3.5418,3.5418,3.5418,3.5418,3.5397,3.5335,3.5335,3.5148,3.4774,3.4671,3.4463,3.4049,3.3555,3.3285,3.3285,3.2934,3.2669,3.2669,3.2669,3.2669,3.2669,3.2669,3.2669,3.2669,3.2669,3.2669,2.1756,2.4467,2.7226,2.9684,3.0801,3.1402,3.1857,3.2168,3.2277,3.2277,0.0,0.0,0.0,0.0,0.0,0.0,0.0,0.0,0.0,0.0,0.0,0.0,0.0,0.0,0.0,0.0,0.0,0.0,0.0,3.2669,3.2669,3.2669,3.2669,3.2669,3.2669,3.2669,3.2669,3.2669,3.2669,3.2669,3.2669,3.2669,3.2669,3.2669,3.2669,3.2669,3.2669,3.2669,3.2669,3.2669,3.2669,3.2669,3.2669,3.2669,3.2669,3.2669,3.2669,3.2669,3.2669,3.3306,3.4132,3.4132,3.4693,3.5418,3.5418,3.5418,3.5418,3.5418,3.5418,3.5418,3.5418,3.5418,3.5418,3.5418,3.5418,3.5418,3.5418,3.5418,3.5418,3.5418,3.5418,3.5418,3.5418,3.5418,3.5418,3.5418,3.5418,3.5418,3.5418,3.5418,3.5418,3.5418,3.5418,3.5335,3.5148,3.49,3.4733,3.4526,3.4069,3.3637,3.3389,3.3203,3.2975,3.2747,3.2669,3.2669,3.2669,3.2669,3.2669,3.2669,3.2669,3.2669,2.2441,2.4405,2.5958,2.8504,2.9642,3.0346,0.0,0.0,3.1878,0.0,0.0,0.0,0.0,0.0,0.0,0.0,0.0,0.0,0.0,0.0,0.0,0.0,0.0,0.0,0.0,0.0,0.0,0.0,0.0,3.2669,3.2669,3.2669,3.2669,3.2669,3.2669,3.2669,3.2669,3.2669,3.2669,3.2669,3.2669,3.2669,3.2669,3.2669,3.2669,3.2669,3.2669,3.2669,3.2669,3.2669,3.2669,3.2669,3.2669,3.2669,3.2669,3.2669,3.2669,3.2669,3.2669,3.3306,3.4132,3.4132,3.4693,3.5418,3.5418,3.5418,3.5418,3.5418,3.5418,3.5418,3.5418,3.5418,3.5418,3.5418,3.5418,3.5418,3.5418,3.5418,3.5418,3.5418,3.5418,3.5418,3.5418,3.5418,3.5418,3.5418,3.5418,3.5418,3.5418,3.5418,3.5418,3.5418,3.5418,3.5418,3.5418,3.5128,3.4921,3.4921,3.4567,3.4152,3.3741,3.3513,3.3223,3.2892,3.2789,3.2669,3.2669,3.2669,3.2669,3.2669,3.2669,3.2669,1.9837,2.1342,2.2811,2.6003,2.7738,2.9083,0.0,0.0,0.0,0.0,0.0,0.0,0.0,0.0,0.0,0.0,0.0,0.0,0.0,0.0,0.0,0.0,0.0,0.0,0.0,0.0,0.0,0.0,0.0,3.2669,3.2669,3.2669,3.2669,3.2669,3.2669,3.2669,3.2669,3.2669,3.2669,3.2669,3.2669,3.2669,3.2669,3.2669,3.2669,3.2669,3.2669,3.2669,3.2669,3.2669,3.2669,3.2669,3.2669,3.2669,3.2669,3.2669,3.2669,3.2669,3.2669,3.3306,3.4132,3.4132,3.4693,3.5418,3.5418,3.5418,3.5418,3.5418,3.5418,3.5418,3.5418,3.5418,3.5418,3.5418,3.5418,3.5418,3.5418,3.5418,3.5418,3.5418,3.5418,3.5418,3.5418,3.5418,3.5418,3.5418,3.5418,3.5418,3.5418,3.5418,3.5418,3.5418,3.5418,3.5418,3.5418,3.5397,3.5376,3.5376,3.4962,3.4774,3.4754,3.3844,3.3368,3.3348,3.2934,3.2669,3.2669,3.2669,3.2669,3.2669,3.2669,3.2669,1.921,2.0659,2.2356,2.4695,2.6061,2.722,2.8607,2.9725,0.0,0.0,0.0,0.0,0.0,0.0,0.0,0.0,0.0,0.0,0.0,0.0,0.0,0.0,0.0,0.0,0.0,0.0,0.0,0.0,0.0,0.0,3.2669,3.2669,3.2669,3.2669,3.2669,3.2669,3.2669,3.2669,3.2669,3.2669,3.2669,3.2669,3.2669,3.2669,3.2669,3.2669,3.2669,3.2669,3.2669,3.2669,3.2669,3.2669,3.2669,3.2669,3.2669,3.2669,3.2669,3.2711,3.3037,3.3555,3.4173,3.4463,3.4921,3.5418,3.5418,3.5418,3.5418,3.5418,3.5418,3.5418,3.5418,3.5418,3.5418,3.5418,3.5418,3.5418,3.5418,3.5418,3.5418,3.5418,3.5418,3.5418,3.5418,3.5418,3.5418,3.5418,3.5418,3.5418,3.5418,3.5418,3.5418,3.5418,3.5418,3.5418,3.5418,3.5418,3.5418,3.5418,3.5273,3.5045,3.4837,3.4214,3.3738,3.3389,3.2954,3.2669,3.2669,3.2669,3.2669,3.2669,3.2669,3.2669,1.8299,1.9727,2.1549,0.0,2.4178,2.5109,2.7407,0.0,0.0,0.0,0.0,0.0,0.0,0.0,0.0,0.0,0.0,0.0,0.0,0.0,0.0,0.0,0.0,0.0,0.0,0.0,0.0,0.0,0.0,0.0,3.2442,3.2587,3.2669,3.2669,3.2669,3.2669,3.2669,3.2669,3.2669,3.2669,3.2669,3.2669,3.2669,3.2669,3.2669,3.2669,3.2669,3.2669,3.2669,3.2669,3.2669,3.2669,3.2669,3.2669,3.2669,3.2669,3.2669,3.2789,3.3223,3.3738,3.4194,3.4671,3.5066,3.5418,3.5418,3.5418,3.5418,3.5418,3.5418,3.5418,3.5418,3.5418,3.5418,3.5418,3.5418,3.5418,3.5418,3.5418,3.5418,3.5418,3.5418,3.5418,3.5418,3.5418,3.5418,3.5418,3.5418,3.5418,3.5418,3.5418,3.5418,3.5418,3.5418,3.5418,3.5418,3.5418,3.5418,3.5418,3.5418,3.5293,3.4983,3.4548,3.4132,3.3617,3.3182,3.2871,3.2669,3.2669,3.2669,3.2669,3.2669,3.2669,0.0,0.0,0.0,0.0,0.0,0.0,2.6848,0.0,0.0,0.0,0.0,0.0,0.0,0.0,0.0,0.0,0.0,0.0,0.0,0.0,0.0,0.0,0.0,0.0,0.0,0.0,0.0,0.0,0.0,3.1967,3.1967,3.2401,3.2649,3.2649,3.2649,3.2669,3.2669,3.2669,3.2669,3.2669,3.2669,3.2669,3.2669,3.2669,3.2669,3.2669,3.2669,3.2669,3.2669,3.2669,3.2669,3.2669,3.2669,3.2669,3.2669,3.2669,3.2669,3.2789,3.3244,3.3699,3.4214,3.4691,3.5066,3.5418,3.5418,3.5418,3.5418,3.5418,3.5418,3.5418,3.5418,3.5418,3.5418,3.5418,3.5418,3.5418,3.5418,3.5418,3.5418,3.5418,3.5418,3.5418,3.5418,3.5418,3.5418,3.5418,3.5418,3.5418,3.5418,3.5418,3.5418,3.5418,3.5418,3.5418,3.5418,3.5418,3.5418,3.5418,3.5418,3.5418,3.5418,3.4983,3.4608,3.4152,3.3617,3.3161,3.269,3.2747,3.2669,3.2669,3.2669,3.2669,1.7192,0.0,0.0,0.0,0.0,0.0,0.0,0.0,0.0,0.0,0.0,0.0,0.0,0.0,0.0,0.0,0.0,0.0,0.0,0.0,0.0,0.0,0.0,0.0,0.0,0.0,0.0,0.0,3.1485,3.1567,3.1567,3.1692,3.1899,3.2173,3.2173,3.2339,3.2727,3.2669,3.2669,3.2669,3.2669,3.2669,3.2669,3.2669,3.2669,3.2669,3.2669,3.2669,3.2669,3.2669,3.2669,3.2669,3.2669,3.2669,3.2669,3.2669,3.2669,3.2851,3.3617,3.3969,3.4256,3.4983,3.5314,3.5418,3.5418,3.5418,3.5418,3.5418,3.5418,3.5418,3.5418,3.5418,3.5418,3.5418,3.5418,3.5418,3.5418,3.5418,3.5418,3.5418,3.5418,3.5418,3.5418,3.5418,3.5418,3.5418,3.5418,3.5418,3.5418,3.5418,3.5418,3.5418,3.5418,3.5418,3.5418,3.5418,3.5418,3.5418,3.5418,3.5418,3.5418,3.4983,3.4754,3.4629,3.3782,3.3327,3.3203,3.2892,3.2669,3.2669,3.2669,3.2669,1.7874,1.8589,1.9686,0.0,0.0,0.0,0.0,2.2977,0.0,0.0,0.0,0.0,0.0,0.0,0.0,0.0,0.0,0.0,0.0,0.0,0.0,0.0,0.0,0.0,0.0,0.0,0.0,3.0801,3.0988,3.1174,3.136,3.1381,3.1505,3.1754,3.1884,3.2112,3.238,3.2587,3.2669,3.2669,3.2669,3.2669,3.2669,3.2669,3.2669,3.2669,3.2669,3.2669,3.2669,3.2669,3.2669,3.2669,3.2669,3.2669,3.2669,3.2669,3.2669,3.2851,3.3762,3.4132,3.4217,3.5128,3.5418,3.5418,3.5418,3.5418,3.5418,3.5418,3.5418,3.5418,3.5418,3.5418,3.5418,3.5418,3.5418,3.5418,3.5418,3.5418,3.5418,3.5418,3.5418,3.5418,3.5418,3.5418,3.5418,3.5418,3.5418,3.5418,3.5418,3.5418,3.5418,3.5418,3.5418,3.5418,3.5418,3.5418,3.5418,3.5418,3.5418,3.5418,3.5418,3.5169,3.4941,3.4816,3.409,3.3472,3.3099,3.2851,3.2669,3.2669,3.2669,3.2669,1.9003,1.9561,2.054,2.0886,1.981,0.0,2.3019,2.2668,0.0,0.0,0.0,0.0,0.0,0.0,0.0,0.0,0.0,0.0,0.0,0.0,0.0,0.0,0.0,0.0,0.0,2.9994,2.9994,2.9994,3.0387,3.0781,3.1195,3.1215,3.1236,3.1298,3.1692,3.1884,3.1988,3.2401,3.2742,3.2898,3.2784,3.2784,3.2898,3.2784,3.2669,3.2669,3.2669,3.2669,3.2669,3.2669,3.2669,3.2669,3.2669,3.2669,3.2669,3.2669,3.2669,3.2851,3.3762,3.4132,3.4217,3.5128,3.5418,3.5418,3.5418,3.5418,3.5418,3.5418,3.5418,3.5418,3.5418,3.5418,3.5418,3.5418,3.5418,3.5418,3.5418,3.5418,3.5418,3.5418,3.5418,3.5418,3.5418,3.5418,3.5418,3.5418,3.5418,3.5418,3.5418,3.5418,3.5418,3.5418,3.5418,3.5418,3.5418,3.5418,3.5418,3.5418,3.5418,3.5418,3.5418,3.5418,3.5231,3.4899,3.438,3.3637,3.2669,3.2669,3.2669,3.2669,3.2669,3.2669,2.0659,2.0783,2.0824,2.0218,0.0,0.0,1.9727,2.0162,0.0,0.0,0.0,0.0,0.0,0.0,0.0,0.0,0.0,0.0,0.0,0.0,0.0,0.0,0.0,0.0,0.0,2.9994,2.9994,2.9994,3.0077,3.018,3.0263,3.0263,3.0429,3.0801,3.0905,3.1298,3.1967,3.207,3.2784,3.4155,3.3161,3.3218,3.4099,3.3161,3.2669,3.2669,3.2669,3.2669,3.2669,3.2669,3.2669,3.2669,3.2669,3.2669,3.2669,3.2669,3.2669,3.2851,3.3762,3.4132,3.4217,3.5128,3.5418,3.5418,3.5418,3.5418,3.5418,3.5418,3.5418,3.5418,3.5418,3.5418,3.5418,3.5418,3.5418,3.5418,3.5418,3.5418,3.5418,3.5418,3.5418,3.5418,3.5418,3.5418,3.5418,3.5418,3.5418,3.5418,3.5418,3.5418,3.5418,3.5418,3.5418,3.5418,3.5418,3.5418,3.5418,3.5418,3.5418,3.5418,3.5418,3.5418,3.5376,3.5293,3.4486,3.3637,3.2669,3.2669,3.2669,3.2669,3.2669,3.2669,2.1942,2.1797,2.1756,2.1565,0.0,0.0,0.0,0.0,0.0,0.0,0.0,0.0,0.0,0.0,0.0,0.0,0.0,0.0,0.0,0.0,0.0,0.0,0.0,0.0,0.0,2.9642,2.9746,2.9973,2.9994,2.9994,2.9994,2.9994,3.0098,3.0325,3.0574,3.1008,3.1692,3.2509,3.3458,3.4469,3.4469,3.4469,3.4469,3.4469,3.4134,3.3614,3.3614,3.3614,3.3614,3.3614,3.3614,3.3558,3.2955,3.2669,3.2669,3.2669,3.2669,3.2851,3.3762,3.4132,3.4217,3.5128,3.5418,3.5418,3.5418,3.5418,3.5418,3.5418,3.5418,3.5418,3.5418,3.5418,3.5418,3.5418,3.5418,3.5418,3.5418,3.5418,3.5418,3.5418,3.5418,3.5418,3.5418,3.5418,3.5418,3.5418,3.5418,3.5418,3.5418,3.5418,3.5418,3.5418,3.5418,3.5418,3.5418,3.5418,3.5418,3.5418,3.5418,3.5418,3.5418,3.5418,3.5314,3.5086,3.4424,3.3741,3.3058,3.283,3.2669,3.2669,3.2669,3.2669,0.0,0.0,0.0,0.0,0.0,2.159,0.0,0.0,0.0,0.0,0.0,0.0,0.0,0.0,0.0,0.0,0.0,0.0,0.0,0.0,0.0,0.0,0.0,0.0,0.0,2.8876,2.9042,2.9684,2.9559,2.958,2.9849,2.9953,2.9994,2.9994,3.0367,3.0781,3.1236,3.2639,3.3803,3.4703,3.5508,3.5608,3.519,3.5881,3.5717,3.4858,3.4858,3.4858,3.4858,3.4858,3.4858,3.4692,3.3501,3.3069,3.3012,3.2784,3.2669,3.2851,3.3762,3.4132,3.4217,3.5128,3.5418,3.5418,3.5418,3.5418,3.5418,3.5418,3.5418,3.5418,3.5418,3.5418,3.5418,3.5418,3.5418,3.5418,3.5418,3.5418,3.5418,3.5418,3.5418,3.5418,3.5418,3.5418,3.5418,3.5418,3.5418,3.5418,3.5418,3.5418,3.5418,3.5418,3.5418,3.5418,3.5418,3.5418,3.5418,3.5418,3.5418,3.5418,3.5418,3.5418,3.5211,3.4837,3.436,3.3844,3.3368,3.2934,3.2669,3.2669,3.2669,3.2669,0.0,0.0,0.0,0.0,2.4497,0.0,0.0,0.0,0.0,0.0,0.0,0.0,0.0,0.0,0.0,0.0,0.0,0.0,0.0,0.0,0.0,0.0,0.0,0.0,0.0,0.0,2.7407,2.8669,2.8028,2.816,2.9311,2.9766,2.9994,2.9994,3.0036,3.0305,3.076,3.1379,3.2944,3.5359,3.4912,3.5663,3.7501,3.6565,3.6131,3.6022,3.6022,3.6022,3.6022,3.6022,3.6022,3.5859,3.4747,3.4323,3.4155,3.3105,3.2669,3.2851,3.3762,3.4132,3.4217,3.5128,3.5418,3.5418,3.5418,3.5418,3.5418,3.5418,3.5418,3.5418,3.5418,3.5418,3.5418,3.5418,3.5418,3.5418,3.5418,3.5418,3.5418,3.5418,3.5418,3.5418,3.5418,3.5418,3.5418,3.5418,3.5418,3.5418,3.5418,3.5418,3.5418,3.5418,3.5418,3.5418,3.5418,3.5418,3.5418,3.5418,3.5418,3.5418,3.5418,3.5418,3.5211,3.4837,3.436,3.3844,3.3368,3.2934,3.2669,3.2669,3.2669,3.2669,0.0,0.0,0.0,0.0,0.0,0.0,2.1585,0.0,2.1599,0.0,0.0,0.0,0.0,0.0,0.0,0.0,0.0,0.0,0.0,0.0,0.0,0.0,0.0,0.0,0.0,0.0,0.0,0.0,0.0,2.7469,2.8835,2.9352,2.9725,2.9994,2.9994,3.0222,3.0677,3.2468,3.4101,3.5534,3.6867,3.7684,3.7897,3.8108,3.7844,3.718,3.718,3.718,3.718,3.718,3.718,3.7126,3.6642,3.61,3.5443,3.4891,3.4475,3.4197,3.488,3.4812,3.4569,3.5211,3.5418,3.5418,3.5418,3.5418,3.5418,3.5418,3.5418,3.5418,3.5418,3.5418,3.5418,3.5418,3.5418,3.5418,3.5418,3.5418,3.5418,3.5418,3.5418,3.5418,3.5418,3.5418,3.5418,3.5418,3.5418,3.5418,3.5418,3.5418,3.5418,3.5418,3.5418,3.5418,3.5418,3.5418,3.5418,3.5418,3.5418,3.5418,3.5418,3.5418,3.5335,3.5148,3.4754,3.4297,3.3841,3.3327,3.2975,3.2669,3.2669,3.2669,2.7538,0.0,0.0,0.0,0.0,0.0,0.0,0.0,0.0,0.0,0.0,0.0,0.0,0.0,0.0,0.0,0.0,0.0,0.0,0.0,0.0,0.0,0.0,0.0,0.0,0.0,0.0,0.0,0.0,0.0,2.8152,2.9044,2.9587,2.9787,2.9932,3.0297,3.0948,3.3226,3.4801,3.5748,3.8108,3.8921,3.8425,3.931,3.9206,3.8372,3.8372,3.8372,3.8372,3.8372,3.8372,3.8372,3.8372,3.7897,3.7073,3.6457,3.5957,3.5688,3.6175,3.5951,3.547,3.5437,3.5418,3.5418,3.5418,3.5418,3.5418,3.5418,3.5418,3.5418,3.5418,3.5418,3.5418,3.5418,3.5418,3.5418,3.5418,3.5418,3.5418,3.5418,3.5418,3.5418,3.5418,3.5418,3.5418,3.5418,3.5418,3.5418,3.5418,3.5418,3.5418,3.5418,3.5418,3.5418,3.5418,3.5418,3.5418,3.5418,3.5418,3.5418,3.5418,3.5418,3.5418,3.5418,3.4983,3.465,3.4318,3.3658,3.3223,3.2913,3.2789,3.2669,0.0,0.0,0.0,2.7205,0.0,0.0,0.0,0.0,2.3835,0.0,0.0,0.0,0.0,0.0,0.0,0.0,0.0,0.0,0.0,0.0,0.0,0.0,0.0,0.0,0.0,0.0,0.0,0.0,0.0,0.0,2.7253,2.8961,2.9735,2.9311,2.9766,3.0495,3.1556,3.2652,3.4223,3.6386,3.7445,3.8554,3.9645,3.9697,3.9697,3.9645,3.9645,3.9645,3.9645,3.9645,3.9645,3.9645,3.9645,3.9645,3.931,3.7073,3.6507,3.7012,3.7484,3.7475,3.7045,3.5767,3.5418,3.5418,3.5418,3.5418,3.5418,3.5418,3.5418,3.5418,3.5418,3.5418,3.5418,3.5418,3.5418,3.5418,3.5418,3.5418,3.5418,3.5418,3.5418,3.5418,3.5418,3.5418,3.5418,3.5418,3.5418,3.5418,3.5418,3.5418,3.5418,3.5418,3.5418,3.5418,3.5418,3.5418,3.5418,3.5418,3.5418,3.5418,3.5418,3.5418,3.5418,3.5418,3.4983,3.4816,3.4795,3.3824,3.3368,3.3348,3.2934,3.2669,0.0,0.0,2.9657,2.7944,0.0,0.0,0.0,0.0,0.0,0.0,0.0,0.0,0.0,0.0,0.0,0.0,0.0,0.0,0.0,0.0,0.0,0.0,0.0,0.0,0.0,0.0,0.0,0.0,2.4967,0.0,0.0,2.861,2.9516,2.9714,2.9889,3.0547,3.1586,3.3339,3.493,3.6413,3.8248,3.931,3.9697,3.9697,3.9697,3.9697,3.9697,3.9697,3.9697,3.9697,3.9697,3.9697,3.9697,3.9697,3.9594,3.8816,3.8557,3.8626,3.8643,3.8625,3.8328,3.7067,3.6664,3.6481,3.5665,3.5418,3.5418,3.5418,3.5418,3.5418,3.5418,3.5418,3.5418,3.5418,3.5418,3.5418,3.5418,3.5418,3.5418,3.5418,3.5418,3.5418,3.5418,3.5418,3.5418,3.5418,3.5418,3.5418,3.5418,3.5418,3.5418,3.5418,3.5418,3.5418,3.5418,3.5418,3.5418,3.5418,3.5418,3.5418,3.5418,3.5418,3.5418,3.5418,3.5273,3.5045,3.4816,3.4194,3.3679,3.3368,3.2934,3.2669,3.1014,3.1396,0.0,3.0308,2.9325,0.0,2.6187,0.0,0.0,0.0,0.0,0.0,0.0,0.0,0.0,0.0,0.0,0.0,0.0,0.0,0.0,0.0,0.0,0.0,0.0,0.0,2.3298,2.4812,2.4642,0.0,0.0,0.0,2.9862,3.0197,3.0242,3.1054,3.2728,3.4114,3.5549,3.6993,3.8839,3.9697,3.9697,3.9697,3.9697,3.9697,3.9697,3.9697,3.9697,3.9697,3.9697,3.9697,3.9697,3.9697,3.9697,3.9697,3.9876,4.0044,3.9915,3.9861,3.9686,3.8387,3.797,3.773,3.6481,3.6074,3.6013,3.5541,3.5418,3.5418,3.5418,3.5418,3.5418,3.5418,3.5418,3.5418,3.5418,3.5418,3.5418,3.5418,3.5418,3.5418,3.5418,3.5418,3.5418,3.5418,3.5418,3.5418,3.5418,3.5418,3.5418,3.5418,3.5418,3.5418,3.5418,3.5418,3.5418,3.5418,3.5418,3.5418,3.5418,3.5418,3.5418,3.5418,3.5418,3.5273,3.4983,3.4588,3.4132,3.3617,3.3161,3.2871]}]]